[[{"header":{"parameterUnit":"m.s-1","parameterCategory":1,"la1":31.0,"la2":29.5877,"lo1":-88.7671,"lo2":-86.6584,"dx":0.0162,"dy":0.0185,"nx":115,"ny":88,"refTime":"2023-01-26T06:00:00:Z","depth":0,"parameterNumber":2,"parameterNumberName":"U-component_of_WINDS"},"data":[0.0,0.0,0.0,0.0,0.0,0.0,0.0,0.0,0.0,0.0,0.0,0.0,0.0,0.0,0.0,0.0,0.0,0.0,0.0,0.0,0.0,0.0,0.0,0.0,0.0,0.0,0.0,0.0,0.0,0.0,0.0,0.0,0.0,0.0,0.0,0.0,0.0,0.0,0.0,0.0,0.0,0.0,0.0,0.0,0.0,0.0,0.0,0.0,0.0,0.0,0.0,0.0,0.0,0.0,0.0,0.0,0.0,0.0,0.0,0.0,0.0,0.0,0.0,0.0,0.0,0.0,0.0,0.0,0.0,0.0,0.0,0.0,0.0,0.0,0.0,0.0,0.0,0.0,0.0,0.0,0.0,0.0,0.0,0.0,0.0,0.0,0.0,0.0,0.0,0.0,0.0,0.0,0.0,0.0,0.0,0.0,0.0,0.0,0.0,0.0,0.0,0.0,0.0,0.0,0.0,0.0,0.0,0.0,0.0,0.0,0.0,0.0,0.0,0.0,0.0,0.0,0.0,0.0,0.0,0.0,0.0,0.0,0.0,0.0,0.0,0.0,0.0,0.0,0.0,0.0,0.0,0.0,0.0,0.0,0.0,0.0,0.0,0.0,0.0,0.0,0.0,0.0,0.0,0.0,0.0,0.0,0.0,0.0,0.0,0.0,0.0,0.0,0.0,0.0,0.0,0.0,0.0,0.0,0.0,0.0,0.0,0.0,0.0,0.0,0.0,0.0,0.0,0.0,0.0,0.0,0.0,0.0,0.0,0.0,0.0,0.0,0.0,0.0,0.0,0.0,0.0,0.0,0.0,0.0,0.0,0.0,0.0,0.0,0.0,0.0,0.0,0.0,0.0,0.0,0.0,0.0,0.0,0.0,0.0,0.0,0.0,0.0,0.0,0.0,0.0,0.0,0.0,0.0,0.0,0.0,0.0,0.0,0.0,0.0,0.0,0.0,0.0,0.0,0.0,0.0,0.0,0.0,0.0,0.0,0.0,0.0,0.0,0.0,0.0,0.0,0.0,0.0,0.0,0.0,0.0,0.0,0.0,0.0,0.0,0.0,0.0,0.0,0.0,0.0,0.0,0.0,0.0,0.0,0.0,0.0,0.0,0.0,0.0,0.0,0.0,0.0,0.0,0.0,0.0,0.0,0.0,0.0,0.0,0.0,0.0,0.0,0.0,0.0,0.0,0.0,0.0,0.0,0.0,0.0,0.0,0.0,0.0,0.0,0.0,0.0,0.0,0.0,0.0,0.0,0.0,0.0,0.0,0.0,0.0,0.0,0.0,0.0,0.0,0.0,0.0,0.0,0.0,0.0,0.0,0.0,0.0,0.0,0.0,0.0,0.0,0.0,0.0,0.0,0.0,0.0,0.0,0.0,0.0,0.0,0.0,0.0,0.0,0.0,0.0,0.0,0.0,0.0,0.0,0.0,0.0,0.0,0.0,0.0,0.0,0.0,0.0,0.0,0.0,0.0,0.0,0.0,0.0,0.0,0.0,0.0,0.0,0.0,0.0,0.0,0.0,0.0,0.0,0.0,0.0,0.0,0.0,0.0,0.0,0.0,0.0,0.0,0.0,0.0,0.0,0.0,0.0,0.0,0.0,0.0,0.0,0.0,0.0,0.0,0.0,0.0,0.0,0.0,0.0,0.0,0.0,0.0,0.0,0.0,0.0,0.0,0.0,0.0,0.0,0.0,0.0,0.0,0.0,0.0,0.0,0.0,0.0,0.0,0.0,0.0,0.0,0.0,0.0,0.0,0.0,0.0,0.0,0.0,0.0,0.0,0.0,0.0,0.0,0.0,0.0,0.0,0.0,0.0,0.0,0.0,0.0,0.0,0.0,0.0,0.0,0.0,0.0,0.0,0.0,0.0,0.0,0.0,0.0,0.0,0.0,0.0,0.0,0.0,0.0,0.0,0.0,0.0,0.0,0.0,0.0,0.0,0.0,0.0,0.0,0.0,0.0,0.0,0.0,0.0,0.0,0.0,0.0,0.0,0.0,0.0,0.0,0.0,0.0,0.0,0.0,0.0,0.0,0.0,0.0,0.0,0.0,0.0,0.0,0.0,0.0,0.0,0.0,0.0,0.0,0.0,0.0,0.0,0.0,0.0,0.0,0.0,0.0,0.0,0.0,0.0,0.0,0.0,0.0,0.0,0.0,0.0,0.0,0.0,0.0,0.0,0.0,0.0,0.0,0.0,0.0,0.0,0.0,0.0,0.0,0.0,0.0,0.0,0.0,0.0,0.0,0.0,0.0,0.0,0.0,0.0,0.0,0.0,0.0,0.0,0.0,0.0,0.0,0.0,0.0,0.0,0.0,0.0,0.0,0.0,0.0,0.0,0.0,0.0,0.0,0.0,0.0,0.0,0.0,0.0,0.0,0.0,0.0,0.0,0.0,0.0,0.0,0.0,0.0,0.0,0.0,0.0,0.0,0.0,0.0,0.0,0.0,0.0,0.0,0.0,0.0,0.0,0.0,0.0,0.0,0.0,0.0,0.0,0.0,0.0,0.0,0.0,0.0,0.0,0.0,0.0,0.0,0.0,0.0,0.0,0.0,0.0,0.0,0.0,0.0,0.0,0.0,0.0,0.0,0.0,0.0,0.0,0.0,0.0,0.0,0.0,0.0,0.0,0.0,0.0,0.0,0.0,0.0,0.0,0.0,0.0,0.0,0.0,0.0,0.0,0.0,0.0,0.0,0.0,0.0,0.0,0.0,0.0,0.0,0.0,0.0,0.0,0.0,0.0,0.0,0.0,0.0,0.0,0.0,0.0,0.0,0.0,0.0,0.0,0.0,0.0,0.0,0.0,0.0,0.0,0.0,0.0,0.0,0.0,0.0,0.0,0.0,0.0,0.0,0.0,0.0,0.0,0.0,0.0,0.0,0.0,0.0,0.0,0.0,0.0,0.0,0.0,0.0,0.0,0.0,0.0,0.0,0.0,0.0,0.0,0.0,0.0,0.0,0.0,0.0,0.0,0.0,0.0,0.0,0.0,0.0,0.0,0.0,0.0,0.0,0.0,0.0,0.0,0.0,0.0,0.0,0.0,0.0,0.0,0.0,0.0,0.0,0.0,0.0,0.0,0.0,0.0,0.0,0.0,0.0,0.0,0.0,0.0,0.0,0.0,0.0,0.0,0.0,0.0,0.0,0.0,0.0,0.0,0.0,0.0,0.0,0.0,0.0,0.0,0.0,0.0,0.0,0.0,0.0,0.0,0.0,0.0,0.0,0.0,0.0,0.0,0.0,0.0,0.0,0.0,0.0,0.0,0.0,0.0,0.0,0.0,0.0,0.0,0.0,0.0,0.0,0.0,0.0,0.0,0.0,0.0,0.0,0.0,0.0,0.0,0.0,0.0,0.0,0.0,0.0,0.0,0.0,0.0,0.0,0.0,0.0,0.0,0.0,0.0,0.0,0.0,0.0,0.0,0.0,0.0,0.0,0.0,0.0,0.0,0.0,0.0,0.0,0.0,0.0,0.0,0.0,0.0,0.0,0.0,0.0,0.0,0.0,0.0,0.0,0.0,0.0,0.0,0.0,0.0,0.0,0.0,0.0,0.0,0.0,0.0,0.0,0.0,0.0,0.0,0.0,0.0,0.0,0.0,0.0,0.0,0.0,0.0,0.0,0.0,0.0,0.0,0.0,0.0,0.0,0.0,0.0,0.0,0.0,0.0,0.0,0.0,0.0,0.0,0.0,0.0,0.0,0.0,0.0,0.0,0.0,0.0,0.0,0.0,0.0,0.0,0.0,0.0,0.0,0.0,0.0,0.0,0.0,0.0,0.0,0.0,0.0,0.0,0.0,0.0,0.0,0.0,0.0,0.0,0.0,0.0,0.0,0.0,0.0,0.0,0.0,0.0,0.0,0.0,0.0,0.0,0.0,0.0,0.0,0.0,0.0,0.0,0.0,0.0,0.0,0.0,0.0,0.0,0.0,0.0,0.0,0.0,0.0,0.0,0.0,0.0,0.0,0.0,0.0,0.0,0.0,0.0,0.0,0.0,0.0,0.0,0.0,0.0,0.0,0.0,0.0,0.0,0.0,0.0,0.0,0.0,0.0,0.0,0.0,0.0,0.0,0.0,0.0,0.0,0.0,0.0,0.0,0.0,0.0,0.0,0.0,0.0,0.0,0.0,0.0,0.0,0.0,0.0,0.0,0.0,0.0,0.0,0.0,0.0,0.0,0.0,0.0,0.0,0.0,0.0,0.0,0.0,0.0,0.0,0.0,0.0,0.0,0.0,0.0,0.0,0.0,0.0,0.0,0.0,2.1489,0.0,0.0,0.0,0.0,0.0,0.0,0.0,0.0,0.0,0.0,0.0,0.0,0.0,0.0,0.0,0.0,0.0,0.0,0.0,0.0,0.0,0.0,0.0,0.0,0.0,0.0,0.0,0.0,0.0,0.0,0.0,0.0,0.0,0.0,0.0,0.0,0.0,0.0,0.0,0.0,0.0,0.0,0.0,0.0,0.0,0.0,0.0,0.0,0.0,0.0,0.0,0.0,0.0,0.0,0.0,0.0,0.0,0.0,0.0,0.0,0.0,0.0,0.0,0.0,0.0,0.0,0.0,0.0,0.0,0.0,0.0,0.0,0.0,0.0,0.0,0.0,0.0,0.0,0.0,0.0,0.0,0.0,0.0,0.0,0.0,0.0,0.0,0.0,0.0,0.0,0.0,0.0,0.0,0.0,0.0,0.0,0.0,0.0,0.0,0.0,0.0,0.0,0.0,0.0,0.0,0.0,0.0,0.0,0.0,0.0,2.1276,2.2269,2.0601,2.0562,2.24,0.0,0.0,0.0,0.0,0.0,0.0,0.0,0.0,0.0,0.0,0.0,0.0,0.0,0.0,0.0,0.0,0.0,0.0,0.0,0.0,0.0,0.0,0.0,0.0,0.0,0.0,0.0,0.0,0.0,0.0,0.0,0.0,0.0,0.0,0.0,0.0,0.0,0.0,0.0,0.0,0.0,0.0,0.0,0.0,0.0,0.0,0.0,0.0,0.0,0.0,0.0,0.0,0.0,0.0,0.0,0.0,0.0,0.0,0.0,0.0,0.0,0.0,0.0,0.0,0.0,0.0,0.0,0.0,0.0,0.0,0.0,0.0,0.0,0.0,0.0,0.0,0.0,0.0,0.0,0.0,0.0,0.0,0.0,0.0,0.0,0.0,0.0,0.0,0.0,0.0,0.0,0.0,0.0,0.0,0.0,0.0,0.0,0.0,0.0,0.0,0.0,0.0,0.0,0.0,0.0,0.0,0.0,0.0,0.0,0.0,0.0,0.0,2.1018,2.126,2.3287,0.0,0.0,0.0,0.0,0.0,0.0,0.0,0.0,0.0,0.0,0.0,0.0,0.0,0.0,0.0,0.0,0.0,0.0,0.0,0.0,0.0,0.0,0.0,0.0,0.0,0.0,0.0,0.0,0.0,0.0,0.0,0.0,0.0,0.0,0.0,0.0,0.0,0.0,0.0,0.0,0.0,0.0,0.0,0.0,0.0,0.0,0.0,0.0,0.0,0.0,0.0,0.0,0.0,0.0,0.0,0.0,0.0,0.0,0.0,0.0,0.0,0.0,0.0,0.0,0.0,0.0,0.0,0.0,0.0,0.0,0.0,0.0,0.0,0.0,0.0,0.0,0.0,0.0,0.0,0.0,0.0,0.0,0.0,0.0,0.0,0.0,0.0,0.0,0.0,0.0,0.0,0.0,0.0,0.0,0.0,0.0,0.0,0.0,0.0,0.0,0.0,0.0,0.0,0.0,0.0,0.0,0.0,0.0,0.0,0.0,2.2205,2.2791,2.2893,0.0,2.417,0.0,0.0,0.0,0.0,0.0,0.0,0.0,0.0,0.0,0.0,0.0,0.0,0.0,0.0,0.0,0.0,0.0,0.0,0.0,0.0,0.0,0.0,0.0,0.0,0.0,0.0,0.0,0.0,0.0,0.0,0.0,0.0,0.0,0.0,0.0,0.0,0.0,0.0,0.0,0.0,0.0,0.0,0.0,0.0,0.0,0.0,0.0,0.0,0.0,0.0,0.0,0.0,0.0,0.0,0.0,0.0,0.0,0.0,0.0,0.0,0.0,0.0,0.0,0.0,0.0,0.0,0.0,0.0,0.0,0.0,0.0,0.0,0.0,0.0,0.0,0.0,0.0,0.0,0.0,0.0,0.0,0.0,0.0,0.0,0.0,0.0,0.0,0.0,0.0,0.0,0.0,0.0,0.0,0.0,0.0,0.0,0.0,0.0,0.0,0.0,0.0,0.0,0.0,0.0,0.0,0.0,0.0,0.0,0.0,0.0,2.3822,2.3709,2.4176,2.4538,0.0,0.0,0.0,0.0,0.0,0.0,0.0,0.0,0.0,0.0,0.0,0.0,0.0,0.0,0.0,0.0,0.0,0.0,0.0,0.0,0.0,0.0,0.0,0.0,0.0,0.0,0.0,0.0,0.0,0.0,0.0,0.0,0.0,0.0,0.0,0.0,0.0,0.0,0.0,0.0,0.0,0.0,0.0,0.0,0.0,0.0,0.0,0.0,0.0,0.0,0.0,0.0,0.0,0.0,0.0,0.0,0.0,0.0,0.0,0.0,0.0,0.0,0.0,0.0,0.0,0.0,0.0,0.0,0.0,0.0,0.0,0.0,0.0,0.0,0.0,0.0,0.0,0.0,0.0,0.0,0.0,0.0,0.0,0.0,0.0,0.0,0.0,0.0,0.0,0.0,0.0,0.0,0.0,0.0,0.0,0.0,0.0,0.0,0.0,0.0,0.0,0.0,0.0,0.0,0.0,0.0,0.0,0.0,0.0,0.0,2.4793,2.4895,2.4819,2.5289,2.5578,2.5602,0.0,0.0,0.0,0.0,0.0,0.0,0.0,0.0,0.0,0.0,0.0,0.0,0.0,0.0,0.0,0.0,0.0,0.0,0.0,0.0,0.0,0.0,0.0,0.0,0.0,0.0,0.0,0.0,0.0,0.0,0.0,0.0,0.0,0.0,0.0,0.0,0.0,0.0,0.0,0.0,0.0,0.0,0.0,0.0,0.0,0.0,0.0,0.0,0.0,0.0,0.0,0.0,0.0,0.0,0.0,0.0,0.0,0.0,0.0,0.0,0.0,0.0,0.0,0.0,0.0,0.0,0.0,0.0,0.0,0.0,0.0,0.0,0.0,0.0,0.0,0.0,0.0,0.0,0.0,0.0,0.0,0.0,0.0,0.0,0.0,0.0,0.0,0.0,0.0,0.0,0.0,0.0,0.0,0.0,0.0,0.0,0.0,0.0,0.0,0.0,0.0,0.0,0.0,0.0,0.0,0.0,0.0,0.0,2.5076,2.4775,2.4998,2.59,2.6231,2.6472,0.0,0.0,0.0,0.0,0.0,0.0,0.0,0.0,0.0,0.0,0.0,0.0,0.0,0.0,0.0,0.0,0.0,0.0,0.0,0.0,0.0,0.0,0.0,0.0,0.0,0.0,0.0,0.0,0.0,0.0,0.0,0.0,0.0,0.0,0.0,0.0,0.0,0.0,0.0,0.0,0.0,0.0,0.0,0.0,0.0,0.0,0.0,0.0,0.0,0.0,0.0,0.0,0.0,0.0,0.0,0.0,0.0,0.0,0.0,0.0,0.0,0.0,0.0,0.0,0.0,0.0,0.0,0.0,0.0,0.0,0.0,0.0,0.0,0.0,0.0,0.0,0.0,0.0,0.0,0.0,0.0,0.0,0.0,0.0,0.0,0.0,0.0,0.0,0.0,0.0,0.0,0.0,0.0,0.0,0.0,0.0,0.0,0.0,0.0,0.0,0.0,0.0,0.0,0.0,0.0,0.0,0.0,0.0,0.0,2.5859,2.6029,2.6542,2.7469,2.6986,2.6712,0.0,0.0,0.0,0.0,0.0,0.0,0.0,0.0,0.0,0.0,0.0,0.0,0.0,0.0,0.0,0.0,0.0,0.0,0.0,0.0,0.0,0.0,0.0,0.0,0.0,0.0,0.0,0.0,0.0,0.0,0.0,0.0,0.0,0.0,0.0,0.0,0.0,0.0,0.0,0.0,0.0,0.0,0.0,0.0,0.0,0.0,0.0,0.0,0.0,0.0,0.0,0.0,0.0,0.0,0.0,0.0,0.0,0.0,0.0,0.0,0.0,0.0,0.0,0.0,0.0,0.0,0.0,0.0,0.0,0.0,0.0,0.0,0.0,0.0,0.0,0.0,0.0,0.0,0.0,0.0,0.0,0.0,0.0,0.0,0.0,0.0,0.0,0.0,0.0,0.0,0.0,0.0,0.0,0.0,0.0,0.0,0.0,0.0,0.0,0.0,0.0,0.0,0.0,0.0,0.0,0.0,0.0,0.0,0.0,2.6467,0.0,2.7211,2.8114,2.7571,2.7179,0.0,0.0,0.0,0.0,0.0,0.0,0.0,0.0,0.0,0.0,0.0,0.0,0.0,0.0,0.0,0.0,0.0,0.0,0.0,0.0,0.0,0.0,0.0,0.0,0.0,0.0,0.0,0.0,0.0,0.0,0.0,0.0,0.0,0.0,0.0,0.0,0.0,0.0,0.0,0.0,0.0,0.0,0.0,0.0,0.0,0.0,0.0,0.0,0.0,0.0,0.0,0.0,0.0,0.0,0.0,0.0,0.0,0.0,0.0,0.0,0.0,0.0,0.0,0.0,0.0,0.0,0.0,0.0,0.0,0.0,0.0,0.0,0.0,0.0,0.0,0.0,0.0,0.0,0.0,0.0,0.0,0.0,0.0,0.0,0.0,0.0,0.0,0.0,0.0,0.0,0.0,0.0,0.0,0.0,0.0,0.0,0.0,0.0,0.0,0.0,0.0,0.0,0.0,0.0,0.0,0.0,0.0,0.0,2.5659,2.6834,2.6541,2.6932,2.7821,2.801,2.783,0.0,0.0,0.0,0.0,0.0,0.0,0.0,0.0,0.0,0.0,0.0,0.0,0.0,0.0,0.0,0.0,0.0,0.0,0.0,0.0,0.0,0.0,0.0,0.0,0.0,0.0,0.0,0.0,0.0,0.0,0.0,0.0,0.0,0.0,0.0,0.0,0.0,0.0,0.0,0.0,0.0,0.0,0.0,0.0,0.0,0.0,0.0,0.0,0.0,0.0,0.0,0.0,0.0,0.0,0.0,0.0,0.0,0.0,0.0,0.0,0.0,0.0,0.0,0.0,0.0,0.0,0.0,0.0,0.0,0.0,0.0,0.0,0.0,0.0,0.0,0.0,0.0,0.0,0.0,0.0,0.0,0.0,0.0,0.0,0.0,0.0,0.0,0.0,0.0,0.0,0.0,0.0,0.0,0.0,0.0,0.0,0.0,0.0,0.0,0.0,0.0,0.0,0.0,0.0,0.0,0.0,0.0,0.0,0.0,2.8449,2.8329,2.9164,3.0975,2.904,2.8479,0.0,0.0,0.0,0.0,0.0,0.0,0.0,0.0,0.0,0.0,0.0,0.0,0.0,0.0,0.0,0.0,0.0,0.0,0.0,0.0,0.0,0.0,0.0,0.0,0.0,0.0,0.0,0.0,0.0,0.0,0.0,0.0,0.0,0.0,0.0,0.0,0.0,0.0,0.0,0.0,0.0,0.0,0.0,0.0,0.0,0.0,0.0,0.0,0.0,0.0,0.0,0.0,0.0,0.0,0.0,0.0,0.0,0.0,0.0,0.0,0.0,0.0,0.0,0.0,0.0,0.0,0.0,0.0,0.0,0.0,0.0,0.0,0.0,0.0,0.0,0.0,0.0,0.0,0.0,0.0,0.0,0.0,0.0,0.0,0.0,0.0,0.0,0.0,0.0,0.0,0.0,0.0,0.0,0.0,0.0,0.0,0.0,0.0,0.0,0.0,0.0,0.0,0.0,0.0,0.0,0.0,0.0,0.0,0.0,3.1127,3.0989,3.1613,3.3234,3.1413,3.0456,3.0647,0.0,0.0,0.0,0.0,0.0,0.0,0.0,0.0,0.0,0.0,0.0,0.0,0.0,0.0,0.0,0.0,0.0,0.0,0.0,0.0,0.0,0.0,0.0,0.0,0.0,0.0,0.0,0.0,0.0,0.0,0.0,0.0,0.0,0.0,0.0,0.0,0.0,0.0,0.0,0.0,0.0,0.0,0.0,0.0,0.0,0.0,0.0,0.0,0.0,0.0,0.0,0.0,0.0,0.0,0.0,0.0,0.0,0.0,0.0,0.0,0.0,0.0,0.0,0.0,0.0,0.0,0.0,0.0,0.0,0.0,0.0,0.0,0.0,0.0,0.0,0.0,0.0,0.0,0.0,0.0,0.0,0.0,0.0,0.0,0.0,0.0,0.0,0.0,0.0,0.0,0.0,0.0,0.0,0.0,0.0,0.0,0.0,0.0,0.0,0.0,0.0,0.0,0.0,0.0,0.0,0.0,0.0,0.0,3.4835,3.4574,3.4623,3.4908,3.4898,3.3624,0.0,0.0,0.0,0.0,0.0,0.0,0.0,0.0,0.0,0.0,0.0,0.0,0.0,0.0,0.0,0.0,0.0,0.0,0.0,0.0,0.0,0.0,0.0,0.0,0.0,0.0,0.0,0.0,0.0,0.0,0.0,0.0,0.0,0.0,0.0,0.0,0.0,0.0,0.0,0.0,0.0,0.0,0.0,0.0,0.0,0.0,0.0,0.0,0.0,0.0,0.0,0.0,0.0,0.0,0.0,0.0,0.0,0.0,0.0,0.0,0.0,0.0,0.0,0.0,0.0,0.0,0.0,0.0,0.0,0.0,0.0,0.0,0.0,0.0,0.0,0.0,0.0,0.0,0.0,0.0,0.0,0.0,0.0,0.0,0.0,0.0,0.0,0.0,0.0,0.0,0.0,0.0,0.0,0.0,0.0,0.0,0.0,0.0,0.0,0.0,0.0,0.0,0.0,0.0,0.0,0.0,0.0,0.0,0.0,3.8882,4.2364,4.3324,4.1465,3.8327,3.6384,0.0,0.0,0.0,0.0,0.0,0.0,0.0,0.0,0.0,0.0,0.0,0.0,0.0,0.0,0.0,0.0,0.0,0.0,0.0,0.0,0.0,0.0,0.0,0.0,0.0,0.0,0.0,0.0,0.0,0.0,0.0,0.0,0.0,0.0,0.0,0.0,0.0,0.0,0.0,0.0,0.0,0.0,0.0,0.0,0.0,0.0,0.0,0.0,0.0,0.0,0.0,0.0,0.0,0.0,0.0,0.0,0.0,0.0,0.0,0.0,0.0,0.0,0.0,0.0,0.0,0.0,0.0,0.0,0.0,0.0,0.0,0.0,0.0,0.0,0.0,0.0,0.0,0.0,0.0,0.0,0.0,0.0,0.0,0.0,0.0,0.0,0.0,0.0,0.0,0.0,0.0,0.0,0.0,0.0,0.0,0.0,0.0,0.0,0.0,0.0,0.0,0.0,0.0,0.0,0.0,0.0,0.0,0.0,3.8889,4.0965,4.6772,4.9512,4.8944,4.406,4.0462,0.0,0.0,0.0,0.0,0.0,0.0,0.0,0.0,0.0,0.0,0.0,0.0,0.0,0.0,0.0,0.0,0.0,0.0,0.0,0.0,0.0,0.0,0.0,0.0,0.0,0.0,0.0,0.0,0.0,0.0,0.0,0.0,0.0,0.0,0.0,0.0,0.0,0.0,0.0,0.0,0.0,0.0,0.0,0.0,0.0,0.0,0.0,0.0,0.0,0.0,0.0,0.0,0.0,0.0,0.0,0.0,0.0,0.0,0.0,0.0,0.0,0.0,0.0,0.0,0.0,0.0,0.0,0.0,0.0,0.0,0.0,0.0,0.0,0.0,0.0,0.0,0.0,0.0,0.0,0.0,0.0,0.0,0.0,0.0,0.0,0.0,0.0,0.0,0.0,0.0,0.0,0.0,0.0,0.0,0.0,0.0,0.0,0.0,0.0,0.0,0.0,0.0,0.0,0.0,0.0,0.0,0.0,0.0,4.0755,4.2214,4.9012,5.3602,5.5589,5.0254,4.4875,0.0,0.0,0.0,0.0,0.0,0.0,0.0,0.0,0.0,0.0,0.0,0.0,0.0,0.0,0.0,0.0,0.0,0.0,0.0,0.0,0.0,0.0,0.0,0.0,0.0,0.0,0.0,0.0,0.0,0.0,0.0,0.0,0.0,0.0,0.0,0.0,0.0,0.0,0.0,0.0,0.0,0.0,0.0,0.0,0.0,0.0,0.0,0.0,0.0,0.0,0.0,0.0,0.0,0.0,0.0,0.0,0.0,0.0,0.0,0.0,0.0,0.0,0.0,0.0,0.0,0.0,0.0,0.0,0.0,0.0,0.0,0.0,0.0,0.0,0.0,0.0,0.0,0.0,0.0,0.0,0.0,0.0,0.0,0.0,0.0,0.0,0.0,0.0,0.0,0.0,0.0,0.0,0.0,0.0,0.0,0.0,0.0,0.0,0.0,0.0,0.0,0.0,0.0,0.0,0.0,0.0,0.0,0.0,4.2222,4.4578,5.1333,5.5739,5.7254,5.0955,4.6392,0.0,0.0,0.0,0.0,0.0,0.0,0.0,0.0,0.0,0.0,0.0,0.0,0.0,0.0,0.0,0.0,0.0,0.0,0.0,0.0,0.0,0.0,0.0,0.0,0.0,0.0,0.0,0.0,0.0,0.0,0.0,0.0,0.0,0.0,0.0,0.0,0.0,0.0,0.0,0.0,0.0,0.0,0.0,0.0,0.0,0.0,0.0,0.0,3.1268,0.0,0.0,0.0,0.0,0.0,0.0,0.0,0.0,0.0,0.0,0.0,0.0,0.0,0.0,0.0,0.0,0.0,0.0,0.0,0.0,0.0,0.0,0.0,0.0,0.0,0.0,0.0,0.0,0.0,0.0,0.0,0.0,0.0,0.0,0.0,0.0,0.0,0.0,0.0,0.0,0.0,0.0,0.0,0.0,0.0,0.0,0.0,0.0,0.0,0.0,0.0,0.0,0.0,0.0,0.0,0.0,0.0,0.0,0.0,4.3578,4.6936,5.2702,5.6629,5.7962,5.352,4.9696,0.0,0.0,0.0,0.0,0.0,0.0,0.0,0.0,0.0,0.0,0.0,0.0,0.0,0.0,0.0,0.0,0.0,0.0,0.0,0.0,0.0,0.0,0.0,0.0,0.0,0.0,0.0,0.0,0.0,0.0,0.0,0.0,0.0,0.0,0.0,0.0,0.0,0.0,0.0,0.0,0.0,0.0,0.0,0.0,0.0,0.0,0.0,0.0,0.0,0.0,0.0,0.0,0.0,0.0,0.0,0.0,0.0,0.0,0.0,0.0,0.0,0.0,0.0,0.0,0.0,0.0,0.0,0.0,0.0,0.0,0.0,0.0,0.0,0.0,0.0,0.0,0.0,0.0,0.0,0.0,0.0,0.0,0.0,0.0,0.0,0.0,0.0,0.0,0.0,0.0,0.0,0.0,0.0,0.0,0.0,0.0,0.0,0.0,0.0,0.0,0.0,0.0,0.0,0.0,0.0,0.0,0.0,4.0858,4.477,4.9098,5.3763,5.7075,5.8739,5.6404,5.3184,4.9299,0.0,0.0,0.0,0.0,0.0,0.0,0.0,0.0,0.0,0.0,0.0,0.0,0.0,0.0,0.0,0.0,0.0,0.0,0.0,0.0,0.0,0.0,0.0,0.0,0.0,0.0,0.0,0.0,0.0,0.0,0.0,0.0,0.0,0.0,0.0,0.0,0.0,0.0,2.8625,2.9971,0.0,0.0,0.0,0.0,0.0,0.0,0.0,0.0,3.2578,0.0,0.0,0.0,0.0,0.0,0.0,0.0,0.0,0.0,0.0,0.0,0.0,0.0,0.0,0.0,0.0,0.0,0.0,0.0,0.0,0.0,0.0,0.0,0.0,0.0,0.0,0.0,0.0,0.0,0.0,0.0,0.0,0.0,0.0,0.0,0.0,0.0,0.0,0.0,0.0,0.0,0.0,0.0,0.0,0.0,0.0,0.0,0.0,0.0,0.0,0.0,0.0,0.0,0.0,0.0,0.0,3.8871,4.1896,4.58,5.0723,5.514,5.7962,5.8739,5.7683,5.5066,5.0721,0.0,0.0,0.0,0.0,0.0,0.0,0.0,0.0,0.0,0.0,0.0,0.0,0.0,0.0,0.0,0.0,0.0,0.0,0.0,0.0,0.0,0.0,0.0,0.0,0.0,0.0,0.0,0.0,0.0,0.0,0.0,0.0,0.0,0.0,0.0,0.0,0.0,0.0,0.0,3.2109,3.3288,0.0,0.0,0.0,0.0,0.0,0.0,0.0,0.0,3.2998,0.0,0.0,0.0,0.0,0.0,0.0,0.0,0.0,0.0,0.0,0.0,0.0,0.0,0.0,0.0,0.0,0.0,0.0,0.0,0.0,0.0,0.0,0.0,0.0,0.0,0.0,0.0,0.0,0.0,0.0,0.0,0.0,0.0,0.0,0.0,0.0,0.0,0.0,0.0,0.0,0.0,0.0,0.0,0.0,0.0,0.0,0.0,0.0,0.0,0.0,0.0,0.0,0.0,0.0,0.0,4.0337,4.3878,4.7782,5.2097,5.5877,5.8085,5.8739,5.643,5.3597,0.0,0.0,0.0,0.0,0.0,0.0,0.0,0.0,0.0,0.0,0.0,0.0,0.0,0.0,0.0,0.0,0.0,0.0,0.0,0.0,0.0,0.0,0.0,0.0,0.0,0.0,0.0,0.0,0.0,0.0,0.0,0.0,0.0,0.0,0.0,0.0,0.0,0.0,0.0,0.0,3.3939,3.5523,3.629,0.0,0.0,0.0,0.0,0.0,0.0,3.5509,3.5007,0.0,0.0,0.0,0.0,0.0,0.0,0.0,0.0,0.0,0.0,0.0,0.0,0.0,0.0,0.0,0.0,0.0,0.0,0.0,0.0,0.0,0.0,0.0,0.0,0.0,0.0,0.0,0.0,0.0,0.0,0.0,0.0,0.0,0.0,0.0,0.0,0.0,0.0,0.0,0.0,0.0,0.0,0.0,0.0,0.0,0.0,0.0,0.0,0.0,0.0,0.0,0.0,0.0,0.0,0.0,4.1175,4.535,4.9314,5.2972,5.6152,5.8085,5.8708,5.5301,5.2302,0.0,0.0,0.0,0.0,0.0,0.0,0.0,0.0,0.0,0.0,0.0,0.0,0.0,0.0,0.0,0.0,0.0,0.0,0.0,0.0,0.0,0.0,0.0,0.0,0.0,0.0,0.0,0.0,0.0,0.0,0.0,0.0,0.0,0.0,0.0,0.0,0.0,0.0,0.0,0.0,0.0,3.7776,3.803,3.9082,0.0,0.0,0.0,0.0,3.7091,3.8246,0.0,0.0,0.0,0.0,0.0,0.0,0.0,0.0,0.0,0.0,0.0,0.0,0.0,0.0,0.0,0.0,0.0,0.0,0.0,0.0,0.0,0.0,0.0,0.0,0.0,0.0,0.0,0.0,0.0,0.0,0.0,0.0,0.0,0.0,0.0,0.0,0.0,0.0,0.0,0.0,0.0,0.0,0.0,0.0,0.0,0.0,0.0,0.0,0.0,0.0,0.0,0.0,0.0,0.0,0.0,0.0,4.0516,4.5139,4.9074,5.2312,5.5908,5.8085,5.877,5.6157,5.3414,0.0,0.0,0.0,0.0,0.0,0.0,0.0,0.0,0.0,0.0,0.0,0.0,0.0,0.0,0.0,0.0,0.0,0.0,0.0,0.0,0.0,0.0,0.0,0.0,0.0,0.0,0.0,0.0,0.0,0.0,0.0,0.0,0.0,0.0,0.0,0.0,0.0,0.0,0.0,0.0,0.0,3.9829,4.0548,4.1045,4.0924,0.0,0.0,4.0,4.0828,4.3749,0.0,0.0,0.0,0.0,0.0,0.0,0.0,0.0,0.0,0.0,0.0,0.0,0.0,0.0,0.0,0.0,0.0,0.0,0.0,0.0,0.0,0.0,0.0,0.0,0.0,0.0,0.0,0.0,0.0,0.0,0.0,0.0,0.0,0.0,0.0,0.0,0.0,0.0,0.0,0.0,0.0,0.0,0.0,0.0,0.0,0.0,0.0,0.0,0.0,0.0,0.0,0.0,0.0,0.0,0.0,3.9033,4.1175,4.6316,5.0094,5.2157,5.5114,5.7479,5.9166,5.4356,5.1471,0.0,0.0,0.0,0.0,0.0,0.0,0.0,0.0,0.0,0.0,0.0,0.0,0.0,0.0,0.0,0.0,0.0,0.0,0.0,0.0,0.0,0.0,0.0,0.0,0.0,0.0,0.0,0.0,0.0,0.0,0.0,0.0,0.0,0.0,0.0,0.0,0.0,0.0,0.0,0.0,0.0,0.0,4.0741,4.2794,0.0,0.0,0.0,4.369,4.4168,0.0,0.0,0.0,0.0,0.0,0.0,0.0,0.0,0.0,0.0,0.0,0.0,0.0,0.0,0.0,0.0,0.0,0.0,0.0,0.0,0.0,0.0,0.0,0.0,0.0,0.0,0.0,0.0,0.0,0.0,0.0,0.0,0.0,0.0,0.0,0.0,0.0,0.0,0.0,0.0,0.0,0.0,0.0,0.0,0.0,0.0,0.0,0.0,0.0,0.0,0.0,0.0,0.0,0.0,0.0,0.0,0.0,4.14,4.6886,5.0543,5.2107,5.4443,5.6957,5.9499,5.3619,0.0,0.0,0.0,0.0,0.0,0.0,0.0,0.0,0.0,0.0,0.0,0.0,0.0,0.0,0.0,0.0,0.0,0.0,0.0,0.0,0.0,0.0,0.0,0.0,0.0,0.0,0.0,2.8179,0.0,0.0,0.0,0.0,0.0,0.0,0.0,0.0,0.0,0.0,0.0,0.0,0.0,0.0,4.2682,4.134,4.4297,4.648,0.0,0.0,4.7141,4.7582,4.8933,4.8641,0.0,0.0,0.0,0.0,0.0,0.0,0.0,0.0,0.0,0.0,0.0,0.0,0.0,0.0,0.0,0.0,0.0,0.0,0.0,0.0,0.0,0.0,0.0,0.0,0.0,0.0,0.0,0.0,0.0,0.0,0.0,0.0,0.0,0.0,0.0,0.0,0.0,0.0,0.0,0.0,0.0,0.0,0.0,0.0,0.0,0.0,0.0,0.0,0.0,0.0,0.0,0.0,0.0,0.0,0.0,4.0768,4.5777,4.9644,5.2002,5.4387,5.7053,5.9787,5.5834,5.3486,0.0,0.0,0.0,0.0,0.0,0.0,0.0,0.0,0.0,0.0,0.0,0.0,0.0,0.0,0.0,0.0,0.0,0.0,0.0,0.0,0.0,0.0,0.0,0.0,0.0,0.0,0.0,0.0,0.0,0.0,0.0,0.0,0.0,0.0,0.0,0.0,0.0,0.0,0.0,0.0,0.0,4.3866,4.3637,4.5586,4.7812,0.0,0.0,4.9649,5.1282,5.5913,5.6676,4.8417,0.0,0.0,0.0,0.0,0.0,0.0,0.0,0.0,0.0,0.0,0.0,0.0,0.0,0.0,0.0,0.0,0.0,0.0,0.0,0.0,0.0,0.0,0.0,0.0,0.0,0.0,0.0,0.0,0.0,0.0,0.0,0.0,0.0,0.0,0.0,0.0,0.0,0.0,0.0,0.0,0.0,0.0,0.0,0.0,0.0,0.0,0.0,0.0,0.0,0.0,0.0,0.0,0.0,4.0262,4.2576,4.6371,4.9704,5.2687,5.4293,5.6308,5.903,5.6455,5.4338,0.0,0.0,0.0,0.0,0.0,0.0,0.0,0.0,0.0,0.0,0.0,0.0,0.0,0.0,0.0,0.0,0.0,0.0,0.0,0.0,0.0,0.0,0.0,0.0,0.0,0.0,0.0,0.0,3.0926,3.1319,3.2145,0.0,0.0,0.0,0.0,0.0,0.0,0.0,0.0,0.0,0.0,4.3728,4.473,4.7099,0.0,0.0,5.2534,5.3375,5.3721,5.4927,5.426,4.9323,4.7768,0.0,0.0,0.0,0.0,0.0,0.0,0.0,0.0,0.0,0.0,0.0,0.0,0.0,0.0,0.0,0.0,0.0,0.0,0.0,0.0,0.0,0.0,0.0,0.0,0.0,0.0,0.0,0.0,0.0,0.0,0.0,0.0,0.0,0.0,0.0,0.0,0.0,0.0,0.0,0.0,0.0,0.0,0.0,0.0,0.0,0.0,0.0,0.0,0.0,0.0,0.0,0.0,4.1031,4.3879,4.6749,4.9855,5.3104,5.4296,5.6217,5.8875,5.7312,5.5577,0.0,0.0,0.0,0.0,0.0,0.0,0.0,0.0,0.0,0.0,0.0,0.0,0.0,0.0,0.0,0.0,0.0,0.0,0.0,0.0,0.0,0.0,0.0,0.0,0.0,0.0,0.0,0.0,3.253,3.2826,3.302,0.0,0.0,0.0,0.0,0.0,0.0,0.0,0.0,0.0,0.0,4.3983,4.5505,4.7734,4.9957,5.1989,5.3418,5.4454,5.4848,5.4514,5.3169,4.9826,0.0,0.0,0.0,0.0,0.0,0.0,0.0,0.0,0.0,0.0,0.0,0.0,0.0,0.0,0.0,0.0,0.0,0.0,0.0,0.0,0.0,0.0,0.0,0.0,0.0,0.0,0.0,0.0,0.0,0.0,3.0381,0.0,0.0,0.0,0.0,0.0,0.0,0.0,0.0,0.0,0.0,0.0,0.0,0.0,0.0,0.0,0.0,0.0,0.0,0.0,0.0,0.0,0.0,4.0607,4.3879,4.6689,4.9634,5.2976,5.4637,5.6994,6.0012,5.8701,5.7441,5.6596,0.0,0.0,0.0,0.0,0.0,0.0,0.0,0.0,0.0,0.0,0.0,0.0,0.0,0.0,0.0,0.0,0.0,0.0,0.0,0.0,0.0,0.0,0.0,0.0,0.0,0.0,3.1924,3.2905,3.3488,0.0,0.0,0.0,0.0,0.0,0.0,0.0,0.0,0.0,0.0,4.2206,4.5092,4.5789,4.7145,4.9212,5.2153,5.1677,5.1778,5.4522,5.593,5.5148,0.0,0.0,0.0,0.0,0.0,0.0,0.0,0.0,0.0,0.0,0.0,0.0,0.0,0.0,0.0,0.0,0.0,0.0,0.0,0.0,0.0,0.0,0.0,0.0,0.0,0.0,0.0,3.3483,3.3329,0.0,0.0,0.0,0.0,0.0,0.0,0.0,0.0,0.0,0.0,0.0,4.0532,4.1323,0.0,0.0,0.0,0.0,0.0,0.0,0.0,0.0,0.0,0.0,0.0,0.0,4.2322,4.5183,4.7988,5.0845,5.3489,5.4913,5.656,5.8373,5.8427,5.7364,5.528,0.0,0.0,0.0,0.0,0.0,0.0,0.0,0.0,0.0,0.0,0.0,0.0,0.0,0.0,0.0,0.0,0.0,0.0,0.0,0.0,0.0,0.0,0.0,0.0,0.0,3.3898,0.0,0.0,0.0,0.0,0.0,0.0,0.0,0.0,0.0,0.0,0.0,3.9299,4.0529,4.3397,4.5773,4.6873,4.8924,5.1149,0.0,0.0,0.0,0.0,0.0,0.0,0.0,0.0,0.0,0.0,0.0,0.0,0.0,0.0,4.8889,4.5545,4.4683,4.4483,4.4327,0.0,0.0,0.0,0.0,0.0,0.0,0.0,0.0,0.0,0.0,0.0,0.0,0.0,0.0,3.6388,0.0,3.6007,0.0,0.0,0.0,0.0,0.0,0.0,0.0,0.0,4.1997,4.3706,4.4684,4.5636,4.6421,0.0,4.6115,4.3974,0.0,0.0,0.0,0.0,0.0,0.0,0.0,0.0,4.3704,4.5868,4.9174,5.1876,5.4107,5.544,5.6778,5.8154,5.8796,5.8323,5.6662,5.3437,5.1054,0.0,0.0,0.0,0.0,0.0,0.0,0.0,0.0,0.0,0.0,0.0,0.0,0.0,0.0,0.0,0.0,0.0,0.0,0.0,0.0,0.0,0.0,0.0,3.5938,0.0,0.0,0.0,0.0,0.0,0.0,0.0,0.0,0.0,3.8965,4.0004,4.1471,4.3067,4.4997,4.6724,4.798,0.0,0.0,0.0,0.0,0.0,0.0,0.0,5.2537,5.1796,5.2303,5.2875,5.3011,5.3551,5.3991,5.3788,0.0,0.0,4.8825,4.7861,4.7467,4.721,4.6913,4.6945,4.7655,4.79,4.7835,0.0,0.0,0.0,0.0,0.0,0.0,0.0,0.0,3.8843,3.9364,0.0,3.9159,0.0,0.0,0.0,0.0,0.0,4.0227,0.0,0.0,4.6899,4.9159,4.9396,5.0641,5.1359,5.147,5.0739,5.009,4.9227,4.5016,0.0,0.0,0.0,0.0,0.0,0.0,4.4701,4.6067,5.0049,5.2966,5.47,5.6123,5.7772,5.9468,5.9863,6.0206,6.0501,5.7965,5.5904,5.4138,5.089,0.0,0.0,0.0,0.0,0.0,0.0,0.0,0.0,0.0,0.0,0.0,0.0,0.0,0.0,0.0,0.0,0.0,0.0,0.0,0.0,3.7232,0.0,0.0,0.0,0.0,0.0,0.0,0.0,0.0,0.0,0.0,4.0575,4.1688,4.3453,4.573,0.0,0.0,0.0,0.0,5.0602,5.1554,5.1606,5.2089,5.332,5.4955,5.5649,5.4309,0.0,0.0,5.7002,5.575,5.4835,5.4527,5.4801,5.4532,5.3856,5.2168,5.1128,5.1564,5.1027,5.0794,5.066,5.0657,5.0525,4.8196,0.0,0.0,0.0,0.0,4.1716,4.2927,4.4329,4.5363,4.5496,4.4915,4.3273,0.0,0.0,0.0,0.0,0.0,0.0,4.3975,4.643,4.9173,5.134,5.3059,5.4151,5.4645,5.4525,5.4952,5.4843,5.4161,5.3287,4.9849,4.4063,0.0,0.0,0.0,0.0,4.7114,4.8594,5.2691,5.4902,5.4946,5.6837,5.836,5.9677,6.0121,6.0291,6.0239,5.9067,5.7997,5.6963,5.4213,0.0,0.0,0.0,0.0,0.0,0.0,0.0,0.0,0.0,0.0,0.0,0.0,0.0,0.0,0.0,0.0,0.0,0.0,0.0,3.9325,4.091,4.1362,0.0,0.0,0.0,0.0,0.0,0.0,0.0,0.0,0.0,4.6192,4.6445,4.6754,0.0,0.0,5.0326,5.0671,5.1769,5.2885,5.3396,5.3898,0.0,0.0,5.5488,5.5794,5.6359,5.8018,5.9287,5.9201,5.9268,5.9201,5.8518,5.8524,5.8457,5.8118,5.5223,5.272,5.1717,5.1671,5.2187,5.3105,5.3742,5.4229,5.4238,4.886,4.598,4.5284,4.6167,4.6404,4.7495,4.9055,4.9416,4.9648,4.9519,4.7732,4.6207,4.4882,4.3422,0.0,0.0,0.0,4.7202,5.0445,5.2012,5.4178,5.6631,5.7905,5.8325,5.8345,5.8969,5.897,5.829,5.7897,5.5275,5.056,0.0,0.0,4.6302,4.9022,5.0634,5.1089,5.4853,5.6715,5.6388,5.8441,5.9935,6.0968,6.1508,6.1849,6.1808,6.1402,6.082,5.9964,5.77,5.4797,0.0,0.0,0.0,0.0,0.0,0.0,0.0,0.0,0.0,0.0,0.0,3.798,3.7494,0.0,0.0,0.0,4.11,4.1609,4.2556,4.3515,0.0,0.0,0.0,0.0,0.0,0.0,0.0,4.3892,4.596,4.8002,4.956,5.0023,5.0281,5.0298,5.1475,5.2373,5.2778,0.0,5.4582,5.5369,5.5771,5.6304,5.721,5.7506,5.8025,5.9203,6.0189,6.0873,6.1028,6.1197,6.1129,6.0723,6.0588,6.0486,6.0148,5.816,5.6204,5.5098,5.5114,5.5709,5.6492,5.731,5.7963,5.9386,5.7566,5.3261,5.1899,5.247,5.0793,5.0995,5.2573,5.2031,5.2303,5.3209,5.1965,5.1191,5.0727,4.9061,0.0,4.9013,4.9061,5.09,5.4207,5.5132,5.7066,5.9987,6.1342,6.2061,6.2231,6.2577,6.2448,6.1776,6.0135,5.8766,5.7823,5.5771,5.295,4.9758,5.3084,5.4476,5.3502,5.6763,5.8452,5.8733,6.0544,6.1994,6.2892,6.3584,6.4035,6.4365,6.4266,6.3776,6.2865,6.1031,5.8665,5.5883,0.0,0.0,0.0,0.0,0.0,0.0,0.0,0.0,0.0,0.0,0.0,0.0,0.0,0.0,0.0,4.4482,0.0,4.6043,4.5512,0.0,0.0,0.0,4.5884,4.6072,4.7204,4.7834,4.7268,0.0,0.0,5.1159,5.2674,5.382,5.4104,5.4066,5.43,5.518,5.528,5.5783,5.7189,5.7499,5.8035,5.9342,6.0303,6.1099,6.1897,6.2415,6.2279,6.2144,6.1738,6.1332,6.1264,6.1298,6.1129,6.0419,6.0791,6.1129,6.0173,5.9971,6.0013,6.0005,6.0579,6.1153,6.4768,6.2763,6.1559,5.8782,5.5358,5.5631,5.6309,5.7156,5.6558,5.6119,5.5602,5.3651,5.2337,5.1598,5.1196,5.1262,5.1762,5.1791,5.2864,5.4808,5.725,5.8893,6.0119,6.2353,6.3298,6.3066,6.3981,6.4153,6.345,6.3698,6.2455,6.0013,6.0002,5.7907,5.3884,5.4858,5.5928,5.6694,5.8899,6.064,6.1775,6.1731,6.2167,6.3153,6.3002,6.3364,6.4332,6.3485,6.3111,6.3348,6.2029,6.0068,5.7437,5.2976,0.0,0.0,0.0,0.0,0.0,0.0,0.0,0.0,0.0,3.9564,3.889,0.0,4.3228,0.0,4.6858,4.8425,4.8687,4.8553,0.0,0.0,4.7855,4.7758,4.7758,4.8233,4.863,4.8827,5.0559,5.223,5.338,5.5004,5.622,5.6824,5.6309,5.6096,5.6727,5.6902,5.7312,5.8186,5.8942,5.976,6.0671,6.1559,6.2066,6.2347,6.2381,6.2212,6.167,6.1434,6.1298,6.1298,6.1298,6.1434,6.1704,6.2009,6.2042,6.1806,6.0926,6.0283,6.0892,6.1603,6.2313,6.732,6.5595,6.5429,6.329,5.9977,5.9742,5.9919,6.0333,6.008,5.9599,5.9051,5.7055,5.5737,5.4996,5.4216,5.4008,5.441,5.4673,5.5514,5.7099,5.9977,6.1896,6.2748,6.4984,6.5858,6.5547,6.6296,6.5966,6.4724,6.5497,6.4435,6.1492,6.2245,6.1065,5.8025,5.7959,5.8507,5.9433,6.0754,6.216,6.3462,6.3252,6.3007,6.2775,6.2273,6.2009,6.2115,6.0837,6.0655,6.1632,6.0298,5.8786,5.7257,5.3584,5.0781,0.0,0.0,0.0,0.0,0.0,0.0,0.0,0.0,0.0,0.0,0.0,4.5808,4.7044,4.8888,5.0025,5.0057,5.0123,5.0089,5.0087,5.0087,5.0221,5.0557,5.076,5.0995,5.1229,5.2503,5.378,5.4833,5.5984,5.707,5.778,5.7471,5.7223,5.7487,5.7662,5.8005,5.8747,5.9565,6.052,6.1603,6.1839,6.1907,6.1907,6.1907,6.1772,6.1366,6.1298,6.14,6.167,6.1264,6.1028,6.1738,6.1907,6.1907,6.1839,6.1501,6.1332,6.1704,6.2381,6.3125,6.8504,6.7117,6.7218,6.6373,6.4918,6.3472,6.2763,6.2685,6.2584,6.2482,6.2313,6.0806,5.9895,5.9295,5.7614,5.6936,5.7116,5.7573,5.8428,5.9801,6.2714,6.4689,6.5813,6.7422,6.8093,6.7992,6.8236,6.7348,6.5396,6.6356,6.5324,6.2516,6.3057,6.2685,6.1366,6.1109,6.1132,6.1547,6.2299,6.3315,6.4507,6.4614,6.3948,6.2514,6.1733,6.0717,5.9385,5.7942,5.793,5.9154,5.782,5.682,5.6572,5.3679,5.163,0.0,4.7291,0.0,0.0,0.0,0.0,0.0,0.0,0.0,0.0,4.7233,4.8692,5.0113,5.0591,5.0927,5.1028,5.1028,5.1396,5.2303,5.2337,5.264,5.3551,5.3551,5.3551,5.3619,5.4296,5.504,5.575,5.6494,5.7205,5.778,5.7848,5.7814,5.7881,5.7881,5.8152,5.8896,5.9742,6.0825,6.1941,6.1772,6.1366,6.1332,6.1366,6.1231,6.096,6.1028,6.1298,6.1637,6.0892,6.0452,6.1163,6.14,6.1501,6.1569,6.1941,6.2279,6.2381,6.2922,6.37,7.0026,6.8741,6.9316,6.8673,6.7252,6.6981,6.5831,6.414,6.3565,6.2956,6.2381,6.2076,6.1873,6.167,6.0782,6.03,6.0146,6.028,6.0326,6.0571,6.345,6.4439,6.3867,6.585,6.6608,6.6205,6.6863,6.6627,6.5613,6.644,6.5324,6.2448,6.255,6.2178,6.1332,0.0,0.0,0.0,6.3377,6.4321,6.516,6.4421,6.3902,6.3551,6.2083,0.0,6.0357,5.9093,5.8495,5.8585,5.8284,0.0,0.0,0.0,0.0,0.0,0.0,0.0,0.0,0.0,0.0,0.0,4.8098,4.747,4.654,4.8135,4.9984,5.1659,5.1831,5.2168,5.2842,5.2977,5.3281,5.3991,5.3551,5.3585,5.4262,5.3856,5.3721,5.4329,5.504,5.5784,5.6494,5.7239,5.7712,5.7848,5.7881,5.7881,5.7881,5.7881,5.8186,5.893,6.0148,6.1332,6.2245,6.1772,6.1298,6.1298,6.1298,6.0858,5.9877,6.0047,6.008,5.9911,5.9877,6.0317,6.1129,6.1772,6.2009,6.2178,6.2279,6.2415,6.2415,6.299,6.3565,7.0973,0.0,7.0026,6.9519,0.0,6.8064,6.7252,6.617,6.5459,6.4715,6.3971,6.326,6.2956,6.2922,6.2178,6.1761,6.1683,6.2054,6.2144,6.2199,6.4723,6.5615,6.5024,6.6913,6.7588,6.7217,6.7674,6.7269,6.6171,6.6559,6.5865,6.4038,6.4005,6.4005,6.4038,6.4038,6.3666,6.2956,6.362,6.4166,6.479,6.4404,6.3332,6.1776,0.0,0.0,0.0,0.0,0.0,0.0,0.0,0.0,0.0,0.0,0.0,5.3617,5.1609,5.0827,5.1877,5.1303,5.1002,5.1312,5.162,5.0916,4.8962,5.0483,5.1865,5.2807,5.2842,5.3011,5.3484,5.3822,5.4194,5.4532,5.46,5.4769,5.504,5.4837,5.4769,5.5141,5.5784,5.6427,5.6765,5.7442,5.7848,5.7881,5.7881,5.7881,5.7881,5.7881,5.8254,5.937,6.0486,6.1535,6.2178,6.1772,6.1298,6.1298,6.1298,6.0825,5.9742,5.9844,5.9979,5.9573,5.9302,5.9336,6.0419,6.0757,6.096,6.1637,6.1839,6.2009,6.2279,6.2685,6.3057,7.1819,7.0601,7.0601,7.0094,6.9248,6.8571,6.8166,6.7861,0.0,0.0,0.0,6.4478,6.3903,6.3835,6.3125,6.2787,6.2821,6.3565,6.3903,6.4005,6.5899,6.6745,6.6677,6.7895,6.8384,6.821,6.8553,6.7978,6.6626,6.6863,6.6609,6.5933,6.5899,6.617,6.6779,6.6812,6.5933,6.4208,6.4106,6.4228,6.457,6.457,6.3208,6.0248,5.8791,5.7089,5.5033,5.301,5.2472,5.355,5.2836,5.2535,5.2707,5.3211,5.3582,5.3957,5.3481,5.3685,5.4839,5.4364,5.3991,5.389,5.4465,5.3991,5.2164,5.3179,5.3822,5.3721,5.3822,5.3856,5.3721,5.4363,5.4837,5.4972,5.5412,5.575,5.5886,5.575,5.5683,5.5919,5.6427,5.6867,5.7002,5.7509,5.7881,5.7881,5.7881,5.7983,5.8051,5.8152,5.8626,5.981,6.0757,6.1569,6.2076,6.1772,6.1366,6.1298,6.1298,6.1028,6.0351,6.0216,6.0216,5.981,5.893,5.8964,5.9641,5.9674,5.9708,6.1028,6.1332,6.1535,6.2178,6.2415,6.2618,7.2834,7.209,7.209,7.1278,7.0026,6.9925,6.9113,6.7861,6.7151,6.6745,6.6609,6.5764,6.5392,6.5358,6.4613,6.4275,6.4343,6.5053,6.5392,0.0,6.6373,6.6474,6.5865,6.6068,6.617,6.6203,6.6812,6.7015,6.6829,6.7455,6.7354,6.6745,6.6643,6.6745,6.6812,6.6812,6.6643,6.6373,6.6373,6.6068,6.5561,6.5527,6.4667,6.2978,6.0849,5.8991,5.7476,5.628,5.5606,5.5376,5.5602,5.5602,5.5241,5.5274,5.5342,5.5412,5.531,5.5344,5.5547,5.5446,5.5412,5.5412,5.5513,5.5412,5.5141,5.5277,5.5141,5.4566,5.4972,5.5108,5.46,5.5108,5.5784,5.6292,5.6021,5.5953,5.6562,5.6156,5.6021,5.6596,5.6731,5.707,5.7577,5.778,5.7881,5.7881,5.7881,5.8118,5.8626,5.8863,5.9201,5.9979,6.0791,6.1535,6.2144,6.1772,6.1434,6.1298,6.1366,6.1129,6.0317,6.0655,6.0588,5.9438,5.9471,5.9573,5.9438,5.9641,6.0148,6.1028,6.1197,6.14,6.2042,6.2279,6.2381,7.368,7.2969,7.2563,7.2022,7.1312,7.0534,6.9586,6.8538,6.8199,6.7557,6.6779,6.6034,6.6136,6.6812,6.6542,6.6643,6.7049,6.7387,6.7286,6.6914,6.7252,6.7015,6.6373,6.6677,6.688,6.6948,6.7692,6.8064,6.8064,6.8402,6.8571,6.8673,6.9045,6.9248,6.9248,6.9248,6.9045,6.8639,6.7455,6.6643,6.6305,6.6305,6.5595,6.414,6.2685,6.1264,5.981,5.8923,5.818,5.7543,5.7741,5.7572,5.6968,5.7273,5.7509,5.7476,5.7137,5.69,5.69,5.6156,5.6055,5.6799,5.6528,5.6494,5.6867,5.6156,5.5581,5.5243,5.5547,5.5581,5.5277,5.5852,5.6461,5.6765,5.6833,5.7036,5.7273,5.7137,5.7036,5.734,5.7374,5.7509,5.7848,5.7881,5.7881,5.7881,5.7881,5.8186,5.893,5.937,5.9877,6.0655,6.14,6.1941,6.2313,6.2144,6.1907,6.1907,6.1907,6.1569,6.0926,6.1129,6.0791,5.9877,5.9911,5.9945,5.9607,5.9505,5.9877,6.0385,6.0283,6.0419,6.0926,6.1467,6.1907,7.4289,7.368,7.3138,7.2699,7.2293,7.0973,7.0026,6.935,6.935,6.8571,6.7354,6.6711,6.7083,6.8098,6.8166,6.8504,6.9045,6.9079,6.8774,6.8199,6.8166,6.7861,6.7455,6.7929,6.8166,6.8267,6.8977,6.935,6.935,6.9519,6.9891,7.0466,7.1041,7.1312,7.1312,7.1312,7.1007,7.0364,6.8707,6.7658,6.7354,6.732,6.6677,6.5425,6.4647,6.3565,6.211,6.1298,6.0452,5.9607,5.9539,5.9201,5.8457,5.893,5.9268,5.9201,5.8727,5.8321,5.8084,5.6934,5.6697,5.7746,5.7374,5.7273,5.7712,5.6867,5.6122,5.5987,5.6156,5.619,5.6089,5.663,5.7036,5.707,5.7543,5.7814,5.7881,5.7881,5.7881,5.7881,5.7881,5.7848,5.7881,5.7881,5.7881,5.7881,5.8017,5.8457,5.9167,5.9911,6.0655,6.14,6.2042,6.2347,6.2415,6.2381,6.2347,6.2415,6.2381,6.2076,6.167,6.1569,6.1264,6.0588,6.0385,6.0182,5.9945,5.9438,5.9336,5.9708,5.9505,5.9438,6.0419,6.096,6.1434,7.4593,7.4492,7.439,7.3612,7.236,7.1548,7.077,7.0128,7.0094,6.9654,6.891,6.8808,6.8842,6.8977,6.8977,6.9079,6.918,6.9113,6.9079,6.9011,6.8977,6.8944,6.8808,6.8944,6.9011,6.9079,6.9722,7.0094,7.0128,7.077,7.1109,7.121,7.1278,7.1345,7.1312,7.1345,7.1278,7.121,7.1007,7.0229,6.8977,6.891,6.847,6.7624,6.688,6.5831,6.441,6.3599,6.255,6.1264,6.1163,6.0757,6.0047,5.9979,6.0013,6.0047,5.9945,5.9607,5.893,5.8152,5.7712,5.7848,5.7814,5.778,5.7881,5.7746,5.7374,5.7002,5.7306,5.7273,5.6833,5.734,5.7712,5.7679,5.7814,5.7881,5.7881,5.7881,5.7881,5.7881,5.7881,5.7881,5.7881,5.7881,5.7915,5.8017,5.8457,5.9099,5.9911,6.0588,6.1332,6.2009,6.2381,6.2381,6.2415,6.2415,6.2415,6.2415,6.2415,6.2313,6.2178,6.2144,6.2042,6.1366,6.1197,6.0791,5.9708,5.9032,5.9133,5.9235,5.9268,5.9471,6.0723,6.1298,6.1467,7.527,7.5236,7.4796,7.3747,7.2394,7.1616,7.1142,7.0872,7.0872,7.0669,7.0432,7.0398,7.0161,6.9755,6.9755,6.9958,7.0398,7.0398,7.0161,6.9789,6.9755,6.9519,6.918,6.9553,6.9755,6.9823,7.05,7.0838,7.0973,7.1582,7.1954,7.1954,7.1954,7.1954,7.1954,7.1954,7.1751,7.1345,7.1751,7.1447,7.0567,7.0398,7.0026,6.9316,6.8944,6.8368,6.732,6.6508,6.5628,6.4613,6.414,6.3565,6.2821,6.2347,6.211,6.2042,6.0825,5.9776,5.9066,5.8321,5.7881,5.7881,5.7881,5.7881,5.7881,5.7881,5.7915,5.8084,5.7983,5.7746,5.7509,5.7712,5.7881,5.7881,5.7881,5.7881,5.7881,5.7881,5.7881,5.7881,5.7881,5.7881,5.7881,5.7881,5.8084,5.8423,5.8863,5.9438,6.0554,6.1095,6.1569,6.2212,6.2415,6.2415,6.2415,6.2415,6.2415,6.2415,6.2415,6.2415,6.2415,6.2415,6.2245,6.1941,6.1907,6.1332,5.9979,6.0047,6.0182,5.9641,5.9505,6.0013,6.1095,6.1637,6.2009,7.554,7.5574,7.4897,7.3883,7.2665,7.1921,7.1481,7.1312,7.1312,7.1312,7.1345,7.1515,7.121,7.0567,7.05,7.0804,7.1278,7.1312,7.1007,7.0534,7.05,7.0229,6.9789,7.0229,7.05,7.0601,7.1041,7.1413,7.165,7.2326,7.2699,7.2699,7.2699,7.2699,7.2699,7.2699,7.2326,7.1718,7.2157,7.2056,7.1413,7.1312,7.1041,7.0567,7.05,7.0161,6.9417,6.8842,6.7963,6.6846,6.6271,6.5561,6.4647,6.4106,6.3734,6.3396,6.1772,6.0419,5.9708,5.893,5.849,5.849,5.849,5.849,5.849,5.849,5.8727,5.9167,5.8795,5.849,5.822,5.8186,5.8118,5.7915,5.7881,5.7881,5.7881,5.7881,5.7881,5.7881,5.7881,5.7881,5.7881,5.7915,5.8152,5.8795,5.9201,5.9742,6.0994,6.1467,6.1806,6.2279,6.2381,6.2415,6.2415,6.2415,6.2415,6.2415,6.2415,6.2415,6.2415,6.2415,6.2415,6.2212,6.2347,6.2009,6.0825,6.0892,6.096,5.9945,5.9776,6.052,6.1501,6.2042,6.2753,7.5067,7.5574,7.4897,7.4153,7.3375,7.2665,7.1988,7.1481,7.1379,7.1379,7.1515,7.2056,7.1954,7.1312,7.1345,7.1312,7.1345,7.1413,7.1379,7.1278,7.1312,7.1244,7.1244,7.1278,7.1278,7.1379,7.1447,7.1785,7.236,7.3071,7.3443,7.3443,7.3443,7.3443,7.3443,7.3443,7.3071,7.2462,7.2496,7.2124,7.1481,7.1379,7.1413,7.1345,7.1244,7.0872,7.0229,7.0094,6.9079,6.6914,6.688,6.617,6.4884,6.4647,6.4309,6.3565,6.2719,6.1941,6.1197,6.0351,5.9877,5.9911,5.981,5.9945,5.9776,5.9776,5.9877,6.0047,5.9979,5.9674,5.9167,5.8998,5.8693,5.8152,5.7983,5.7983,5.7949,5.8017,5.7881,5.7881,5.7881,5.7881,5.7881,5.7881,5.8287,5.8964,5.9607,6.0351,6.1231,6.1907,6.2245,6.2347,6.2415,6.2415,6.2415,6.2415,6.2415,6.2415,6.2415,6.2415,6.2415,6.2415,6.2415,6.2415,6.2415,6.211,6.1535,6.1163,6.096,6.052,6.0317,6.0926,6.2347,6.2381,6.3125,7.5439,7.5608,7.4897,7.4458,7.4119,7.3409,7.2935,7.2732,7.2699,7.2699,7.2732,7.3003,7.2935,7.2699,7.2699,7.2428,7.209,7.2462,7.2462,7.2124,7.2496,7.2462,7.209,7.2462,7.2699,7.2699,7.2699,7.2834,7.3138,7.3849,7.4221,7.4187,7.4221,7.4221,7.4187,7.4187,7.3849,7.3206,7.3544,7.3443,7.2732,7.2699,7.2699,7.2665,7.1785,7.121,7.0906,7.0466,6.9789,6.8977,6.8538,6.803,6.7455,6.6542,6.5459,6.4275,6.3057,6.2279,6.1907,6.0791,6.008,6.008,6.008,6.0148,6.008,6.0114,6.0283,6.0723,6.0858,6.0723,6.0486,6.0047,5.9607,5.937,5.9268,5.9066,5.8727,5.8592,5.8423,5.8017,5.7881,5.7881,5.7881,5.7881,5.8355,5.9471,5.9945,6.0655,6.1704,6.2245,6.2415,6.2415,6.2415,6.2415,6.2415,6.2415,6.2415,6.2415,6.2415,6.2415,6.2415,6.2415,6.2415,6.2415,6.2415,6.2178,6.1637,6.1434,6.1231,6.1535,6.1366,6.1839,6.3497,6.3328,6.4208,7.5676,7.5608,7.5168,7.483,7.4559,7.4052,7.3713,7.351,7.3477,7.3477,7.351,7.3747,7.3747,7.3612,7.3984,7.3781,7.3172,7.3375,7.3206,7.2834,7.3274,7.324,7.2902,7.324,7.3477,7.351,7.3747,7.3849,7.3916,7.4593,7.4931,7.4965,7.4965,7.4965,7.4965,7.4965,7.4593,7.4086,7.4356,7.4221,7.3578,7.3477,7.3477,7.3341,7.2529,7.2022,7.1988,7.1075,7.0534,7.0466,6.9857,6.9214,6.8673,6.7726,6.6508,6.5053,6.4038,6.3328,6.299,6.1907,6.1231,6.1197,6.096,6.0825,6.0825,6.0858,6.1129,6.1501,6.1637,6.167,6.1646,6.124,6.0732,6.025,6.008,5.9911,5.9438,5.937,5.9032,5.8423,5.8051,5.7915,5.7915,5.8118,5.8829,5.9979,6.0283,6.1061,6.2076,6.2415,6.2415,6.2415,6.2415,6.2415,6.2415,6.2415,6.2415,6.2415,6.2415,6.2415,6.2415,6.2415,6.2415,6.2415,6.2313,6.211,6.1907,6.1704,6.1907,6.2313,6.2313,6.2448,6.3497,6.4174,6.4816,7.5676,7.5676,7.5676,7.527,7.4762,7.4661,7.4187,7.3713,7.3612,7.3713,7.3883,7.4322,7.4289,7.3984,7.4931,7.5202,7.4525,7.3984,7.3646,7.351,7.3612,7.3612,7.351,7.368,7.3747,7.3747,7.4289,7.4627,7.4661,7.5236,7.5574,7.5642,7.5574,7.554,7.5642,7.5574,7.5303,7.4796,7.4695,7.4356,7.3612,7.368,7.3713,7.3646,7.3477,7.3443,7.3443,7.2157,7.1379,7.1244,7.0669,6.9519,6.8436,6.7996,6.7252,6.6068,6.5628,6.5256,6.458,6.3802,6.326,6.3193,6.2787,6.2381,6.2245,6.2279,6.2279,6.2245,6.2279,6.2391,6.2547,6.2523,6.1902,6.0528,6.0385,6.0351,6.0148,6.008,5.981,5.9066,5.8457,5.7983,5.8084,5.8592,5.937,6.0148,6.0757,6.1434,6.2212,6.2415,6.2415,6.2415,6.2415,6.2415,6.2415,6.2415,6.2415,6.2415,6.2415,6.2415,6.2415,6.2415,6.2415,6.2415,6.2415,6.2212,6.2212,6.2042,6.211,6.2415,6.255,6.2854,6.3734,6.441,6.4647,7.5676,7.5676,7.5676,7.5574,7.5371,7.5371,7.5202,7.5033,7.4999,7.4999,7.5067,7.5236,7.5202,7.51,7.5506,7.5574,7.5337,7.51,7.4762,7.439,7.4762,7.4695,7.4424,7.4762,7.5033,7.5033,7.5236,7.5337,7.5405,7.5574,7.5676,7.5676,7.5676,7.5676,7.5676,7.5676,7.554,7.5405,7.5337,7.5202,7.5033,7.4999,7.4999,7.4931,7.4525,7.4492,7.4897,7.3578,7.2597,7.209,7.1853,7.1041,6.9722,6.9011,6.8233,6.7286,6.6203,6.5628,6.5324,6.4715,6.4275,6.4208,6.4005,6.3666,6.326,6.3159,6.2956,6.2516,6.2415,6.2459,6.2615,6.2693,6.2523,6.197,6.1902,6.1554,6.0926,6.0452,5.981,5.9235,5.9235,5.9167,5.893,5.9302,6.0047,6.0723,6.1163,6.1603,6.2178,6.2415,6.2415,6.2415,6.2415,6.2415,6.2415,6.2415,6.2415,6.2415,6.2415,6.2415,6.2415,6.2415,6.2415,6.2415,6.2415,6.2415,6.2415,6.2415,6.2415,6.2415,6.2482,6.3159,6.414,6.4444,6.4343,7.5676,7.5676,7.5676,7.5676,7.5676,7.5676,7.5676,7.5676,7.5676,7.5676,7.5676,7.5676,7.5676,7.5676,7.5676,7.5676,7.5676,7.5676,7.5439,7.51,7.5439,7.5439,7.51,7.5473,7.5676,7.5676,7.5676,7.5676,7.5676,7.5676,7.5676,7.5676,7.5676,7.5676,7.5676,7.5676,7.5676,7.5676,7.5676,7.5676,7.5676,7.5676,7.5676,7.5608,7.5236,7.527,7.5574,7.4762,7.395,7.324,7.2732,7.1718,7.0331,6.9722,6.9147,6.8368,6.7557,6.688,6.6508,6.5899,6.5256,6.5053,6.4749,6.441,6.4005,6.3903,6.3666,6.3328,6.334,6.3464,6.3621,6.3777,6.3777,6.3777,6.3042,6.2479,6.1748,6.1028,6.0486,6.008,6.0013,5.9844,5.9708,6.008,6.0689,6.1197,6.1535,6.1772,6.2279,6.2381,6.2415,6.2415,6.2415,6.2415,6.2415,6.2415,6.2415,6.2415,6.2415,6.2415,6.2415,6.2415,6.2415,6.2415,6.2415,6.2415,6.2415,6.2415,6.2415,6.2415,6.2516,6.3193,6.3903,6.3463,6.3463,7.5676,7.5676,7.5676,7.5676,7.5676,7.5676,7.5676,7.5676,7.5676,7.5676,7.5676,7.5676,7.5676,7.5676,7.5676,7.5676,7.5676,7.5676,7.5676,7.5608,7.5676,7.5608,7.5608,7.5676,7.5676,7.5676,7.5676,7.5676,7.5676,7.5676,7.5676,7.5676,7.5676,7.5676,7.5676,7.5676,7.5676,7.5676,7.5676,7.5676,7.5676,7.5676,7.5676,7.5676,7.5642,7.5642,7.5642,7.5506,7.5236,7.4492,7.3138,7.1819,7.0635,7.0263,6.9789,6.918,6.9113,6.8538,6.7963,6.7184,6.6542,6.5967,6.5358,6.4681,6.4681,6.4647,6.458,6.4377,6.4504,6.4812,6.4971,6.5206,6.5319,6.5284,6.3879,6.2819,6.2425,6.1738,6.1264,6.1095,6.0655,6.0216,6.0283,6.0858,6.1298,6.1501,6.1941,6.2245,6.2347,6.2415,6.2415,6.2415,6.2415,6.2415,6.2415,6.2415,6.2448,6.2753,6.2618,6.2415,6.2415,6.2415,6.2415,6.2415,6.2448,6.2448,6.255,6.2651,6.2685,6.2719,6.299,6.3328,6.3463,6.3362,6.3429,7.5676,7.5676,7.5676,7.5676,7.5676,7.5676,7.5676,7.5676,7.5676,7.5676,7.5676,7.5676,7.5676,7.5676,7.5676,7.5676,7.5676,7.5676,7.5676,7.5676,7.5676,7.5676,7.5676,7.5676,7.5676,7.5676,7.5743,7.5676,7.5676,7.5777,7.5777,7.5676,7.5811,7.5743,7.5676,7.5743,7.5676,7.5676,7.5676,7.5676,7.5676,7.5676,7.5676,7.5676,7.5676,7.5676,7.5676,7.5676,7.5371,7.4593,7.3206,7.2293,7.1718,7.0872,7.0229,6.9925,6.9451,6.9079,6.8741,6.8098,6.7557,6.732,6.6643,6.6,6.5425,6.5425,6.5155,6.4783,6.4822,6.5051,6.5289,6.548,6.5671,6.5387,6.4435,6.3373,6.2785,6.2324,6.1907,6.1434,6.1535,6.1434,6.1264,6.1535,6.2042,6.211,6.2212,6.2415,6.2415,6.2415,6.2415,6.2415,6.2415,6.2415,6.2415,6.2415,6.2584,6.3057,6.2922,6.2482,6.2448,6.2415,6.2415,6.2415,6.2584,6.2651,6.3024,6.3294,6.3226,6.3226,6.3632,6.4072,6.4208,6.4208,6.414,7.5676,7.5676,7.5676,7.5676,7.5676,7.5676,7.5676,7.5676,7.5676,7.5676,7.5676,7.5676,7.5676,7.5676,7.5676,7.5676,7.5676,7.5676,7.5676,7.5676,7.5676,7.5676,7.5676,7.5676,7.5676,7.5743,7.6048,7.6217,7.6284,7.6487,7.6657,7.6724,7.6657,7.6521,7.6251,7.6183,7.6014,7.5777,7.5676,7.5676,7.5676,7.5676,7.5676,7.5676,7.5676,7.5676,7.5676,7.5676,7.5371,7.4627,7.3781,7.3071,7.2428,7.1954,7.1278,7.077,7.05,7.0297,6.9586,6.9079,6.8741,6.8436,6.7963,6.7624,6.7184,6.6846,6.6373,6.6336,6.6058,6.6131,6.6257,6.6495,6.6514,6.6161,6.548,6.4561,6.3305,6.3091,6.2561,6.2188,6.2076,6.2279,6.1806,6.2178,6.2313,6.2381,6.2347,6.2415,6.2415,6.2415,6.2482,6.2584,6.2618,6.2618,6.2685,6.2719,6.3091,6.3497,6.3734,6.3159,6.2685,6.2651,6.2685,6.2753,6.2821,6.3057,6.3599,6.3971,6.3971,6.4106,6.4478,6.458,6.4647,6.4918,6.4884,7.5676,7.5676,7.5676,7.5676,7.5676,7.5676,7.5676,7.5676,7.5676,7.5676,7.5676,7.5676,7.5676,7.5709,7.5865,7.5865,7.5676,7.5865,7.5771,7.5838,7.5811,7.5879,7.5676,7.5676,7.5811,7.598,7.6623,7.686,7.7063,7.7604,7.7874,7.7773,7.7807,7.7604,7.7063,7.6893,7.6487,7.6014,7.5743,7.5709,7.5676,7.5676,7.5676,7.5676,7.5676,7.5676,7.5676,7.5642,7.5405,7.4762,7.4661,7.3883,7.2902,7.3274,7.2834,7.1954,7.1988,7.1751,7.0703,7.0331,6.9925,6.935,6.9079,6.9079,6.8707,6.8199,6.7879,6.7776,6.7789,6.7557,6.7593,6.7935,6.7704,6.7143,6.6848,6.5926,6.4585,6.3985,6.36,6.2798,6.2618,6.2516,6.2584,6.2482,6.2448,6.2753,6.2685,6.255,6.2651,6.2787,6.2922,6.3057,6.299,6.2922,6.299,6.3057,6.3565,6.4072,6.4512,6.4241,6.3328,6.3159,6.3159,6.3226,6.3396,6.3835,6.4512,6.4715,6.4715,6.4884,6.5155,6.4986,6.485,6.5324,6.5459,7.5676,7.5676,7.5676,7.5676,7.5676,7.5676,7.5676,7.5676,7.5676,7.5676,7.5676,7.5676,7.5676,7.5805,7.63,7.6392,7.596,7.6392,7.6392,7.5777,7.6386,7.6217,7.5845,7.5743,7.6082,7.6487,7.6792,7.7232,7.7705,7.7976,7.801,7.8077,7.8213,7.7942,7.7739,7.7299,7.686,7.6555,7.6082,7.5811,7.5777,7.5777,7.5743,7.5709,7.5676,7.5676,7.5676,7.5676,7.5608,7.5371,7.4931,7.4458,7.4052,7.3713,7.3375,7.3071,7.3037,7.2834,7.2022,7.1379,7.077,7.0128,6.9654,6.9079,6.9079,6.9011,6.8538,6.8269,6.8182,6.8289,6.8211,6.8118,6.8059,6.7886,6.7738,6.7305,6.62,6.5244,6.4517,6.4085,6.3599,6.3463,6.3937,6.299,6.2888,6.3091,6.3024,6.2787,6.2956,6.326,6.3429,6.3632,6.3531,6.3497,6.37,6.3802,6.4174,6.4681,6.5121,6.5189,6.4309,6.4038,6.4208,6.414,6.4038,6.4613,6.529,6.5459,6.5459,6.5662,6.5764,6.5595,6.5561,6.5899,6.5865,7.6048,7.5709,7.5676,7.5676,7.5676,7.5676,7.5676,7.5676,7.5676,7.5676,7.5676,7.5676,7.5676,7.5771,7.6668,7.6759,7.6668,7.7263,7.7436,7.6987,7.6982,7.6726,7.6386,7.6284,7.6521,7.6995,7.7671,7.8145,7.8483,7.8822,7.9092,7.9025,7.8991,7.8855,7.8551,7.8077,7.7807,7.7435,7.6995,7.6623,7.6318,7.6251,7.598,7.5777,7.5676,7.5676,7.5676,7.5676,7.5676,7.5608,7.5303,7.4931,7.4728,7.4525,7.4221,7.3612,7.3849,7.3612,7.2969,7.2529,7.2022,7.1278,7.0838,7.05,7.0128,6.9857,6.9538,6.9184,6.9152,6.9056,6.902,6.8656,6.8621,6.8551,6.8551,6.8146,6.7261,6.6211,6.5357,6.4843,6.4322,6.4241,6.4072,6.3632,6.3632,6.3937,6.3937,6.3734,6.3768,6.4038,6.414,6.4208,6.414,6.4174,6.441,6.4613,6.4816,6.5324,6.5797,6.5696,6.5155,6.5222,6.5425,6.5121,6.4816,6.5392,6.5967,6.6068,6.617,6.6271,6.6305,6.6237,6.617,6.6203,6.6034,7.6454,7.5676,7.5676,7.5676,7.5676,7.5676,7.5676,7.5676,7.5676,7.5676,7.5676,7.5676,7.5676,7.596,7.6906,7.7352,7.7737,7.8258,7.852,7.7616,7.7697,7.734,7.6951,7.6961,7.7198,7.7367,7.8348,7.8991,7.9397,7.9837,7.9904,8.0107,8.0141,7.9735,7.9329,7.9092,7.8686,7.8179,7.7874,7.7536,7.713,7.7029,7.669,7.6115,7.5743,7.5709,7.5676,7.5676,7.5676,7.5676,7.5676,7.5371,7.5134,7.5202,7.5236,7.395,7.4492,7.4356,7.3849,7.3578,7.3274,7.2665,7.236,7.2056,7.1447,7.077,7.0351,7.0119,6.9902,6.9722,7.0027,6.9555,6.9247,6.9182,6.9113,6.8746,6.8059,6.7216,6.6474,6.5549,6.5149,6.4952,6.4884,6.4647,6.4715,6.4715,6.4681,6.4681,6.4749,6.4816,6.4918,6.5019,6.4986,6.4816,6.4986,6.5392,6.5628,6.5831,6.6339,6.617,6.5933,6.6034,6.6068,6.5797,6.573,6.617,6.644,6.6508,6.6609,6.6812,6.6745,6.6542,6.6474,6.6474,6.6271,7.642,7.5676,7.5676,7.5676,7.5676,7.5676,7.5676,7.5676,7.5676,7.5676,7.5676,7.5676,7.5676,7.6114,7.7458,7.8482,7.9129,7.9799,7.9336,7.8202,7.837,7.8407,7.7312,7.757,7.8077,7.8653,7.9226,7.953,7.9837,8.0141,8.0209,8.0209,8.0209,8.004,7.9837,7.9464,7.916,7.8889,7.8483,7.8077,7.7874,7.7671,7.7401,7.6657,7.6183,7.5845,7.5743,7.5709,7.5676,7.5676,7.5676,7.5608,7.5506,7.5608,7.5473,7.5303,7.527,7.5067,7.4559,7.4424,7.4052,7.3409,7.2868,7.2496,7.209,7.1548,7.0995,7.0405,7.014,6.9913,7.0269,7.0252,6.9986,6.9928,6.9839,6.9452,6.8898,6.8301,6.7738,6.6873,6.616,6.5628,6.5595,6.5527,6.5392,6.5324,6.5256,6.5358,6.5493,6.5628,6.5764,6.5831,6.5899,6.5696,6.5561,6.6034,6.6406,6.6373,6.6643,6.6643,6.6508,6.6643,6.6576,6.6203,6.6237,6.6542,6.6745,6.6812,6.6812,6.6812,6.6779,6.6779,6.6711,6.6643,6.6677,7.6758,7.5709,7.5676,7.5676,7.5676,7.5676,7.5676,7.5676,7.5676,7.5676,7.5676,7.5676,7.5676,7.602,7.7051,7.8574,8.019,8.1162,8.0527,7.9515,7.9688,7.9186,7.7827,7.8269,7.8653,7.9325,7.9892,8.0232,8.0242,8.0175,8.0309,8.0209,8.0209,8.0209,8.0141,7.987,7.9667,7.9532,7.9261,7.8889,7.8551,7.828,7.7773,7.7401,7.6792,7.6386,7.6251,7.5845,7.5709,7.5676,7.5676,7.5676,7.5676,7.5676,7.5676,7.5676,7.5676,7.5574,7.5236,7.5168,7.483,7.4187,7.368,7.3341,7.2902,7.2293,7.1604,7.1158,7.0617,7.0781,7.1796,7.1406,7.1219,7.1053,7.0913,7.0416,6.9631,6.9043,6.8621,6.8062,6.727,6.6738,6.644,6.6305,6.6068,6.5933,6.5865,6.5967,6.6136,6.6237,6.6339,6.6305,6.6271,6.617,6.5967,6.6237,6.6677,6.6779,6.6812,6.6812,6.6812,6.6812,6.6745,6.6508,6.6677,6.6812,6.6812,6.6812,6.6812,6.6812,6.6812,6.6779,6.6812,6.6812,6.6812,7.7096,7.5676,7.5676,7.5676,7.5676,7.5676,7.5811,7.5879,7.5743,7.5811,7.5912,7.5777,7.5676,7.6088,7.7237,7.8981,8.1191,8.2205,8.209,8.1168,8.1201,8.0438,7.9498,7.9368,7.978,8.0122,8.1035,8.1352,8.0706,8.0641,8.0576,8.0442,8.0376,8.0209,8.0175,8.0107,8.0209,8.0209,8.0175,7.987,7.9295,7.8754,7.8314,7.8145,7.7502,7.7063,7.6792,7.6352,7.5912,7.5743,7.5676,7.5676,7.5676,7.5676,7.5676,7.5676,7.5676,7.5676,7.5676,7.5642,7.5337,7.4864,7.4661,7.4255,7.368,7.2993,7.2271,7.2137,7.1541,7.1538,7.2494,7.267,7.2403,7.2192,7.2009,7.1717,7.0877,7.0235,6.9867,6.9227,6.8338,6.7749,6.7282,6.6745,6.644,6.6406,6.6339,6.6373,6.6542,6.6576,6.6643,6.6576,6.6508,6.6474,6.6339,6.6237,6.6576,6.6779,6.6812,6.6812,6.6812,6.6812,6.6711,6.6677,6.6711,6.6812,6.6812,6.6812,6.6812,6.6812,6.6812,6.6812,6.6812,6.6812,6.6812,7.7096,7.5709,7.5709,7.5676,7.5676,7.5805,7.6115,7.6651,7.6076,7.6115,7.6521,7.6082,7.5777,7.6292,7.8256,8.0175,8.1933,8.3169,8.3286,8.2306,8.2521,8.2276,8.1436,8.1524,8.1194,8.1259,8.2209,8.2222,8.1603,8.1318,8.1352,8.1256,8.0542,8.0242,8.0344,8.0242,8.0209,8.0209,8.0242,8.0175,8.0073,7.9938,7.9566,7.9025,7.828,7.757,7.713,7.6724,7.6352,7.5743,7.5676,7.5676,7.5676,7.5676,7.5676,7.5676,7.5676,7.5676,7.5709,7.5676,7.5676,7.5337,7.4999,7.4661,7.4119,7.3341,7.2745,7.2922,7.2293,7.221,7.2881,7.3104,7.3098,7.3048,7.2929,7.2849,7.2362,7.1446,7.1125,7.0899,7.0182,6.8831,6.7954,6.7267,6.6779,6.6812,6.6812,6.6812,6.6812,6.6812,6.6812,6.6711,6.6677,6.6643,6.6609,6.6508,6.6576,6.6779,6.6812,6.6812,6.6812,6.6812,6.6812,6.6779,6.6812,6.6812,6.6812,6.6812,6.6812,6.6812,6.6812,6.6812,6.6812,6.6812,6.6846,7.7739,7.6386,7.6386,7.6462,7.6553,7.6929,7.7066,7.7032,7.7135,7.682,7.638,7.642,7.6589,7.7312,7.8832,8.0299,8.1944,8.3387,8.3894,8.3595,8.3709,8.3483,8.282,8.247,8.2252,8.2174,8.282,8.3261,8.2586,8.1886,8.1603,8.1509,8.0774,8.0445,8.075,8.0378,8.0513,8.0682,8.0851,8.0818,8.0818,8.0784,8.0648,8.0276,7.9228,7.8314,7.7638,7.7029,7.6521,7.5879,7.5676,7.5676,7.5845,7.6082,7.6386,7.6386,7.6386,7.6183,7.5777,7.5709,7.5709,7.5676,7.5337,7.5067,7.4627,7.4018,7.3561,7.3602,7.298,7.3034,7.3531,7.3822,7.3854,7.3833,7.3784,7.3735,7.3524,7.2965,7.237,7.2227,7.1929,7.0644,6.9325,6.8432,6.7709,6.7117,6.7015,6.688,6.6846,6.6812,6.6812,6.6812,6.6779,6.6779,6.6745,6.6711,6.6677,6.6812,6.6812,6.6812,6.6812,6.6812,6.6812,6.6812,6.6812,6.6812,6.6812,6.6812,6.6812,6.6812,6.6812,6.6812,6.6812,6.688,6.688,7.8348,7.7164,7.6995,7.6957,7.7154,7.7706,7.792,7.7856,7.8306,7.7835,7.6931,7.712,7.757,7.8468,7.9521,8.1015,8.2242,8.3376,8.4169,8.4768,8.4829,8.4478,8.4094,8.3768,8.3348,8.2313,8.3642,8.4039,8.3578,8.2866,8.25,8.2257,8.2009,8.1547,8.1492,8.156,8.1628,8.1528,8.1799,8.1799,8.1629,8.1562,8.1426,8.0919,8.0107,7.9025,7.828,7.7604,7.6826,7.6217,7.5777,7.5709,7.5777,7.6082,7.6352,7.6352,7.6352,7.6183,7.5946,7.5879,7.5845,7.5743,7.5676,7.5405,7.5033,7.4762,7.4752,7.4671,7.4033,7.4142,7.4475,7.4806,7.4716,7.4691,7.4608,7.4627,7.4507,7.4024,7.3892,7.4044,7.3654,7.2713,7.1385,7.0049,6.891,6.776,6.7252,6.7015,6.6914,6.6964,6.6846,6.6846,6.6846,6.688,6.688,6.688,6.6846,6.6948,6.6948,6.688,6.6948,6.688,6.6812,6.6812,6.6948,6.6812,6.6812,6.6812,6.6812,6.6812,6.6812,6.6812,6.6846,6.6914,6.7252,7.8653,7.7841,7.7164,7.6991,7.7244,7.7154,7.8101,7.9107,7.9367,7.9216,7.8613,7.836,7.8413,7.9216,8.0558,8.1837,8.2981,8.488,8.535,8.554,8.5761,8.5536,8.5386,8.5153,8.4988,8.4184,8.4656,8.5049,8.5073,8.458,8.4278,8.4074,8.3661,8.3265,8.3175,8.33,8.2977,8.2887,8.2955,8.2953,8.2545,8.2308,8.1968,8.1291,8.0547,7.9769,7.9025,7.828,7.7468,7.6724,7.6183,7.5743,7.5777,7.6014,7.6183,7.6217,7.634,7.6239,7.6076,7.6284,7.6352,7.5946,7.5743,7.5777,7.5439,7.4931,7.5106,7.5655,7.5103,7.4941,7.5239,7.5514,7.5573,7.5476,7.5512,7.557,7.5484,7.5225,7.5169,7.5711,7.5258,7.419,7.3464,7.2092,7.0568,6.9392,6.8046,6.7808,6.7301,6.7116,6.6914,6.6914,6.6914,6.6948,6.6981,6.7083,6.7455,6.7523,6.7489,6.7286,6.7151,6.7049,6.7354,6.7286,6.7421,6.7117,6.6948,6.732,6.7421,6.6981,6.6896,6.7263,6.7584,6.7789,6.8284,7.8933,7.7299,7.7029,7.757,7.8659,7.9112,7.9452,7.9772,8.0207,7.9978,7.9396,7.9411,7.9615,8.0028,8.0395,8.1667,8.2909,8.3642,8.4828,8.5608,8.5909,8.5909,8.5909,8.5757,8.5339,8.49,8.5338,8.5661,8.5538,8.5989,8.6629,8.644,8.5741,8.53,8.51,8.5217,8.4804,8.4481,8.4308,8.4248,8.3874,8.2887,8.2272,8.1968,8.0716,7.9904,7.9194,7.8855,7.801,7.7164,7.6657,7.6217,7.5974,7.6115,7.6347,7.6442,7.6752,7.6846,7.6476,7.6753,7.6724,7.6623,7.642,7.6217,7.5777,7.5371,7.5525,7.5784,7.6054,7.5875,7.5986,7.6363,7.6493,7.6438,7.6446,7.6547,7.6465,7.6275,7.6167,7.657,7.6216,7.5402,7.4797,7.4141,7.2577,7.1037,6.967,6.8597,6.8076,6.7622,6.7573,6.7421,6.7489,6.7726,6.7827,6.7996,6.8166,6.8098,6.803,6.7929,6.7827,6.8233,6.8402,6.8233,6.8064,6.8064,6.8064,6.8166,6.7963,6.7455,6.7584,6.8062,6.8372,6.876,6.9365,7.929,7.7363,7.7822,7.8408,7.9262,7.9803,8.0116,8.0309,8.1,8.1069,8.0488,8.0836,8.0741,8.0702,8.1063,8.1663,8.2998,8.3812,8.4792,8.5453,8.5909,8.5909,8.5982,8.605,8.6041,8.557,8.6181,8.6603,8.7115,8.7789,8.823,8.8212,8.7669,8.7319,8.6627,8.6868,8.6601,8.6114,8.5914,8.5526,8.5225,8.401,8.275,8.2376,8.119,8.031,7.9634,7.9194,7.8619,7.7807,7.7164,7.6623,7.6482,7.6605,7.687,7.7247,7.7675,7.7913,7.7491,7.6809,7.6753,7.6724,7.6454,7.6183,7.5879,7.5676,7.5807,7.6376,7.6608,7.6894,7.6931,7.7453,7.7544,7.7486,7.7452,7.7517,7.7583,7.7434,7.7289,7.7326,7.6972,7.6903,7.6514,7.5908,7.4141,7.2612,7.1438,7.0257,6.9323,6.8822,6.8421,6.8303,6.8267,6.8571,6.891,6.8808,6.8707,6.8639,6.8639,6.8774,6.8842,6.918,6.9147,6.8774,6.8741,6.9011,6.8977,6.8741,6.8335,6.7827,6.833,6.9105,6.9911,7.0384,7.0902,7.9727,7.8239,7.9677,7.9595,7.8763,7.8469,7.9436,8.0838,8.1888,8.2301,8.2371,8.1993,8.1619,8.1723,8.2118,8.2731,8.3383,8.4711,8.5644,8.5797,8.5909,8.5909,8.6199,8.6412,8.6738,8.6908,8.7249,8.7969,8.8938,8.8644,8.9158,8.9915,8.9636,8.9163,8.7986,8.776,8.7585,8.762,8.755,8.6986,8.6269,8.5289,8.3907,8.299,8.1834,8.0919,8.0276,7.9769,7.9261,7.8653,7.7739,7.7198,7.6961,7.7169,7.74,7.7478,7.8189,7.8596,7.8336,7.6793,7.6435,7.6724,7.6521,7.6048,7.5777,7.5771,7.596,7.645,7.7372,7.7776,7.8204,7.8619,7.8448,7.8602,7.8638,7.842,7.8418,7.8267,7.805,7.7905,7.8303,7.8557,7.8303,7.7625,7.5764,7.4322,7.3082,7.1944,7.0913,7.0096,6.9598,6.9491,6.9442,6.9524,6.9761,6.935,6.9248,6.918,6.9316,6.9586,6.962,6.9688,6.9553,6.9282,6.9485,6.9789,6.9519,6.9147,6.9304,6.9493,6.9735,7.0406,7.1215,7.2056,7.2661,8.1113,7.9143,7.9617,7.9993,8.002,7.9866,8.0045,8.0534,8.2102,8.2602,8.2112,8.2722,8.2647,8.233,8.2645,8.3348,8.4065,8.4231,8.5067,8.5909,8.5945,8.6271,8.6597,8.6959,8.7358,8.7823,8.8238,8.8626,8.935,8.9347,8.9825,9.0545,9.0581,9.0276,8.9852,8.9582,8.9654,8.9449,8.8984,8.8329,8.7896,8.6177,8.4682,8.4008,8.2752,8.1663,8.0919,8.0445,8.004,7.9329,7.8348,7.8077,7.79,7.8015,7.8499,7.895,7.9788,8.0572,7.9705,7.8207,7.6802,7.6741,7.6555,7.6115,7.5811,7.5709,7.596,7.6334,7.7175,7.7596,7.8248,7.862,7.8839,7.9791,7.9828,7.9324,7.9106,7.8777,7.8521,7.8484,7.8702,7.881,7.8666,7.8629,7.7235,7.6123,7.5044,7.3964,7.2952,7.175,7.0932,7.0856,7.0702,7.0617,7.0527,7.0473,7.0466,7.0635,7.0635,7.0703,7.0635,7.0398,7.0398,7.0331,7.0466,7.0534,7.0385,7.0338,7.1148,7.1538,7.1503,7.1944,7.283,7.3734,7.4496,8.1916,7.9712,8.0175,8.0388,8.0456,8.0306,8.0217,8.0609,8.2213,8.2427,8.1973,8.3272,8.3389,8.2708,8.3132,8.3692,8.4431,8.4872,8.5067,8.5945,8.6199,8.6561,8.6996,8.7575,8.8227,8.877,8.935,8.9821,8.9893,9.0364,9.0545,9.0581,9.0618,9.0545,9.0465,9.0421,9.0421,9.0222,8.9773,8.94,8.8526,8.7141,8.5652,8.4751,8.3568,8.2306,8.1596,8.1088,8.075,7.9803,7.9228,7.8957,7.8744,7.8913,7.9488,8.0194,8.1036,8.1555,8.0475,7.929,7.7831,7.7042,7.6741,7.6217,7.5811,7.5709,7.5676,7.6054,7.6576,7.7405,7.8147,7.8517,7.9408,8.033,8.0515,8.0045,7.9901,7.9643,7.9535,7.9462,7.939,7.9318,7.9136,7.9064,7.8671,7.7772,7.691,7.598,7.512,7.4038,7.2941,7.2554,7.2285,7.2125,7.1966,7.1715,7.1774,7.2022,7.1921,7.1718,7.1481,7.121,7.1312,7.1312,7.1109,7.1007,7.1232,7.1532,7.2004,7.2533,7.2951,7.3604,7.4543,7.5442,7.6302,8.1998,8.0021,8.1434,8.1176,7.9893,7.9985,8.0322,8.1129,8.2034,8.236,8.2359,8.3115,8.3477,8.3513,8.4075,8.4477,8.4711,8.5417,8.5721,8.609,8.6525,8.6887,8.7575,8.8444,8.9024,8.9567,9.0038,9.0328,9.0545,9.0581,9.0581,9.0618,9.0618,9.0618,9.0618,9.0618,9.0618,9.0501,9.0421,8.994,8.9207,8.8169,8.6954,8.588,8.472,8.3567,8.2717,8.2071,8.1359,8.0546,7.9768,7.9363,7.922,7.9316,7.99,8.0816,8.2075,8.1901,8.1448,8.0341,7.8815,7.7706,7.665,7.6035,7.5709,7.5676,7.5676,7.5865,7.6392,7.7229,7.8062,7.8928,7.9757,8.04,8.0912,8.084,8.0876,8.0839,8.0802,8.0766,8.073,8.0549,8.0078,7.9897,7.9716,7.9356,7.8673,7.8386,7.7523,7.6912,7.5822,7.4702,7.4345,7.3737,7.3395,7.2901,7.2678,7.2699,7.2597,7.2394,7.2191,7.1954,7.1785,7.165,7.1481,7.1447,7.1706,7.2021,7.2444,7.3103,7.4112,7.4949,7.5861,7.7272,7.8205,8.3005,8.2337,8.2277,8.2313,8.2234,8.1161,8.084,8.1273,8.2505,8.2867,8.2396,8.4308,8.4547,8.4336,8.5093,8.5345,8.5531,8.5721,8.5797,8.6199,8.667,8.7285,8.801,8.8843,8.9603,9.011,9.0436,9.0618,9.0581,9.0618,9.0618,9.0618,9.0618,9.0618,9.0618,9.0618,9.0618,9.0618,9.0618,9.0421,8.994,8.9019,8.8117,8.7431,8.6516,8.5471,8.4786,8.3994,8.3247,8.2183,8.1154,8.0614,7.9937,8.0549,8.147,8.3152,8.3738,8.3841,8.3282,8.1555,7.9963,7.899,7.7995,7.6713,7.6149,7.5777,7.5777,7.5899,7.6054,7.6725,7.7667,7.8482,7.9444,8.0099,8.0694,8.1021,8.1092,8.1092,8.1092,8.1092,8.1092,8.102,8.0621,8.0585,8.044,8.044,8.0261,7.9973,7.9684,7.8963,7.817,7.6961,7.6085,7.544,7.4464,7.3885,7.3572,7.3341,7.324,7.3138,7.2969,7.2699,7.2293,7.2056,7.2022,7.2056,7.2124,7.2564,7.316,7.4377,7.5353,7.6252,7.725,7.8311,7.9251,8.2831,8.2505,8.2034,8.2106,8.2324,8.1527,8.1237,8.1708,8.2613,8.2686,8.2577,8.446,8.5149,8.4859,8.5399,8.5833,8.5833,8.5909,8.5909,8.609,8.667,8.7141,8.7901,8.8843,8.9531,9.0074,9.0436,9.0618,9.0618,9.0618,9.0618,9.0618,9.0618,9.0618,9.0618,9.0618,9.0618,9.0618,9.0618,9.0618,9.0258,8.969,8.9314,8.9055,8.8184,8.736,8.6706,8.5889,8.4968,8.403,8.3093,8.2555,8.2025,8.2522,8.2909,8.4263,8.4397,8.4531,8.4087,8.279,8.1544,8.064,7.9872,7.8867,7.7536,7.687,7.6306,7.5906,7.5933,7.6114,7.6961,7.7891,7.8846,7.9679,8.0361,8.1021,8.1092,8.1092,8.1092,8.1092,8.1092,8.1092,8.1056,8.1092,8.1092,8.0911,8.0839,8.0695,8.0478,8.0189,7.9468,7.8565,7.7713,7.694,7.6043,7.5204,7.4967,7.4582,7.4145,7.4043,7.3874,7.3172,7.2496,7.2496,7.2631,7.2732,7.2834,7.3402,7.4035,7.517,7.5985,7.6629,7.7309,7.8292,7.9119,8.1817,8.1273,8.1201,8.1382,8.1237,8.1273,8.1672,8.236,8.2613,8.2505,8.2903,8.4171,8.4931,8.5112,8.5619,8.5873,8.5909,8.5909,8.5909,8.5945,8.667,8.7141,8.7575,8.8553,8.935,8.9712,9.0074,9.0618,9.0618,9.0618,9.0618,9.0618,9.0618,9.0618,9.0618,9.0618,9.069,9.0907,9.0762,9.0654,9.0602,9.0001,8.93,8.9335,8.8633,8.7776,8.7191,8.6748,8.6411,8.5883,8.5315,8.4943,8.4421,8.4208,8.4433,8.4666,8.5015,8.5178,8.5102,8.4219,8.3289,8.256,8.2072,8.084,7.9476,7.8024,7.7263,7.6313,7.6211,7.6035,7.6771,7.7754,7.8729,7.9522,8.0286,8.0767,8.1092,8.1092,8.1092,8.1092,8.1092,8.1092,8.1092,8.1092,8.1092,8.1092,8.1092,8.1092,8.1056,8.0911,8.0478,7.9864,7.9025,7.8228,7.7868,7.7034,7.6537,7.6072,7.5389,7.4856,7.4627,7.3747,7.2665,7.2868,7.3172,7.3443,7.3705,7.416,7.4741,7.5322,7.6169,7.6747,7.7473,7.7986,7.8599,8.1635,8.1998,8.1998,8.1998,8.1998,8.1998,8.2468,8.3229,8.3881,8.4062,8.4316,8.5076,8.5583,8.5583,8.5728,8.5909,8.5909,8.5909,8.5909,8.609,8.6634,8.6923,8.7285,8.8481,8.9241,8.964,9.0074,9.0618,9.0618,9.0618,9.0618,9.0618,9.0618,9.0618,9.0618,9.0654,9.0907,9.1269,9.1269,9.1386,9.164,9.1683,9.137,9.1035,9.0383,8.9785,8.9175,8.8749,8.8149,8.7477,8.6592,8.5862,8.5195,8.5295,8.5276,8.5417,8.5988,8.6227,8.6263,8.5866,8.5105,8.4314,8.3529,8.2224,8.0891,7.958,7.8417,7.7339,7.6516,7.6401,7.6597,7.7685,7.8565,7.9329,8.0099,8.0584,8.1021,8.1092,8.1092,8.1092,8.1092,8.1092,8.1092,8.1092,8.1092,8.1092,8.1092,8.1092,8.1092,8.102,8.102,8.0406,7.9927,7.9358,7.9088,7.8377,7.7476,7.6789,7.6108,7.5773,7.5432,7.478,7.4116,7.3705,7.3747,7.4086,7.4492,7.4931,7.5485,7.5764,7.589,7.6381,7.6575,7.6947,7.7684,8.1382,8.178,8.2143,8.2505,8.2794,8.2831,8.3265,8.4026,8.4497,8.4895,8.5221,8.5692,8.5909,8.5909,8.5909,8.5909,8.5909,8.5909,8.5909,8.609,8.6344,8.6706,8.743,8.8372,8.8951,8.9459,9.0183,9.0618,9.0618,9.0618,9.0618,9.0618,9.0618,9.0654,9.069,9.0907,9.1306,9.174,9.1885,9.2365,9.2823,9.2351,9.1697,9.1333,9.1224,9.0819,9.0661,9.0105,8.9688,8.9055,8.8313,8.7871,8.7264,8.7024,8.6828,8.6917,8.7191,8.7539,8.7528,8.7328,8.6818,8.601,8.5499,8.4467,8.309,8.1769,8.0824,7.9699,7.7834,7.7457,7.7217,7.7909,7.8202,7.8729,7.9601,8.0361,8.0767,8.1092,8.1092,8.1092,8.1092,8.1092,8.1092,8.1092,8.1092,8.1128,8.1128,8.1092,8.1092,8.1092,8.1092,8.1021,8.0436,8.0361,8.0143,7.9187,7.7992,7.7405,7.6815,7.6359,7.5937,7.588,7.5583,7.4898,7.4551,7.4897,7.5337,7.5506,7.5574,7.5696,7.573,7.5892,7.6054,7.6148,7.6634,8.1128,8.1201,8.1817,8.265,8.341,8.3483,8.3917,8.4605,8.4823,8.504,8.5402,8.5692,8.5873,8.5909,8.5909,8.5909,8.5909,8.5909,8.5909,8.6126,8.6163,8.6815,8.7467,8.8118,8.8951,8.964,9.0292,9.0509,9.0618,9.0618,9.0654,9.069,9.0762,9.0799,9.1052,9.1378,9.1885,9.2428,9.2863,9.3706,9.3324,9.246,9.1806,9.137,9.1084,9.0934,9.0819,9.074,9.0581,9.0284,8.9726,8.9392,8.8995,8.8534,8.8245,8.8179,8.8215,8.8372,8.8366,8.8547,8.7998,8.757,8.7358,8.6577,8.5141,8.4135,8.3164,8.1952,8.0177,7.8542,7.83,7.8044,7.8224,7.8301,7.924,8.0247,8.073,8.1128,8.1128,8.1128,8.1092,8.1092,8.1273,8.1273,8.1201,8.1201,8.1165,8.1128,8.1092,8.1092,8.1092,8.1092,8.084,8.0876,8.0767,7.9757,7.8231,7.7805,7.7336,7.6902,7.6518,7.6493,7.6256,7.5628,7.5417,7.55,7.5506,7.5608,7.5676,7.5676,7.5676,7.5771,7.5771,7.5865,7.5771,8.1092,8.1128,8.1273,8.2143,8.3374,8.3483,8.3953,8.4714,8.533,8.5112,8.4678,8.5438,8.5909,8.5909,8.5909,8.5909,8.5909,8.5909,8.638,8.6742,8.6634,8.7249,8.801,8.8807,8.9567,9.011,9.0473,9.0545,9.069,9.069,9.0943,9.1451,9.1523,9.1776,9.2356,9.2501,9.2428,9.3044,9.3044,9.3416,9.396,9.3433,9.3158,9.2545,9.1822,9.1307,9.0975,9.0897,9.074,9.0625,9.0436,9.0292,9.0038,8.9603,8.9277,8.9169,8.9169,8.9169,8.9241,8.9567,8.9205,8.8698,8.8481,8.8185,8.7148,8.6463,8.5606,8.5052,8.3045,8.0316,7.9564,7.913,7.9091,7.8721,7.9047,8.0161,8.1021,8.1165,8.1237,8.1165,8.1092,8.1418,8.1925,8.178,8.1563,8.1527,8.1418,8.1346,8.1128,8.1092,8.1092,8.1092,8.1092,8.062,8.0135,7.9601,7.8482,7.8147,7.7942,7.7767,7.7527,7.7213,7.6823,7.62,7.5841,7.5764,7.5771,7.5676,7.5676,7.5676,7.5676,7.5676,7.5676,7.5676,7.5676]},{"header":{"parameterUnit":"m.s-1","parameterCategory":1,"la1":31.0,"la2":29.5877,"lo1":-88.7671,"lo2":-86.6584,"dx":0.0162,"dy":0.0185,"nx":115,"ny":88,"refTime":"2023-01-26T06:00:00:Z","depth":0,"parameterNumber":3,"parameterNumberName":"V-component_of_WINDS"},"data":[0.0,0.0,0.0,0.0,0.0,0.0,0.0,0.0,0.0,0.0,0.0,0.0,0.0,0.0,0.0,0.0,0.0,0.0,0.0,0.0,0.0,0.0,0.0,0.0,0.0,0.0,0.0,0.0,0.0,0.0,0.0,0.0,0.0,0.0,0.0,0.0,0.0,0.0,0.0,0.0,0.0,0.0,0.0,0.0,0.0,0.0,0.0,0.0,0.0,0.0,0.0,0.0,0.0,0.0,0.0,0.0,0.0,0.0,0.0,0.0,0.0,0.0,0.0,0.0,0.0,0.0,0.0,0.0,0.0,0.0,0.0,0.0,0.0,0.0,0.0,0.0,0.0,0.0,0.0,0.0,0.0,0.0,0.0,0.0,0.0,0.0,0.0,0.0,0.0,0.0,0.0,0.0,0.0,0.0,0.0,0.0,0.0,0.0,0.0,0.0,0.0,0.0,0.0,0.0,0.0,0.0,0.0,0.0,0.0,0.0,0.0,0.0,0.0,0.0,0.0,0.0,0.0,0.0,0.0,0.0,0.0,0.0,0.0,0.0,0.0,0.0,0.0,0.0,0.0,0.0,0.0,0.0,0.0,0.0,0.0,0.0,0.0,0.0,0.0,0.0,0.0,0.0,0.0,0.0,0.0,0.0,0.0,0.0,0.0,0.0,0.0,0.0,0.0,0.0,0.0,0.0,0.0,0.0,0.0,0.0,0.0,0.0,0.0,0.0,0.0,0.0,0.0,0.0,0.0,0.0,0.0,0.0,0.0,0.0,0.0,0.0,0.0,0.0,0.0,0.0,0.0,0.0,0.0,0.0,0.0,0.0,0.0,0.0,0.0,0.0,0.0,0.0,0.0,0.0,0.0,0.0,0.0,0.0,0.0,0.0,0.0,0.0,0.0,0.0,0.0,0.0,0.0,0.0,0.0,0.0,0.0,0.0,0.0,0.0,0.0,0.0,0.0,0.0,0.0,0.0,0.0,0.0,0.0,0.0,0.0,0.0,0.0,0.0,0.0,0.0,0.0,0.0,0.0,0.0,0.0,0.0,0.0,0.0,0.0,0.0,0.0,0.0,0.0,0.0,0.0,0.0,0.0,0.0,0.0,0.0,0.0,0.0,0.0,0.0,0.0,0.0,0.0,0.0,0.0,0.0,0.0,0.0,0.0,0.0,0.0,0.0,0.0,0.0,0.0,0.0,0.0,0.0,0.0,0.0,0.0,0.0,0.0,0.0,0.0,0.0,0.0,0.0,0.0,0.0,0.0,0.0,0.0,0.0,0.0,0.0,0.0,0.0,0.0,0.0,0.0,0.0,0.0,0.0,0.0,0.0,0.0,0.0,0.0,0.0,0.0,0.0,0.0,0.0,0.0,0.0,0.0,0.0,0.0,0.0,0.0,0.0,0.0,0.0,0.0,0.0,0.0,0.0,0.0,0.0,0.0,0.0,0.0,0.0,0.0,0.0,0.0,0.0,0.0,0.0,0.0,0.0,0.0,0.0,0.0,0.0,0.0,0.0,0.0,0.0,0.0,0.0,0.0,0.0,0.0,0.0,0.0,0.0,0.0,0.0,0.0,0.0,0.0,0.0,0.0,0.0,0.0,0.0,0.0,0.0,0.0,0.0,0.0,0.0,0.0,0.0,0.0,0.0,0.0,0.0,0.0,0.0,0.0,0.0,0.0,0.0,0.0,0.0,0.0,0.0,0.0,0.0,0.0,0.0,0.0,0.0,0.0,0.0,0.0,0.0,0.0,0.0,0.0,0.0,0.0,0.0,0.0,0.0,0.0,0.0,0.0,0.0,0.0,0.0,0.0,0.0,0.0,0.0,0.0,0.0,0.0,0.0,0.0,0.0,0.0,0.0,0.0,0.0,0.0,0.0,0.0,0.0,0.0,0.0,0.0,0.0,0.0,0.0,0.0,0.0,0.0,0.0,0.0,0.0,0.0,0.0,0.0,0.0,0.0,0.0,0.0,0.0,0.0,0.0,0.0,0.0,0.0,0.0,0.0,0.0,0.0,0.0,0.0,0.0,0.0,0.0,0.0,0.0,0.0,0.0,0.0,0.0,0.0,0.0,0.0,0.0,0.0,0.0,0.0,0.0,0.0,0.0,0.0,0.0,0.0,0.0,0.0,0.0,0.0,0.0,0.0,0.0,0.0,0.0,0.0,0.0,0.0,0.0,0.0,0.0,0.0,0.0,0.0,0.0,0.0,0.0,0.0,0.0,0.0,0.0,0.0,0.0,0.0,0.0,0.0,0.0,0.0,0.0,0.0,0.0,0.0,0.0,0.0,0.0,0.0,0.0,0.0,0.0,0.0,0.0,0.0,0.0,0.0,0.0,0.0,0.0,0.0,0.0,0.0,0.0,0.0,0.0,0.0,0.0,0.0,0.0,0.0,0.0,0.0,0.0,0.0,0.0,0.0,0.0,0.0,0.0,0.0,0.0,0.0,0.0,0.0,0.0,0.0,0.0,0.0,0.0,0.0,0.0,0.0,0.0,0.0,0.0,0.0,0.0,0.0,0.0,0.0,0.0,0.0,0.0,0.0,0.0,0.0,0.0,0.0,0.0,0.0,0.0,0.0,0.0,0.0,0.0,0.0,0.0,0.0,0.0,0.0,0.0,0.0,0.0,0.0,0.0,0.0,0.0,0.0,0.0,0.0,0.0,0.0,0.0,0.0,0.0,0.0,0.0,0.0,0.0,0.0,0.0,0.0,0.0,0.0,0.0,0.0,0.0,0.0,0.0,0.0,0.0,0.0,0.0,0.0,0.0,0.0,0.0,0.0,0.0,0.0,0.0,0.0,0.0,0.0,0.0,0.0,0.0,0.0,0.0,0.0,0.0,0.0,0.0,0.0,0.0,0.0,0.0,0.0,0.0,0.0,0.0,0.0,0.0,0.0,0.0,0.0,0.0,0.0,0.0,0.0,0.0,0.0,0.0,0.0,0.0,0.0,0.0,0.0,0.0,0.0,0.0,0.0,0.0,0.0,0.0,0.0,0.0,0.0,0.0,0.0,0.0,0.0,0.0,0.0,0.0,0.0,0.0,0.0,0.0,0.0,0.0,0.0,0.0,0.0,0.0,0.0,0.0,0.0,0.0,0.0,0.0,0.0,0.0,0.0,0.0,0.0,0.0,0.0,0.0,0.0,0.0,0.0,0.0,0.0,0.0,0.0,0.0,0.0,0.0,0.0,0.0,0.0,0.0,0.0,0.0,0.0,0.0,0.0,0.0,0.0,0.0,0.0,0.0,0.0,0.0,0.0,0.0,0.0,0.0,0.0,0.0,0.0,0.0,0.0,0.0,0.0,0.0,0.0,0.0,0.0,0.0,0.0,0.0,0.0,0.0,0.0,0.0,0.0,0.0,0.0,0.0,0.0,0.0,0.0,0.0,0.0,0.0,0.0,0.0,0.0,0.0,0.0,0.0,0.0,0.0,0.0,0.0,0.0,0.0,0.0,0.0,0.0,0.0,0.0,0.0,0.0,0.0,0.0,0.0,0.0,0.0,0.0,0.0,0.0,0.0,0.0,0.0,0.0,0.0,0.0,0.0,0.0,0.0,0.0,0.0,0.0,0.0,0.0,0.0,0.0,0.0,0.0,0.0,0.0,0.0,0.0,0.0,0.0,0.0,0.0,0.0,0.0,0.0,0.0,0.0,0.0,0.0,0.0,0.0,0.0,0.0,0.0,0.0,0.0,0.0,0.0,0.0,0.0,0.0,0.0,0.0,0.0,0.0,0.0,0.0,0.0,0.0,0.0,0.0,0.0,0.0,0.0,0.0,0.0,0.0,0.0,0.0,0.0,0.0,0.0,0.0,0.0,0.0,0.0,0.0,0.0,0.0,0.0,0.0,0.0,0.0,0.0,0.0,0.0,0.0,0.0,0.0,0.0,0.0,0.0,0.0,0.0,0.0,0.0,0.0,0.0,0.0,0.0,0.0,0.0,0.0,0.0,0.0,0.0,0.0,0.0,0.0,0.0,0.0,0.0,0.0,0.0,0.0,0.0,0.0,0.0,0.0,0.0,0.0,0.0,0.0,0.0,0.0,0.0,0.0,0.0,0.0,0.0,0.0,0.0,0.0,0.0,0.0,0.0,0.0,0.0,0.0,0.0,0.0,0.0,0.0,0.0,0.0,0.0,0.0,0.0,0.0,0.0,0.0,0.0,0.0,0.0,0.0,0.0,0.0,0.0,0.0,0.0,0.0,0.0,0.0,0.0,0.0,0.0,0.0,0.0,0.0,0.0,0.0,0.0,0.0,0.0,0.0,0.0,0.0,-2.1489,0.0,0.0,0.0,0.0,0.0,0.0,0.0,0.0,0.0,0.0,0.0,0.0,0.0,0.0,0.0,0.0,0.0,0.0,0.0,0.0,0.0,0.0,0.0,0.0,0.0,0.0,0.0,0.0,0.0,0.0,0.0,0.0,0.0,0.0,0.0,0.0,0.0,0.0,0.0,0.0,0.0,0.0,0.0,0.0,0.0,0.0,0.0,0.0,0.0,0.0,0.0,0.0,0.0,0.0,0.0,0.0,0.0,0.0,0.0,0.0,0.0,0.0,0.0,0.0,0.0,0.0,0.0,0.0,0.0,0.0,0.0,0.0,0.0,0.0,0.0,0.0,0.0,0.0,0.0,0.0,0.0,0.0,0.0,0.0,0.0,0.0,0.0,0.0,0.0,0.0,0.0,0.0,0.0,0.0,0.0,0.0,0.0,0.0,0.0,0.0,0.0,0.0,0.0,0.0,0.0,0.0,0.0,0.0,0.0,0.0,-2.0817,-2.1979,-2.0333,-2.0206,-2.2013,0.0,0.0,0.0,0.0,0.0,0.0,0.0,0.0,0.0,0.0,0.0,0.0,0.0,0.0,0.0,0.0,0.0,0.0,0.0,0.0,0.0,0.0,0.0,0.0,0.0,0.0,0.0,0.0,0.0,0.0,0.0,0.0,0.0,0.0,0.0,0.0,0.0,0.0,0.0,0.0,0.0,0.0,0.0,0.0,0.0,0.0,0.0,0.0,0.0,0.0,0.0,0.0,0.0,0.0,0.0,0.0,0.0,0.0,0.0,0.0,0.0,0.0,0.0,0.0,0.0,0.0,0.0,0.0,0.0,0.0,0.0,0.0,0.0,0.0,0.0,0.0,0.0,0.0,0.0,0.0,0.0,0.0,0.0,0.0,0.0,0.0,0.0,0.0,0.0,0.0,0.0,0.0,0.0,0.0,0.0,0.0,0.0,0.0,0.0,0.0,0.0,0.0,0.0,0.0,0.0,0.0,0.0,0.0,0.0,0.0,0.0,0.0,-2.0297,-2.0441,-2.239,0.0,0.0,0.0,0.0,0.0,0.0,0.0,0.0,0.0,0.0,0.0,0.0,0.0,0.0,0.0,0.0,0.0,0.0,0.0,0.0,0.0,0.0,0.0,0.0,0.0,0.0,0.0,0.0,0.0,0.0,0.0,0.0,0.0,0.0,0.0,0.0,0.0,0.0,0.0,0.0,0.0,0.0,0.0,0.0,0.0,0.0,0.0,0.0,0.0,0.0,0.0,0.0,0.0,0.0,0.0,0.0,0.0,0.0,0.0,0.0,0.0,0.0,0.0,0.0,0.0,0.0,0.0,0.0,0.0,0.0,0.0,0.0,0.0,0.0,0.0,0.0,0.0,0.0,0.0,0.0,0.0,0.0,0.0,0.0,0.0,0.0,0.0,0.0,0.0,0.0,0.0,0.0,0.0,0.0,0.0,0.0,0.0,0.0,0.0,0.0,0.0,0.0,0.0,0.0,0.0,0.0,0.0,0.0,0.0,0.0,-2.1821,-2.2396,-2.2011,0.0,-2.2936,0.0,0.0,0.0,0.0,0.0,0.0,0.0,0.0,0.0,0.0,0.0,0.0,0.0,0.0,0.0,0.0,0.0,0.0,0.0,0.0,0.0,0.0,0.0,0.0,0.0,0.0,0.0,0.0,0.0,0.0,0.0,0.0,0.0,0.0,0.0,0.0,0.0,0.0,0.0,0.0,0.0,0.0,0.0,0.0,0.0,0.0,0.0,0.0,0.0,0.0,0.0,0.0,0.0,0.0,0.0,0.0,0.0,0.0,0.0,0.0,0.0,0.0,0.0,0.0,0.0,0.0,0.0,0.0,0.0,0.0,0.0,0.0,0.0,0.0,0.0,0.0,0.0,0.0,0.0,0.0,0.0,0.0,0.0,0.0,0.0,0.0,0.0,0.0,0.0,0.0,0.0,0.0,0.0,0.0,0.0,0.0,0.0,0.0,0.0,0.0,0.0,0.0,0.0,0.0,0.0,0.0,0.0,0.0,0.0,0.0,-2.2904,-2.2796,-2.3043,-2.3286,0.0,0.0,0.0,0.0,0.0,0.0,0.0,0.0,0.0,0.0,0.0,0.0,0.0,0.0,0.0,0.0,0.0,0.0,0.0,0.0,0.0,0.0,0.0,0.0,0.0,0.0,0.0,0.0,0.0,0.0,0.0,0.0,0.0,0.0,0.0,0.0,0.0,0.0,0.0,0.0,0.0,0.0,0.0,0.0,0.0,0.0,0.0,0.0,0.0,0.0,0.0,0.0,0.0,0.0,0.0,0.0,0.0,0.0,0.0,0.0,0.0,0.0,0.0,0.0,0.0,0.0,0.0,0.0,0.0,0.0,0.0,0.0,0.0,0.0,0.0,0.0,0.0,0.0,0.0,0.0,0.0,0.0,0.0,0.0,0.0,0.0,0.0,0.0,0.0,0.0,0.0,0.0,0.0,0.0,0.0,0.0,0.0,0.0,0.0,0.0,0.0,0.0,0.0,0.0,0.0,0.0,0.0,0.0,0.0,0.0,-2.3528,-2.3419,-2.3043,-2.3685,-2.4062,-2.3979,0.0,0.0,0.0,0.0,0.0,0.0,0.0,0.0,0.0,0.0,0.0,0.0,0.0,0.0,0.0,0.0,0.0,0.0,0.0,0.0,0.0,0.0,0.0,0.0,0.0,0.0,0.0,0.0,0.0,0.0,0.0,0.0,0.0,0.0,0.0,0.0,0.0,0.0,0.0,0.0,0.0,0.0,0.0,0.0,0.0,0.0,0.0,0.0,0.0,0.0,0.0,0.0,0.0,0.0,0.0,0.0,0.0,0.0,0.0,0.0,0.0,0.0,0.0,0.0,0.0,0.0,0.0,0.0,0.0,0.0,0.0,0.0,0.0,0.0,0.0,0.0,0.0,0.0,0.0,0.0,0.0,0.0,0.0,0.0,0.0,0.0,0.0,0.0,0.0,0.0,0.0,0.0,0.0,0.0,0.0,0.0,0.0,0.0,0.0,0.0,0.0,0.0,0.0,0.0,0.0,0.0,0.0,0.0,-2.3797,-2.3205,-2.2907,-2.3015,-2.3932,-2.4363,0.0,0.0,0.0,0.0,0.0,0.0,0.0,0.0,0.0,0.0,0.0,0.0,0.0,0.0,0.0,0.0,0.0,0.0,0.0,0.0,0.0,0.0,0.0,0.0,0.0,0.0,0.0,0.0,0.0,0.0,0.0,0.0,0.0,0.0,0.0,0.0,0.0,0.0,0.0,0.0,0.0,0.0,0.0,0.0,0.0,0.0,0.0,0.0,0.0,0.0,0.0,0.0,0.0,0.0,0.0,0.0,0.0,0.0,0.0,0.0,0.0,0.0,0.0,0.0,0.0,0.0,0.0,0.0,0.0,0.0,0.0,0.0,0.0,0.0,0.0,0.0,0.0,0.0,0.0,0.0,0.0,0.0,0.0,0.0,0.0,0.0,0.0,0.0,0.0,0.0,0.0,0.0,0.0,0.0,0.0,0.0,0.0,0.0,0.0,0.0,0.0,0.0,0.0,0.0,0.0,0.0,0.0,0.0,0.0,-2.4219,-2.3747,-2.3586,-2.3773,-2.4086,-2.4157,0.0,0.0,0.0,0.0,0.0,0.0,0.0,0.0,0.0,0.0,0.0,0.0,0.0,0.0,0.0,0.0,0.0,0.0,0.0,0.0,0.0,0.0,0.0,0.0,0.0,0.0,0.0,0.0,0.0,0.0,0.0,0.0,0.0,0.0,0.0,0.0,0.0,0.0,0.0,0.0,0.0,0.0,0.0,0.0,0.0,0.0,0.0,0.0,0.0,0.0,0.0,0.0,0.0,0.0,0.0,0.0,0.0,0.0,0.0,0.0,0.0,0.0,0.0,0.0,0.0,0.0,0.0,0.0,0.0,0.0,0.0,0.0,0.0,0.0,0.0,0.0,0.0,0.0,0.0,0.0,0.0,0.0,0.0,0.0,0.0,0.0,0.0,0.0,0.0,0.0,0.0,0.0,0.0,0.0,0.0,0.0,0.0,0.0,0.0,0.0,0.0,0.0,0.0,0.0,0.0,0.0,0.0,0.0,0.0,-2.4253,0.0,-2.3654,-2.3801,-2.4073,-2.4046,0.0,0.0,0.0,0.0,0.0,0.0,0.0,0.0,0.0,0.0,0.0,0.0,0.0,0.0,0.0,0.0,0.0,0.0,0.0,0.0,0.0,0.0,0.0,0.0,0.0,0.0,0.0,0.0,0.0,0.0,0.0,0.0,0.0,0.0,0.0,0.0,0.0,0.0,0.0,0.0,0.0,0.0,0.0,0.0,0.0,0.0,0.0,0.0,0.0,0.0,0.0,0.0,0.0,0.0,0.0,0.0,0.0,0.0,0.0,0.0,0.0,0.0,0.0,0.0,0.0,0.0,0.0,0.0,0.0,0.0,0.0,0.0,0.0,0.0,0.0,0.0,0.0,0.0,0.0,0.0,0.0,0.0,0.0,0.0,0.0,0.0,0.0,0.0,0.0,0.0,0.0,0.0,0.0,0.0,0.0,0.0,0.0,0.0,0.0,0.0,0.0,0.0,0.0,0.0,0.0,0.0,0.0,0.0,-2.4032,-2.3846,-2.3174,-2.29,-2.2934,-2.3923,-2.4192,0.0,0.0,0.0,0.0,0.0,0.0,0.0,0.0,0.0,0.0,0.0,0.0,0.0,0.0,0.0,0.0,0.0,0.0,0.0,0.0,0.0,0.0,0.0,0.0,0.0,0.0,0.0,0.0,0.0,0.0,0.0,0.0,0.0,0.0,0.0,0.0,0.0,0.0,0.0,0.0,0.0,0.0,0.0,0.0,0.0,0.0,0.0,0.0,0.0,0.0,0.0,0.0,0.0,0.0,0.0,0.0,0.0,0.0,0.0,0.0,0.0,0.0,0.0,0.0,0.0,0.0,0.0,0.0,0.0,0.0,0.0,0.0,0.0,0.0,0.0,0.0,0.0,0.0,0.0,0.0,0.0,0.0,0.0,0.0,0.0,0.0,0.0,0.0,0.0,0.0,0.0,0.0,0.0,0.0,0.0,0.0,0.0,0.0,0.0,0.0,0.0,0.0,0.0,0.0,0.0,0.0,0.0,0.0,0.0,-2.473,-2.3666,-2.3511,-2.4309,-2.3726,-2.3791,0.0,0.0,0.0,0.0,0.0,0.0,0.0,0.0,0.0,0.0,0.0,0.0,0.0,0.0,0.0,0.0,0.0,0.0,0.0,0.0,0.0,0.0,0.0,0.0,0.0,0.0,0.0,0.0,0.0,0.0,0.0,0.0,0.0,0.0,0.0,0.0,0.0,0.0,0.0,0.0,0.0,0.0,0.0,0.0,0.0,0.0,0.0,0.0,0.0,0.0,0.0,0.0,0.0,0.0,0.0,0.0,0.0,0.0,0.0,0.0,0.0,0.0,0.0,0.0,0.0,0.0,0.0,0.0,0.0,0.0,0.0,0.0,0.0,0.0,0.0,0.0,0.0,0.0,0.0,0.0,0.0,0.0,0.0,0.0,0.0,0.0,0.0,0.0,0.0,0.0,0.0,0.0,0.0,0.0,0.0,0.0,0.0,0.0,0.0,0.0,0.0,0.0,0.0,0.0,0.0,0.0,0.0,0.0,0.0,-2.6468,-2.4982,-2.4699,-2.5732,-2.4764,-2.4335,-2.4597,0.0,0.0,0.0,0.0,0.0,0.0,0.0,0.0,0.0,0.0,0.0,0.0,0.0,0.0,0.0,0.0,0.0,0.0,0.0,0.0,0.0,0.0,0.0,0.0,0.0,0.0,0.0,0.0,0.0,0.0,0.0,0.0,0.0,0.0,0.0,0.0,0.0,0.0,0.0,0.0,0.0,0.0,0.0,0.0,0.0,0.0,0.0,0.0,0.0,0.0,0.0,0.0,0.0,0.0,0.0,0.0,0.0,0.0,0.0,0.0,0.0,0.0,0.0,0.0,0.0,0.0,0.0,0.0,0.0,0.0,0.0,0.0,0.0,0.0,0.0,0.0,0.0,0.0,0.0,0.0,0.0,0.0,0.0,0.0,0.0,0.0,0.0,0.0,0.0,0.0,0.0,0.0,0.0,0.0,0.0,0.0,0.0,0.0,0.0,0.0,0.0,0.0,0.0,0.0,0.0,0.0,0.0,0.0,-2.9101,-2.7378,-2.6808,-2.7396,-2.69,-2.5801,0.0,0.0,0.0,0.0,0.0,0.0,0.0,0.0,0.0,0.0,0.0,0.0,0.0,0.0,0.0,0.0,0.0,0.0,0.0,0.0,0.0,0.0,0.0,0.0,0.0,0.0,0.0,0.0,0.0,0.0,0.0,0.0,0.0,0.0,0.0,0.0,0.0,0.0,0.0,0.0,0.0,0.0,0.0,0.0,0.0,0.0,0.0,0.0,0.0,0.0,0.0,0.0,0.0,0.0,0.0,0.0,0.0,0.0,0.0,0.0,0.0,0.0,0.0,0.0,0.0,0.0,0.0,0.0,0.0,0.0,0.0,0.0,0.0,0.0,0.0,0.0,0.0,0.0,0.0,0.0,0.0,0.0,0.0,0.0,0.0,0.0,0.0,0.0,0.0,0.0,0.0,0.0,0.0,0.0,0.0,0.0,0.0,0.0,0.0,0.0,0.0,0.0,0.0,0.0,0.0,0.0,0.0,0.0,0.0,-3.2481,-3.3397,-3.3244,-3.1817,-2.981,-2.8299,0.0,0.0,0.0,0.0,0.0,0.0,0.0,0.0,0.0,0.0,0.0,0.0,0.0,0.0,0.0,0.0,0.0,0.0,0.0,0.0,0.0,0.0,0.0,0.0,0.0,0.0,0.0,0.0,0.0,0.0,0.0,0.0,0.0,0.0,0.0,0.0,0.0,0.0,0.0,0.0,0.0,0.0,0.0,0.0,0.0,0.0,0.0,0.0,0.0,0.0,0.0,0.0,0.0,0.0,0.0,0.0,0.0,0.0,0.0,0.0,0.0,0.0,0.0,0.0,0.0,0.0,0.0,0.0,0.0,0.0,0.0,0.0,0.0,0.0,0.0,0.0,0.0,0.0,0.0,0.0,0.0,0.0,0.0,0.0,0.0,0.0,0.0,0.0,0.0,0.0,0.0,0.0,0.0,0.0,0.0,0.0,0.0,0.0,0.0,0.0,0.0,0.0,0.0,0.0,0.0,0.0,0.0,0.0,-3.2777,-3.407,-3.7706,-3.9032,-3.7726,-3.3504,-3.049,0.0,0.0,0.0,0.0,0.0,0.0,0.0,0.0,0.0,0.0,0.0,0.0,0.0,0.0,0.0,0.0,0.0,0.0,0.0,0.0,0.0,0.0,0.0,0.0,0.0,0.0,0.0,0.0,0.0,0.0,0.0,0.0,0.0,0.0,0.0,0.0,0.0,0.0,0.0,0.0,0.0,0.0,0.0,0.0,0.0,0.0,0.0,0.0,0.0,0.0,0.0,0.0,0.0,0.0,0.0,0.0,0.0,0.0,0.0,0.0,0.0,0.0,0.0,0.0,0.0,0.0,0.0,0.0,0.0,0.0,0.0,0.0,0.0,0.0,0.0,0.0,0.0,0.0,0.0,0.0,0.0,0.0,0.0,0.0,0.0,0.0,0.0,0.0,0.0,0.0,0.0,0.0,0.0,0.0,0.0,0.0,0.0,0.0,0.0,0.0,0.0,0.0,0.0,0.0,0.0,0.0,0.0,0.0,-3.4502,-3.4644,-4.0582,-4.3795,-4.3626,-3.7356,-3.2604,0.0,0.0,0.0,0.0,0.0,0.0,0.0,0.0,0.0,0.0,0.0,0.0,0.0,0.0,0.0,0.0,0.0,0.0,0.0,0.0,0.0,0.0,0.0,0.0,0.0,0.0,0.0,0.0,0.0,0.0,0.0,0.0,0.0,0.0,0.0,0.0,0.0,0.0,0.0,0.0,0.0,0.0,0.0,0.0,0.0,0.0,0.0,0.0,0.0,0.0,0.0,0.0,0.0,0.0,0.0,0.0,0.0,0.0,0.0,0.0,0.0,0.0,0.0,0.0,0.0,0.0,0.0,0.0,0.0,0.0,0.0,0.0,0.0,0.0,0.0,0.0,0.0,0.0,0.0,0.0,0.0,0.0,0.0,0.0,0.0,0.0,0.0,0.0,0.0,0.0,0.0,0.0,0.0,0.0,0.0,0.0,0.0,0.0,0.0,0.0,0.0,0.0,0.0,0.0,0.0,0.0,0.0,0.0,-3.5429,-3.724,-4.1384,-4.3941,-4.4732,-3.9276,-3.5277,0.0,0.0,0.0,0.0,0.0,0.0,0.0,0.0,0.0,0.0,0.0,0.0,0.0,0.0,0.0,0.0,0.0,0.0,0.0,0.0,0.0,0.0,0.0,0.0,0.0,0.0,0.0,0.0,0.0,0.0,0.0,0.0,0.0,0.0,0.0,0.0,0.0,0.0,0.0,0.0,0.0,0.0,0.0,0.0,0.0,0.0,0.0,0.0,-2.532,0.0,0.0,0.0,0.0,0.0,0.0,0.0,0.0,0.0,0.0,0.0,0.0,0.0,0.0,0.0,0.0,0.0,0.0,0.0,0.0,0.0,0.0,0.0,0.0,0.0,0.0,0.0,0.0,0.0,0.0,0.0,0.0,0.0,0.0,0.0,0.0,0.0,0.0,0.0,0.0,0.0,0.0,0.0,0.0,0.0,0.0,0.0,0.0,0.0,0.0,0.0,0.0,0.0,0.0,0.0,0.0,0.0,0.0,0.0,-3.6243,-3.8863,-4.2487,-4.4642,-4.5285,-4.1068,-3.7449,0.0,0.0,0.0,0.0,0.0,0.0,0.0,0.0,0.0,0.0,0.0,0.0,0.0,0.0,0.0,0.0,0.0,0.0,0.0,0.0,0.0,0.0,0.0,0.0,0.0,0.0,0.0,0.0,0.0,0.0,0.0,0.0,0.0,0.0,0.0,0.0,0.0,0.0,0.0,0.0,0.0,0.0,0.0,0.0,0.0,0.0,0.0,0.0,0.0,0.0,0.0,0.0,0.0,0.0,0.0,0.0,0.0,0.0,0.0,0.0,0.0,0.0,0.0,0.0,0.0,0.0,0.0,0.0,0.0,0.0,0.0,0.0,0.0,0.0,0.0,0.0,0.0,0.0,0.0,0.0,0.0,0.0,0.0,0.0,0.0,0.0,0.0,0.0,0.0,0.0,0.0,0.0,0.0,0.0,0.0,0.0,0.0,0.0,0.0,0.0,0.0,0.0,0.0,0.0,0.0,0.0,0.0,-3.3831,-3.707,-4.0294,-4.3536,-4.54,-4.5686,-4.2503,-3.9175,-3.5818,0.0,0.0,0.0,0.0,0.0,0.0,0.0,0.0,0.0,0.0,0.0,0.0,0.0,0.0,0.0,0.0,0.0,0.0,0.0,0.0,0.0,0.0,0.0,0.0,0.0,0.0,0.0,0.0,0.0,0.0,0.0,0.0,0.0,0.0,0.0,0.0,0.0,0.0,-2.2872,-2.3627,0.0,0.0,0.0,0.0,0.0,0.0,0.0,0.0,-2.5683,0.0,0.0,0.0,0.0,0.0,0.0,0.0,0.0,0.0,0.0,0.0,0.0,0.0,0.0,0.0,0.0,0.0,0.0,0.0,0.0,0.0,0.0,0.0,0.0,0.0,0.0,0.0,0.0,0.0,0.0,0.0,0.0,0.0,0.0,0.0,0.0,0.0,0.0,0.0,0.0,0.0,0.0,0.0,0.0,0.0,0.0,0.0,0.0,0.0,0.0,0.0,0.0,0.0,0.0,0.0,0.0,-3.2616,-3.4844,-3.8091,-4.2374,-4.4255,-4.5285,-4.5686,-4.2683,-3.9642,-3.6851,0.0,0.0,0.0,0.0,0.0,0.0,0.0,0.0,0.0,0.0,0.0,0.0,0.0,0.0,0.0,0.0,0.0,0.0,0.0,0.0,0.0,0.0,0.0,0.0,0.0,0.0,0.0,0.0,0.0,0.0,0.0,0.0,0.0,0.0,0.0,0.0,0.0,0.0,0.0,-2.577,-2.636,0.0,0.0,0.0,0.0,0.0,0.0,0.0,0.0,-2.5781,0.0,0.0,0.0,0.0,0.0,0.0,0.0,0.0,0.0,0.0,0.0,0.0,0.0,0.0,0.0,0.0,0.0,0.0,0.0,0.0,0.0,0.0,0.0,0.0,0.0,0.0,0.0,0.0,0.0,0.0,0.0,0.0,0.0,0.0,0.0,0.0,0.0,0.0,0.0,0.0,0.0,0.0,0.0,0.0,0.0,0.0,0.0,0.0,0.0,0.0,0.0,0.0,0.0,0.0,0.0,-3.3847,-3.6493,-3.974,-4.3714,-4.4646,-4.5381,-4.5686,-4.1947,-3.8941,0.0,0.0,0.0,0.0,0.0,0.0,0.0,0.0,0.0,0.0,0.0,0.0,0.0,0.0,0.0,0.0,0.0,0.0,0.0,0.0,0.0,0.0,0.0,0.0,0.0,0.0,0.0,0.0,0.0,0.0,0.0,0.0,0.0,0.0,0.0,0.0,0.0,0.0,0.0,0.0,-2.7484,-2.8256,-2.8609,0.0,0.0,0.0,0.0,0.0,0.0,-2.7002,-2.65,0.0,0.0,0.0,0.0,0.0,0.0,0.0,0.0,0.0,0.0,0.0,0.0,0.0,0.0,0.0,0.0,0.0,0.0,0.0,0.0,0.0,0.0,0.0,0.0,0.0,0.0,0.0,0.0,0.0,0.0,0.0,0.0,0.0,0.0,0.0,0.0,0.0,0.0,0.0,0.0,0.0,0.0,0.0,0.0,0.0,0.0,0.0,0.0,0.0,0.0,0.0,0.0,0.0,0.0,0.0,-3.455,-3.7717,-4.1014,-4.4252,-4.4866,-4.5381,-4.5662,-4.1108,-3.7999,0.0,0.0,0.0,0.0,0.0,0.0,0.0,0.0,0.0,0.0,0.0,0.0,0.0,0.0,0.0,0.0,0.0,0.0,0.0,0.0,0.0,0.0,0.0,0.0,0.0,0.0,0.0,0.0,0.0,0.0,0.0,0.0,0.0,0.0,0.0,0.0,0.0,0.0,0.0,0.0,0.0,-3.0318,-3.025,-3.081,0.0,0.0,0.0,0.0,-2.7824,-2.83,0.0,0.0,0.0,0.0,0.0,0.0,0.0,0.0,0.0,0.0,0.0,0.0,0.0,0.0,0.0,0.0,0.0,0.0,0.0,0.0,0.0,0.0,0.0,0.0,0.0,0.0,0.0,0.0,0.0,0.0,0.0,0.0,0.0,0.0,0.0,0.0,0.0,0.0,0.0,0.0,0.0,0.0,0.0,0.0,0.0,0.0,0.0,0.0,0.0,0.0,0.0,0.0,0.0,0.0,0.0,0.0,-3.3997,-3.7542,-4.0814,-4.3701,-4.4671,-4.5381,-4.571,-4.08,-3.7924,0.0,0.0,0.0,0.0,0.0,0.0,0.0,0.0,0.0,0.0,0.0,0.0,0.0,0.0,0.0,0.0,0.0,0.0,0.0,0.0,0.0,0.0,0.0,0.0,0.0,0.0,0.0,0.0,0.0,0.0,0.0,0.0,0.0,0.0,0.0,0.0,0.0,0.0,0.0,0.0,0.0,-3.2253,-3.2543,-3.2357,-3.1687,0.0,0.0,-2.9869,-2.98,-3.1495,0.0,0.0,0.0,0.0,0.0,0.0,0.0,0.0,0.0,0.0,0.0,0.0,0.0,0.0,0.0,0.0,0.0,0.0,0.0,0.0,0.0,0.0,0.0,0.0,0.0,0.0,0.0,0.0,0.0,0.0,0.0,0.0,0.0,0.0,0.0,0.0,0.0,0.0,0.0,0.0,0.0,0.0,0.0,0.0,0.0,0.0,0.0,0.0,0.0,0.0,0.0,0.0,0.0,0.0,0.0,-3.2177,-3.4245,-3.8692,-4.1848,-4.3765,-4.4037,-4.4505,-4.5195,-3.9492,-3.6545,0.0,0.0,0.0,0.0,0.0,0.0,0.0,0.0,0.0,0.0,0.0,0.0,0.0,0.0,0.0,0.0,0.0,0.0,0.0,0.0,0.0,0.0,0.0,0.0,0.0,0.0,0.0,0.0,0.0,0.0,0.0,0.0,0.0,0.0,0.0,0.0,0.0,0.0,0.0,0.0,0.0,0.0,-3.2552,-3.3736,0.0,0.0,0.0,-3.1308,-3.0356,0.0,0.0,0.0,0.0,0.0,0.0,0.0,0.0,0.0,0.0,0.0,0.0,0.0,0.0,0.0,0.0,0.0,0.0,0.0,0.0,0.0,0.0,0.0,0.0,0.0,0.0,0.0,0.0,0.0,0.0,0.0,0.0,0.0,0.0,0.0,0.0,0.0,0.0,0.0,0.0,0.0,0.0,0.0,0.0,0.0,0.0,0.0,0.0,0.0,0.0,0.0,0.0,0.0,0.0,0.0,0.0,0.0,-3.428,-3.9168,-4.2223,-4.3337,-4.35,-4.3903,-4.443,-3.8778,0.0,0.0,0.0,0.0,0.0,0.0,0.0,0.0,0.0,0.0,0.0,0.0,0.0,0.0,0.0,0.0,0.0,0.0,0.0,0.0,0.0,0.0,0.0,0.0,0.0,0.0,0.0,-2.2115,0.0,0.0,0.0,0.0,0.0,0.0,0.0,0.0,0.0,0.0,0.0,0.0,0.0,0.0,-3.4563,-3.3179,-3.5235,-3.6314,0.0,0.0,-3.2855,-3.1793,-3.3005,-3.2809,0.0,0.0,0.0,0.0,0.0,0.0,0.0,0.0,0.0,0.0,0.0,0.0,0.0,0.0,0.0,0.0,0.0,0.0,0.0,0.0,0.0,0.0,0.0,0.0,0.0,0.0,0.0,0.0,0.0,0.0,0.0,0.0,0.0,0.0,0.0,0.0,0.0,0.0,0.0,0.0,0.0,0.0,0.0,0.0,0.0,0.0,0.0,0.0,0.0,0.0,0.0,0.0,0.0,0.0,0.0,-3.3756,-3.8241,-4.1106,-4.211,-4.3068,-4.3778,-4.424,-3.9643,-3.7278,0.0,0.0,0.0,0.0,0.0,0.0,0.0,0.0,0.0,0.0,0.0,0.0,0.0,0.0,0.0,0.0,0.0,0.0,0.0,0.0,0.0,0.0,0.0,0.0,0.0,0.0,0.0,0.0,0.0,0.0,0.0,0.0,0.0,0.0,0.0,0.0,0.0,0.0,0.0,0.0,0.0,-3.5522,-3.5494,-3.675,-3.8032,0.0,0.0,-3.4926,-3.5245,-3.7184,-3.6806,-3.1593,0.0,0.0,0.0,0.0,0.0,0.0,0.0,0.0,0.0,0.0,0.0,0.0,0.0,0.0,0.0,0.0,0.0,0.0,0.0,0.0,0.0,0.0,0.0,0.0,0.0,0.0,0.0,0.0,0.0,0.0,0.0,0.0,0.0,0.0,0.0,0.0,0.0,0.0,0.0,0.0,0.0,0.0,0.0,0.0,0.0,0.0,0.0,0.0,0.0,0.0,0.0,0.0,0.0,-3.2896,-3.4941,-3.8566,-4.1522,-4.3432,-4.3187,-4.3402,-4.408,-4.0455,-3.7695,0.0,0.0,0.0,0.0,0.0,0.0,0.0,0.0,0.0,0.0,0.0,0.0,0.0,0.0,0.0,0.0,0.0,0.0,0.0,0.0,0.0,0.0,0.0,0.0,0.0,0.0,0.0,0.0,-2.4054,-2.4249,-2.4777,0.0,0.0,0.0,0.0,0.0,0.0,0.0,0.0,0.0,0.0,-3.5568,-3.6873,-3.8481,0.0,0.0,-3.8344,-3.7027,-3.5895,-3.584,-3.4568,-3.112,-2.9704,0.0,0.0,0.0,0.0,0.0,0.0,0.0,0.0,0.0,0.0,0.0,0.0,0.0,0.0,0.0,0.0,0.0,0.0,0.0,0.0,0.0,0.0,0.0,0.0,0.0,0.0,0.0,0.0,0.0,0.0,0.0,0.0,0.0,0.0,0.0,0.0,0.0,0.0,0.0,0.0,0.0,0.0,0.0,0.0,0.0,0.0,0.0,0.0,0.0,0.0,0.0,0.0,-3.3375,-3.5692,-3.8537,-4.128,-4.397,-4.2996,-4.2942,-4.3764,-4.1069,-3.8376,0.0,0.0,0.0,0.0,0.0,0.0,0.0,0.0,0.0,0.0,0.0,0.0,0.0,0.0,0.0,0.0,0.0,0.0,0.0,0.0,0.0,0.0,0.0,0.0,0.0,0.0,0.0,0.0,-2.5301,-2.5302,-2.4657,0.0,0.0,0.0,0.0,0.0,0.0,0.0,0.0,0.0,0.0,-3.5936,-3.7345,-3.9,-3.9916,-3.9533,-3.8455,-3.7251,-3.596,-3.4896,-3.3223,-3.0683,0.0,0.0,0.0,0.0,0.0,0.0,0.0,0.0,0.0,0.0,0.0,0.0,0.0,0.0,0.0,0.0,0.0,0.0,0.0,0.0,0.0,0.0,0.0,0.0,0.0,0.0,0.0,0.0,0.0,0.0,-2.3737,0.0,0.0,0.0,0.0,0.0,0.0,0.0,0.0,0.0,0.0,0.0,0.0,0.0,0.0,0.0,0.0,0.0,0.0,0.0,0.0,0.0,0.0,-3.303,-3.5692,-3.7808,-4.0193,-4.2708,-4.2114,-4.2366,-4.3602,-4.1678,-3.9663,-3.7638,0.0,0.0,0.0,0.0,0.0,0.0,0.0,0.0,0.0,0.0,0.0,0.0,0.0,0.0,0.0,0.0,0.0,0.0,0.0,0.0,0.0,0.0,0.0,0.0,0.0,0.0,-2.4166,-2.5135,-2.5465,0.0,0.0,0.0,0.0,0.0,0.0,0.0,0.0,0.0,0.0,-3.3722,-3.6678,-3.7245,-3.8177,-3.897,-3.9122,-3.6861,-3.542,-3.5746,-3.5289,-3.396,0.0,0.0,0.0,0.0,0.0,0.0,0.0,0.0,0.0,0.0,0.0,0.0,0.0,0.0,0.0,0.0,0.0,0.0,0.0,0.0,0.0,0.0,0.0,0.0,0.0,0.0,0.0,-2.3554,-2.3229,0.0,0.0,0.0,0.0,0.0,0.0,0.0,0.0,0.0,0.0,0.0,-3.0267,-3.0578,0.0,0.0,0.0,0.0,0.0,0.0,0.0,0.0,0.0,0.0,0.0,0.0,-3.3514,-3.6752,-3.8687,-4.0807,-4.3315,-4.3096,-4.3009,-4.3391,-4.2061,-3.998,-3.6937,0.0,0.0,0.0,0.0,0.0,0.0,0.0,0.0,0.0,0.0,0.0,0.0,0.0,0.0,0.0,0.0,0.0,0.0,0.0,0.0,0.0,0.0,0.0,0.0,0.0,-2.5894,0.0,0.0,0.0,0.0,0.0,0.0,0.0,0.0,0.0,0.0,0.0,-3.0019,-3.124,-3.3149,-3.5123,-3.6952,-3.7881,-3.8895,0.0,0.0,0.0,0.0,0.0,0.0,0.0,0.0,0.0,0.0,0.0,0.0,0.0,0.0,-2.8368,-2.8322,-2.7785,-2.7662,-2.8924,0.0,0.0,0.0,0.0,0.0,0.0,0.0,0.0,0.0,0.0,0.0,0.0,0.0,0.0,-2.4429,0.0,-2.3946,0.0,0.0,0.0,0.0,0.0,0.0,0.0,0.0,-3.1504,-3.2935,-3.352,-3.3615,-3.3265,0.0,-3.1105,-2.9106,0.0,0.0,0.0,0.0,0.0,0.0,0.0,0.0,-3.3839,-3.6648,-3.8766,-4.108,-4.3232,-4.312,-4.298,-4.3032,-4.1746,-3.9897,-3.7326,-3.4043,-3.1593,0.0,0.0,0.0,0.0,0.0,0.0,0.0,0.0,0.0,0.0,0.0,0.0,0.0,0.0,0.0,0.0,0.0,0.0,0.0,0.0,0.0,0.0,0.0,-2.623,0.0,0.0,0.0,0.0,0.0,0.0,0.0,0.0,0.0,-2.831,-2.9602,-3.0968,-3.216,-3.3296,-3.4574,-3.6156,0.0,0.0,0.0,0.0,0.0,0.0,0.0,-3.1411,-3.143,-3.0963,-3.0527,-3.0915,-3.0918,-3.0858,-3.1211,0.0,0.0,-2.9774,-2.9329,-2.9373,-3.0366,-3.0466,-3.0632,-3.1542,-3.081,-3.0621,0.0,0.0,0.0,0.0,0.0,0.0,0.0,0.0,-2.5105,-2.5808,0.0,-2.5552,0.0,0.0,0.0,0.0,0.0,-2.8562,0.0,0.0,-3.4862,-3.7382,-3.7392,-3.6962,-3.6634,-3.6207,-3.3108,-3.1148,-3.0463,-2.9655,0.0,0.0,0.0,0.0,0.0,0.0,-3.4145,-3.5509,-3.8404,-4.0826,-4.2544,-4.2292,-4.2166,-4.2418,-4.0759,-3.9473,-3.8729,-3.675,-3.4594,-3.269,-2.9976,0.0,0.0,0.0,0.0,0.0,0.0,0.0,0.0,0.0,0.0,0.0,0.0,0.0,0.0,0.0,0.0,0.0,0.0,0.0,0.0,-2.4643,0.0,0.0,0.0,0.0,0.0,0.0,0.0,0.0,0.0,0.0,-2.8543,-3.0011,-3.157,-3.2619,0.0,0.0,0.0,0.0,-3.5268,-3.4285,-3.3995,-3.3827,-3.3643,-3.3677,-3.3437,-3.2632,0.0,0.0,-3.291,-3.2187,-3.1819,-3.1959,-3.1799,-3.1484,-3.1094,-3.0576,-3.0418,-3.0983,-3.0964,-3.0671,-3.0892,-3.1195,-3.0962,-2.9679,0.0,0.0,0.0,0.0,-2.6704,-2.7348,-2.7835,-2.7798,-2.788,-2.793,-2.6648,0.0,0.0,0.0,0.0,0.0,0.0,-3.0223,-3.3118,-3.5726,-3.799,-3.9802,-3.9705,-3.9158,-3.8179,-3.6372,-3.5107,-3.4505,-3.3622,-3.1605,-2.8615,0.0,0.0,0.0,0.0,-3.4704,-3.7796,-3.9706,-4.1184,-4.2353,-4.225,-4.182,-4.0824,-4.0935,-4.0475,-3.9494,-3.8359,-3.6771,-3.4736,-3.2414,0.0,0.0,0.0,0.0,0.0,0.0,0.0,0.0,0.0,0.0,0.0,0.0,0.0,0.0,0.0,0.0,0.0,0.0,0.0,-2.6152,-2.6441,-2.6605,0.0,0.0,0.0,0.0,0.0,0.0,0.0,0.0,0.0,-3.0285,-3.1034,-3.1834,0.0,0.0,-3.331,-3.4339,-3.4103,-3.418,-3.5678,-3.4337,0.0,0.0,-3.4003,-3.3194,-3.3697,-3.4346,-3.4575,-3.418,-3.4219,-3.418,-3.3956,-3.3789,-3.375,-3.3555,-3.2855,-3.2465,-3.3106,-3.3395,-3.3891,-3.4487,-3.4073,-3.3886,-3.2751,-2.9942,-2.8731,-2.8297,-2.843,-2.8716,-2.9105,-2.9621,-2.9399,-2.9391,-2.9607,-2.8257,-2.7764,-2.7909,-2.7002,0.0,0.0,0.0,-3.1094,-3.467,-3.625,-3.8467,-4.1145,-4.1113,-4.065,-3.9726,-3.8295,-3.7207,-3.6601,-3.5306,-3.3377,-3.0681,0.0,0.0,-3.1526,-3.3222,-3.529,-3.7804,-3.9671,-4.0829,-4.1345,-4.1302,-4.1,-4.0163,-4.0904,-4.0743,-3.9947,-3.9495,-3.8374,-3.6567,-3.4498,-3.2117,0.0,0.0,0.0,0.0,0.0,0.0,0.0,0.0,0.0,0.0,0.0,-2.2261,-2.2086,0.0,0.0,0.0,-2.5558,-2.6508,-2.7636,-2.7589,0.0,0.0,0.0,0.0,0.0,0.0,0.0,-2.8232,-2.9421,-3.0287,-3.0519,-3.1106,-3.1725,-3.2353,-3.2321,-3.2727,-3.3623,0.0,-3.3612,-3.5444,-3.4512,-3.4166,-3.5749,-3.4896,-3.4179,-3.4873,-3.5277,-3.55,-3.5234,-3.5332,-3.5293,-3.5059,-3.498,-3.4922,-3.4726,-3.4259,-3.4105,-3.4262,-3.4606,-3.498,-3.5644,-3.5292,-3.5346,-3.5331,-3.4418,-3.2479,-3.1184,-3.0447,-3.0369,-3.0641,-3.0813,-3.0192,-3.0655,-3.1656,-3.0305,-3.0004,-3.048,-3.0212,0.0,-2.916,-3.0508,-3.2427,-3.4867,-3.6665,-3.9037,-4.1614,-4.1571,-4.1272,-4.0801,-3.9102,-3.7895,-3.7119,-3.5599,-3.4616,-3.4061,-3.4512,-3.4222,-3.3247,-3.4804,-3.5886,-3.6428,-3.8649,-3.9986,-3.999,-3.9883,-3.9876,-4.0067,-4.0507,-4.0599,-4.022,-4.0158,-3.9466,-3.796,-3.631,-3.4556,-3.2427,0.0,0.0,0.0,0.0,0.0,0.0,0.0,0.0,0.0,0.0,0.0,0.0,0.0,0.0,0.0,-2.6992,0.0,-2.8631,-2.8301,0.0,0.0,0.0,-2.8811,-2.851,-2.9353,-2.9745,-2.925,0.0,0.0,-3.0135,-3.0718,-3.1544,-3.267,-3.2808,-3.295,-3.3155,-3.3216,-3.3518,-3.4363,-3.4378,-3.4699,-3.5481,-3.5699,-3.5811,-3.5916,-3.6035,-3.5957,-3.5879,-3.5644,-3.541,-3.5371,-3.5391,-3.5293,-3.4883,-3.5098,-3.5293,-3.4916,-3.4799,-3.4648,-3.4818,-3.5152,-3.5485,-3.7583,-3.6602,-3.6261,-3.4972,-3.2934,-3.2933,-3.3168,-3.35,-3.2819,-3.2564,-3.2752,-3.1445,-3.0829,-3.085,-3.0761,-3.0954,-3.141,-3.1738,-3.3194,-3.5593,-3.7356,-3.898,-4.017,-4.0686,-4.052,-3.9792,-3.9208,-3.8547,-3.8125,-3.7709,-3.6972,-3.5882,-3.6053,-3.5139,-3.3182,-3.4279,-3.5802,-3.7703,-3.8616,-3.938,-3.9926,-3.9707,-3.9605,-3.9654,-4.033,-4.0562,-4.0199,-4.0444,-4.0013,-3.882,-3.7455,-3.556,-3.3328,-3.0586,0.0,0.0,0.0,0.0,0.0,0.0,0.0,0.0,0.0,-2.2957,-2.2794,0.0,-2.559,0.0,-2.8574,-2.953,-2.9399,-2.9318,0.0,0.0,-2.9039,-2.9123,-2.9123,-3.0139,-3.0535,-2.9921,-3.0982,-3.1694,-3.1444,-3.1917,-3.2623,-3.3139,-3.3168,-3.3374,-3.3917,-3.3853,-3.3928,-3.4445,-3.4547,-3.4851,-3.5382,-3.572,-3.6014,-3.5996,-3.6016,-3.5918,-3.5605,-3.5469,-3.5391,-3.5391,-3.5391,-3.5469,-3.5625,-3.5801,-3.582,-3.5684,-3.5176,-3.4805,-3.5156,-3.5566,-3.5976,-3.8867,-3.7871,-3.8157,-3.7095,-3.5329,-3.5191,-3.5119,-3.5185,-3.4687,-3.4583,-3.4438,-3.344,-3.2831,-3.2395,-3.2255,-3.2451,-3.2693,-3.3013,-3.4186,-3.5853,-3.766,-3.8865,-3.9783,-4.0409,-4.0556,-4.0167,-3.9835,-3.9246,-3.8507,-3.8581,-3.7766,-3.6222,-3.6482,-3.5791,-3.4179,-3.4825,-3.6029,-3.7863,-3.8333,-3.9031,-4.0042,-3.9716,-3.9371,-3.9226,-3.9291,-3.9125,-3.8438,-3.82,-3.7902,-3.7583,-3.677,-3.5497,-3.3559,-3.1406,-2.9466,0.0,0.0,0.0,0.0,0.0,0.0,0.0,0.0,0.0,0.0,0.0,-2.6983,-2.8267,-2.952,-3.0207,-3.0077,-2.9968,-2.9948,-2.9799,-2.9799,-2.9879,-3.0078,-3.0651,-3.0792,-3.0478,-3.1391,-3.1996,-3.1978,-3.2485,-3.2949,-3.3359,-3.3348,-3.3539,-3.3862,-3.3796,-3.3828,-3.426,-3.4564,-3.4941,-3.5566,-3.5703,-3.5742,-3.5742,-3.5742,-3.5664,-3.543,-3.5391,-3.5449,-3.5605,-3.5371,-3.5234,-3.5644,-3.5742,-3.5742,-3.5703,-3.5508,-3.541,-3.5625,-3.6016,-3.6445,-3.9551,-3.875,-3.8809,-3.832,-3.748,-3.7015,-3.6602,-3.6191,-3.6133,-3.6074,-3.5976,-3.5461,-3.493,-3.4407,-3.4107,-3.3873,-3.3644,-3.4253,-3.5107,-3.5932,-3.7682,-3.8869,-3.9349,-4.0312,-4.0712,-4.0652,-4.0395,-3.9671,-3.8521,-3.8504,-3.7715,-3.6094,-3.6406,-3.6191,-3.543,-3.5638,-3.637,-3.7348,-3.799,-3.88,-3.9918,-3.9596,-3.9187,-3.8685,-3.8016,-3.7208,-3.6391,-3.5681,-3.5326,-3.5719,-3.5432,-3.482,-3.349,-3.1936,-3.0413,0.0,-2.6756,0.0,0.0,0.0,0.0,0.0,0.0,0.0,0.0,-2.7408,-2.8396,-2.9372,-3.0098,-3.0449,-3.0509,-3.0509,-3.0578,-3.0655,-3.0675,-3.0699,-3.0918,-3.0918,-3.0918,-3.0957,-3.1348,-3.1777,-3.2187,-3.2617,-3.3027,-3.3359,-3.3398,-3.3379,-3.3418,-3.3418,-3.3574,-3.4004,-3.4492,-3.5117,-3.5762,-3.5664,-3.543,-3.541,-3.543,-3.5351,-3.5195,-3.5234,-3.5391,-3.5586,-3.5156,-3.4902,-3.5312,-3.5449,-3.5508,-3.5547,-3.5762,-3.5957,-3.6016,-3.6328,-3.6777,-4.043,-3.9687,-4.0019,-3.9648,-3.8828,-3.8672,-3.8008,-3.7031,-3.6699,-3.6348,-3.6016,-3.584,-3.5723,-3.5605,-3.5269,-3.5166,-3.5428,-3.5508,-3.589,-3.6395,-3.8125,-3.8528,-3.7808,-3.8982,-3.9235,-3.8609,-3.8798,-3.8661,-3.8073,-3.8359,-3.7715,-3.6055,-3.6113,-3.5898,-3.541,0.0,0.0,0.0,-3.7332,-3.8267,-3.8766,-3.8708,-3.8586,-3.8563,-3.8044,0.0,-3.6446,-3.6568,-3.6198,-3.5376,-3.5194,0.0,0.0,0.0,0.0,0.0,0.0,0.0,0.0,0.0,0.0,0.0,-2.7629,-2.7545,-2.7278,-2.8495,-2.959,-2.9976,-3.0379,-3.0576,-3.0817,-3.0741,-3.0917,-3.1329,-3.1074,-3.0937,-3.1328,-3.1094,-3.1016,-3.1367,-3.1777,-3.2207,-3.2617,-3.3047,-3.332,-3.3398,-3.3418,-3.3418,-3.3418,-3.3418,-3.3594,-3.4023,-3.4726,-3.541,-3.5937,-3.5664,-3.5391,-3.5391,-3.5391,-3.5137,-3.457,-3.4668,-3.4687,-3.459,-3.457,-3.4824,-3.5293,-3.5664,-3.5801,-3.5898,-3.5957,-3.6035,-3.6035,-3.6367,-3.6699,-4.0976,0.0,-4.043,-4.0137,0.0,-3.9297,-3.8828,-3.8203,-3.7793,-3.7363,-3.6934,-3.6523,-3.6348,-3.6328,-3.5898,-3.5838,-3.5973,-3.6189,-3.6423,-3.6638,-3.8125,-3.8458,-3.7921,-3.9023,-3.9416,-3.92,-3.9269,-3.9033,-3.859,-3.8622,-3.8027,-3.6973,-3.6953,-3.6953,-3.6973,-3.6973,-3.6758,-3.6348,-3.6916,-3.7608,-3.8164,-3.8127,-3.7866,-3.7119,0.0,0.0,0.0,0.0,0.0,0.0,0.0,0.0,0.0,0.0,0.0,-3.049,-2.9199,-2.8757,-2.9201,-2.9026,-2.9003,-2.9327,-2.9653,-2.9545,-2.8554,-2.9589,-3.0399,-3.0488,-3.0662,-3.076,-3.0879,-3.1074,-3.1289,-3.1484,-3.1523,-3.1621,-3.1777,-3.166,-3.1621,-3.1836,-3.2207,-3.2578,-3.2773,-3.3164,-3.3398,-3.3418,-3.3418,-3.3418,-3.3418,-3.3418,-3.3633,-3.4277,-3.4922,-3.5527,-3.5898,-3.5664,-3.5391,-3.5391,-3.5391,-3.5117,-3.4492,-3.4551,-3.4629,-3.4394,-3.4238,-3.4258,-3.4883,-3.5078,-3.5195,-3.5586,-3.5703,-3.5801,-3.5957,-3.6191,-3.6406,-4.1465,-4.0762,-4.0762,-4.0469,-3.998,-3.959,-3.9355,-3.918,0.0,0.0,0.0,-3.7226,-3.6894,-3.6855,-3.6445,-3.625,-3.6269,-3.6699,-3.6894,-3.6953,-3.8047,-3.8535,-3.8496,-3.9199,-3.968,-3.9978,-3.9778,-3.9445,-3.905,-3.8798,-3.8457,-3.8066,-3.8047,-3.8203,-3.8555,-3.8574,-3.8066,-3.707,-3.7012,-3.7269,-3.7845,-3.7845,-3.7233,-3.6022,-3.4803,-3.346,-3.2255,-3.1225,-3.0908,-3.1386,-3.1747,-3.1566,-3.1047,-3.15,-3.1562,-3.0839,-3.0412,-3.0528,-3.1185,-3.0914,-3.0858,-3.1113,-3.1445,-3.1172,-3.0117,-3.0703,-3.1074,-3.1016,-3.1074,-3.1094,-3.1016,-3.1387,-3.166,-3.1738,-3.1992,-3.2187,-3.2266,-3.2187,-3.2148,-3.2285,-3.2578,-3.2832,-3.291,-3.3203,-3.3418,-3.3418,-3.3418,-3.3476,-3.3516,-3.3574,-3.3848,-3.4531,-3.5078,-3.5547,-3.584,-3.5664,-3.543,-3.5391,-3.5391,-3.5234,-3.4844,-3.4766,-3.4766,-3.4531,-3.4023,-3.4043,-3.4434,-3.4453,-3.4473,-3.5234,-3.541,-3.5527,-3.5898,-3.6035,-3.6152,-4.2051,-4.1621,-4.1621,-4.1152,-4.043,-4.0371,-3.9902,-3.918,-3.8769,-3.8535,-3.8457,-3.7969,-3.7754,-3.7734,-3.7305,-3.7109,-3.7148,-3.7559,-3.7754,0.0,-3.832,-3.8379,-3.8027,-3.8144,-3.8203,-3.8223,-3.8574,-3.8691,-3.8779,-3.8945,-3.8887,-3.8535,-3.8476,-3.8535,-3.8574,-3.8574,-3.8476,-3.832,-3.832,-3.8144,-3.7851,-3.7832,-3.7524,-3.6544,-3.5309,-3.423,-3.3184,-3.2986,-3.2591,-3.2133,-3.2752,-3.2752,-3.2054,-3.2074,-3.2113,-3.1992,-3.1934,-3.1953,-3.207,-3.2012,-3.1992,-3.1992,-3.2051,-3.1992,-3.1836,-3.1914,-3.1836,-3.1504,-3.1738,-3.1816,-3.1523,-3.1816,-3.2207,-3.25,-3.2344,-3.2305,-3.2656,-3.2422,-3.2344,-3.2676,-3.2754,-3.2949,-3.3242,-3.3359,-3.3418,-3.3418,-3.3418,-3.3555,-3.3848,-3.3984,-3.418,-3.4629,-3.5098,-3.5527,-3.5879,-3.5664,-3.5469,-3.5391,-3.543,-3.5293,-3.4824,-3.5019,-3.498,-3.4316,-3.4336,-3.4394,-3.4316,-3.4434,-3.4726,-3.5234,-3.5332,-3.5449,-3.582,-3.5957,-3.6016,-4.2539,-4.2129,-4.1894,-4.1582,-4.1172,-4.0723,-4.0176,-3.957,-3.9375,-3.9004,-3.8555,-3.8125,-3.8184,-3.8574,-3.8418,-3.8476,-3.8711,-3.8906,-3.8848,-3.8633,-3.8828,-3.8691,-3.832,-3.8496,-3.8613,-3.8652,-3.9082,-3.9297,-3.9297,-3.9492,-3.959,-3.9648,-3.9863,-3.998,-3.998,-3.998,-3.9863,-3.9629,-3.8945,-3.8476,-3.8281,-3.8281,-3.7871,-3.7031,-3.6191,-3.5371,-3.4531,-3.4191,-3.376,-3.3223,-3.3505,-3.3407,-3.2891,-3.3066,-3.3203,-3.3184,-3.2988,-3.2851,-3.2851,-3.2422,-3.2363,-3.2793,-3.2637,-3.2617,-3.2832,-3.2422,-3.209,-3.1894,-3.207,-3.209,-3.1914,-3.2246,-3.2598,-3.2773,-3.2812,-3.293,-3.3066,-3.2988,-3.293,-3.3105,-3.3125,-3.3203,-3.3398,-3.3418,-3.3418,-3.3418,-3.3418,-3.3594,-3.4023,-3.4277,-3.457,-3.5019,-3.5449,-3.5762,-3.5976,-3.5879,-3.5742,-3.5742,-3.5742,-3.5547,-3.5176,-3.5293,-3.5098,-3.457,-3.459,-3.4609,-3.4414,-3.4355,-3.457,-3.4863,-3.4805,-3.4883,-3.5176,-3.5488,-3.5742,-4.2891,-4.2539,-4.2226,-4.1973,-4.1738,-4.0976,-4.043,-4.0039,-4.0039,-3.959,-3.8887,-3.8516,-3.873,-3.9316,-3.9355,-3.9551,-3.9863,-3.9883,-3.9707,-3.9375,-3.9355,-3.918,-3.8945,-3.9219,-3.9355,-3.9414,-3.9824,-4.0039,-4.0039,-4.0137,-4.0351,-4.0684,-4.1016,-4.1172,-4.1172,-4.1172,-4.0996,-4.0625,-3.9668,-3.9062,-3.8887,-3.8867,-3.8496,-3.7773,-3.7324,-3.6699,-3.5859,-3.5391,-3.4902,-3.4414,-3.4375,-3.418,-3.375,-3.4023,-3.4219,-3.418,-3.3906,-3.3672,-3.3535,-3.2871,-3.2734,-3.334,-3.3125,-3.3066,-3.332,-3.2832,-3.2402,-3.2324,-3.2422,-3.2441,-3.2383,-3.2695,-3.293,-3.2949,-3.3223,-3.3379,-3.3418,-3.3418,-3.3418,-3.3418,-3.3418,-3.3398,-3.3418,-3.3418,-3.3418,-3.3418,-3.3496,-3.375,-3.416,-3.459,-3.5019,-3.5449,-3.582,-3.5996,-3.6035,-3.6016,-3.5996,-3.6035,-3.6016,-3.584,-3.5605,-3.5547,-3.5371,-3.498,-3.4863,-3.4746,-3.4609,-3.4316,-3.4258,-3.4473,-3.4355,-3.4316,-3.4883,-3.5195,-3.5469,-4.3066,-4.3008,-4.2949,-4.25,-4.1777,-4.1308,-4.0859,-4.0488,-4.0469,-4.0215,-3.9785,-3.9726,-3.9746,-3.9824,-3.9824,-3.9883,-3.9941,-3.9902,-3.9883,-3.9844,-3.9824,-3.9805,-3.9726,-3.9805,-3.9844,-3.9883,-4.0254,-4.0469,-4.0488,-4.0859,-4.1055,-4.1113,-4.1152,-4.1191,-4.1172,-4.1191,-4.1152,-4.1113,-4.0996,-4.0547,-3.9824,-3.9785,-3.9531,-3.9043,-3.8613,-3.8008,-3.7187,-3.6719,-3.6113,-3.5371,-3.5312,-3.5078,-3.4668,-3.4629,-3.4648,-3.4668,-3.4609,-3.4414,-3.4023,-3.3574,-3.332,-3.3398,-3.3379,-3.3359,-3.3418,-3.334,-3.3125,-3.291,-3.3086,-3.3066,-3.2812,-3.3105,-3.332,-3.3301,-3.3379,-3.3418,-3.3418,-3.3418,-3.3418,-3.3418,-3.3418,-3.3418,-3.3418,-3.3418,-3.3437,-3.3496,-3.375,-3.4121,-3.459,-3.498,-3.541,-3.5801,-3.6016,-3.6016,-3.6035,-3.6035,-3.6035,-3.6035,-3.6035,-3.5976,-3.5898,-3.5879,-3.582,-3.543,-3.5332,-3.5098,-3.4473,-3.4082,-3.4141,-3.4199,-3.4219,-3.4336,-3.5059,-3.5391,-3.5488,-4.3457,-4.3437,-4.3183,-4.2578,-4.1797,-4.1348,-4.1074,-4.0918,-4.0918,-4.0801,-4.0664,-4.0644,-4.0508,-4.0273,-4.0273,-4.0391,-4.0644,-4.0644,-4.0508,-4.0293,-4.0273,-4.0137,-3.9941,-4.0156,-4.0273,-4.0312,-4.0703,-4.0898,-4.0976,-4.1328,-4.1543,-4.1543,-4.1543,-4.1543,-4.1543,-4.1543,-4.1426,-4.1191,-4.1426,-4.125,-4.0742,-4.0644,-4.043,-4.0019,-3.9805,-3.9473,-3.8867,-3.8398,-3.7891,-3.7305,-3.7031,-3.6699,-3.6269,-3.5996,-3.5859,-3.582,-3.5117,-3.4512,-3.4101,-3.3672,-3.3418,-3.3418,-3.3418,-3.3418,-3.3418,-3.3418,-3.3437,-3.3535,-3.3476,-3.334,-3.3203,-3.332,-3.3418,-3.3418,-3.3418,-3.3418,-3.3418,-3.3418,-3.3418,-3.3418,-3.3418,-3.3418,-3.3418,-3.3418,-3.3535,-3.373,-3.3984,-3.4316,-3.4961,-3.5273,-3.5547,-3.5918,-3.6035,-3.6035,-3.6035,-3.6035,-3.6035,-3.6035,-3.6035,-3.6035,-3.6035,-3.6035,-3.5937,-3.5762,-3.5742,-3.541,-3.4629,-3.4668,-3.4746,-3.4434,-3.4355,-3.4648,-3.5273,-3.5586,-3.5801,-4.3613,-4.3633,-4.3242,-4.2656,-4.1953,-4.1523,-4.1269,-4.1172,-4.1172,-4.1172,-4.1191,-4.1289,-4.1113,-4.0742,-4.0703,-4.0879,-4.1152,-4.1172,-4.0996,-4.0723,-4.0703,-4.0547,-4.0293,-4.0547,-4.0703,-4.0762,-4.1016,-4.123,-4.1367,-4.1758,-4.1973,-4.1973,-4.1973,-4.1973,-4.1973,-4.1973,-4.1758,-4.1406,-4.166,-4.1601,-4.123,-4.1172,-4.1016,-4.0742,-4.0703,-4.0508,-4.0078,-3.9746,-3.9238,-3.8594,-3.8262,-3.7851,-3.7324,-3.7012,-3.6797,-3.6601,-3.5664,-3.4883,-3.4473,-3.4023,-3.3769,-3.3769,-3.3769,-3.3769,-3.3769,-3.3769,-3.3906,-3.416,-3.3945,-3.3769,-3.3613,-3.3594,-3.3555,-3.3437,-3.3418,-3.3418,-3.3418,-3.3418,-3.3418,-3.3418,-3.3418,-3.3418,-3.3418,-3.3437,-3.3574,-3.3945,-3.418,-3.4492,-3.5215,-3.5488,-3.5684,-3.5957,-3.6016,-3.6035,-3.6035,-3.6035,-3.6035,-3.6035,-3.6035,-3.6035,-3.6035,-3.6035,-3.6035,-3.5918,-3.5996,-3.5801,-3.5117,-3.5156,-3.5195,-3.4609,-3.4512,-3.4941,-3.5508,-3.582,-3.623,-4.334,-4.3633,-4.3242,-4.2812,-4.2363,-4.1953,-4.1562,-4.1269,-4.1211,-4.1211,-4.1289,-4.1601,-4.1543,-4.1172,-4.1191,-4.1172,-4.1191,-4.123,-4.1211,-4.1152,-4.1172,-4.1133,-4.1133,-4.1152,-4.1152,-4.1211,-4.125,-4.1445,-4.1777,-4.2187,-4.2402,-4.2402,-4.2402,-4.2402,-4.2402,-4.2402,-4.2187,-4.1836,-4.1855,-4.1641,-4.1269,-4.1211,-4.123,-4.1191,-4.1133,-4.0918,-4.0547,-4.0469,-3.9883,-3.8633,-3.8613,-3.8203,-3.7461,-3.7324,-3.7129,-3.6699,-3.6211,-3.5762,-3.5332,-3.4844,-3.457,-3.459,-3.4531,-3.4609,-3.4512,-3.4512,-3.457,-3.4668,-3.4629,-3.4453,-3.416,-3.4062,-3.3887,-3.3574,-3.3476,-3.3476,-3.3457,-3.3496,-3.3418,-3.3418,-3.3418,-3.3418,-3.3418,-3.3418,-3.3652,-3.4043,-3.4414,-3.4844,-3.5351,-3.5742,-3.5937,-3.5996,-3.6035,-3.6035,-3.6035,-3.6035,-3.6035,-3.6035,-3.6035,-3.6035,-3.6035,-3.6035,-3.6035,-3.6035,-3.6035,-3.5859,-3.5527,-3.5312,-3.5195,-3.4941,-3.4824,-3.5176,-3.5996,-3.6016,-3.6445,-4.3555,-4.3652,-4.3242,-4.2988,-4.2793,-4.2383,-4.2109,-4.1992,-4.1973,-4.1973,-4.1992,-4.2148,-4.2109,-4.1973,-4.1973,-4.1816,-4.1621,-4.1836,-4.1836,-4.1641,-4.1855,-4.1836,-4.1621,-4.1836,-4.1973,-4.1973,-4.1973,-4.2051,-4.2226,-4.2637,-4.2851,-4.2832,-4.2851,-4.2851,-4.2832,-4.2832,-4.2637,-4.2266,-4.2461,-4.2402,-4.1992,-4.1973,-4.1973,-4.1953,-4.1445,-4.1113,-4.0937,-4.0684,-4.0293,-3.9824,-3.957,-3.9277,-3.8945,-3.8418,-3.7793,-3.7109,-3.6406,-3.5957,-3.5742,-3.5098,-3.4687,-3.4687,-3.4687,-3.4726,-3.4687,-3.4707,-3.4805,-3.5059,-3.5137,-3.5059,-3.4922,-3.4668,-3.4414,-3.4277,-3.4219,-3.4101,-3.3906,-3.3828,-3.373,-3.3496,-3.3418,-3.3418,-3.3418,-3.3418,-3.3691,-3.4336,-3.4609,-3.5019,-3.5625,-3.5937,-3.6035,-3.6035,-3.6035,-3.6035,-3.6035,-3.6035,-3.6035,-3.6035,-3.6035,-3.6035,-3.6035,-3.6035,-3.6035,-3.6035,-3.6035,-3.5898,-3.5586,-3.5469,-3.5351,-3.5527,-3.543,-3.5703,-3.666,-3.6562,-3.707,-4.3691,-4.3652,-4.3398,-4.3203,-4.3047,-4.2754,-4.2558,-4.2441,-4.2422,-4.2422,-4.2441,-4.2578,-4.2578,-4.25,-4.2715,-4.2598,-4.2246,-4.2363,-4.2266,-4.2051,-4.2305,-4.2285,-4.209,-4.2285,-4.2422,-4.2441,-4.2578,-4.2637,-4.2676,-4.3066,-4.3262,-4.3281,-4.3281,-4.3281,-4.3281,-4.3281,-4.3066,-4.2773,-4.293,-4.2851,-4.248,-4.2422,-4.2422,-4.2344,-4.1875,-4.1582,-4.1562,-4.1035,-4.0723,-4.0684,-4.0332,-3.9961,-3.9648,-3.9101,-3.8398,-3.7559,-3.6973,-3.6562,-3.6367,-3.5742,-3.5351,-3.5332,-3.5195,-3.5117,-3.5117,-3.5137,-3.5293,-3.5508,-3.5586,-3.5605,-3.5412,-3.5179,-3.4887,-3.4785,-3.4687,-3.459,-3.4316,-3.4277,-3.4082,-3.373,-3.3516,-3.3437,-3.3437,-3.3555,-3.3965,-3.4629,-3.4805,-3.5254,-3.584,-3.6035,-3.6035,-3.6035,-3.6035,-3.6035,-3.6035,-3.6035,-3.6035,-3.6035,-3.6035,-3.6035,-3.6035,-3.6035,-3.6035,-3.6035,-3.5976,-3.5859,-3.5742,-3.5625,-3.5742,-3.5976,-3.5976,-3.6055,-3.666,-3.7051,-3.7422,-4.3691,-4.3691,-4.3691,-4.3457,-4.3164,-4.3105,-4.2832,-4.2558,-4.25,-4.2558,-4.2656,-4.291,-4.2891,-4.2715,-4.3262,-4.3418,-4.3027,-4.2715,-4.2519,-4.2441,-4.25,-4.25,-4.2441,-4.2539,-4.2578,-4.2578,-4.2891,-4.3086,-4.3105,-4.3437,-4.3633,-4.3672,-4.3633,-4.3613,-4.3672,-4.3633,-4.3476,-4.3183,-4.3125,-4.293,-4.25,-4.2539,-4.2558,-4.2519,-4.2422,-4.2402,-4.2402,-4.166,-4.1211,-4.1133,-4.0801,-4.0137,-3.9512,-3.9258,-3.8828,-3.8144,-3.7891,-3.7676,-3.7285,-3.6836,-3.6523,-3.6484,-3.625,-3.6016,-3.5937,-3.5957,-3.5957,-3.5937,-3.5957,-3.584,-3.5568,-3.5374,-3.5201,-3.477,-3.4863,-3.4844,-3.4726,-3.4687,-3.4531,-3.4101,-3.375,-3.3476,-3.3535,-3.3828,-3.4277,-3.4726,-3.5078,-3.5469,-3.5918,-3.6035,-3.6035,-3.6035,-3.6035,-3.6035,-3.6035,-3.6035,-3.6035,-3.6035,-3.6035,-3.6035,-3.6035,-3.6035,-3.6035,-3.6035,-3.6035,-3.5918,-3.5918,-3.582,-3.5859,-3.6035,-3.6113,-3.6289,-3.6797,-3.7187,-3.7324,-4.3691,-4.3691,-4.3691,-4.3633,-4.3516,-4.3516,-4.3418,-4.332,-4.3301,-4.3301,-4.334,-4.3437,-4.3418,-4.3359,-4.3594,-4.3633,-4.3496,-4.3359,-4.3164,-4.2949,-4.3164,-4.3125,-4.2969,-4.3164,-4.332,-4.332,-4.3437,-4.3496,-4.3535,-4.3633,-4.3691,-4.3691,-4.3691,-4.3691,-4.3691,-4.3691,-4.3613,-4.3535,-4.3496,-4.3418,-4.332,-4.3301,-4.3301,-4.3262,-4.3027,-4.3008,-4.3242,-4.248,-4.1914,-4.1621,-4.1484,-4.1016,-4.0254,-3.9844,-3.9394,-3.8848,-3.8223,-3.7891,-3.7715,-3.7363,-3.7109,-3.707,-3.6953,-3.6758,-3.6523,-3.6465,-3.6348,-3.6094,-3.6035,-3.5879,-3.5606,-3.547,-3.5374,-3.524,-3.5201,-3.5181,-3.5176,-3.4902,-3.4531,-3.4199,-3.4199,-3.416,-3.4023,-3.4238,-3.4668,-3.5059,-3.5312,-3.5566,-3.5898,-3.6035,-3.6035,-3.6035,-3.6035,-3.6035,-3.6035,-3.6035,-3.6035,-3.6035,-3.6035,-3.6035,-3.6035,-3.6035,-3.6035,-3.6035,-3.6035,-3.6035,-3.6035,-3.6035,-3.6035,-3.6035,-3.6074,-3.6465,-3.7031,-3.7207,-3.7148,-4.3691,-4.3691,-4.3691,-4.3691,-4.3691,-4.3691,-4.3691,-4.3691,-4.3691,-4.3691,-4.3691,-4.3691,-4.3691,-4.3691,-4.3691,-4.3691,-4.3691,-4.3691,-4.3555,-4.3359,-4.3555,-4.3555,-4.3359,-4.3574,-4.3691,-4.3691,-4.3691,-4.3691,-4.3691,-4.3691,-4.3691,-4.3691,-4.3691,-4.3691,-4.3691,-4.3691,-4.3691,-4.3691,-4.3691,-4.3691,-4.3691,-4.3691,-4.3691,-4.3652,-4.3437,-4.3457,-4.3633,-4.3164,-4.2695,-4.2285,-4.1992,-4.1406,-4.0605,-4.0254,-3.9922,-3.9473,-3.9004,-3.8613,-3.8398,-3.8047,-3.7676,-3.7559,-3.7383,-3.7187,-3.6953,-3.6894,-3.6758,-3.6562,-3.6385,-3.6089,-3.5812,-3.5534,-3.5534,-3.5534,-3.5486,-3.5529,-3.5471,-3.5234,-3.4922,-3.4687,-3.4648,-3.4551,-3.4473,-3.4687,-3.5039,-3.5332,-3.5527,-3.5664,-3.5957,-3.6016,-3.6035,-3.6035,-3.6035,-3.6035,-3.6035,-3.6035,-3.6035,-3.6035,-3.6035,-3.6035,-3.6035,-3.6035,-3.6035,-3.6035,-3.6035,-3.6035,-3.6035,-3.6035,-3.6035,-3.6035,-3.6094,-3.6484,-3.6894,-3.6641,-3.6641,-4.3691,-4.3691,-4.3691,-4.3691,-4.3691,-4.3691,-4.3691,-4.3691,-4.3691,-4.3691,-4.3691,-4.3691,-4.3691,-4.3691,-4.3691,-4.3691,-4.3691,-4.3691,-4.3691,-4.3652,-4.3691,-4.3652,-4.3652,-4.3691,-4.3691,-4.3691,-4.3691,-4.3691,-4.3691,-4.3691,-4.3691,-4.3691,-4.3691,-4.3691,-4.3691,-4.3691,-4.3691,-4.3691,-4.3691,-4.3691,-4.3691,-4.3691,-4.3691,-4.3691,-4.3672,-4.3672,-4.3672,-4.3594,-4.3437,-4.3008,-4.2226,-4.1465,-4.0781,-4.0566,-4.0293,-3.9941,-3.9902,-3.957,-3.9238,-3.8789,-3.8418,-3.8086,-3.7734,-3.7344,-3.7344,-3.7324,-3.7285,-3.7168,-3.6867,-3.6483,-3.6199,-3.5773,-3.565,-3.5631,-3.5591,-3.5722,-3.586,-3.5644,-3.5371,-3.5273,-3.5019,-3.4766,-3.4805,-3.5137,-3.5391,-3.5508,-3.5762,-3.5937,-3.5996,-3.6035,-3.6035,-3.6035,-3.6035,-3.6035,-3.6035,-3.6035,-3.6055,-3.623,-3.6152,-3.6035,-3.6035,-3.6035,-3.6035,-3.6035,-3.6055,-3.6055,-3.6113,-3.6172,-3.6191,-3.6211,-3.6367,-3.6562,-3.6641,-3.6582,-3.6621,-4.3691,-4.3691,-4.3691,-4.3691,-4.3691,-4.3691,-4.3691,-4.3691,-4.3691,-4.3691,-4.3691,-4.3691,-4.3691,-4.3691,-4.3691,-4.3691,-4.3691,-4.3691,-4.3691,-4.3691,-4.3691,-4.3691,-4.3691,-4.3691,-4.3691,-4.3691,-4.373,-4.3691,-4.3691,-4.375,-4.375,-4.3691,-4.3769,-4.373,-4.3691,-4.373,-4.3691,-4.3691,-4.3691,-4.3691,-4.3691,-4.3691,-4.3691,-4.3691,-4.3691,-4.3691,-4.3691,-4.3691,-4.3516,-4.3066,-4.2266,-4.1738,-4.1406,-4.0918,-4.0547,-4.0371,-4.0098,-3.9883,-3.9687,-3.9316,-3.9004,-3.8867,-3.8476,-3.8105,-3.7773,-3.7773,-3.7617,-3.7402,-3.6862,-3.6617,-3.619,-3.5924,-3.5656,-3.5687,-3.5717,-3.5855,-3.5703,-3.5802,-3.5742,-3.5469,-3.5527,-3.5469,-3.5371,-3.5527,-3.582,-3.5859,-3.5918,-3.6035,-3.6035,-3.6035,-3.6035,-3.6035,-3.6035,-3.6035,-3.6035,-3.6035,-3.6133,-3.6406,-3.6328,-3.6074,-3.6055,-3.6035,-3.6035,-3.6035,-3.6133,-3.6172,-3.6387,-3.6543,-3.6504,-3.6504,-3.6738,-3.6992,-3.707,-3.707,-3.7031,-4.3691,-4.3691,-4.3691,-4.3691,-4.3691,-4.3691,-4.3691,-4.3691,-4.3691,-4.3691,-4.3691,-4.3691,-4.3691,-4.3691,-4.3691,-4.3691,-4.3691,-4.3691,-4.3691,-4.3691,-4.3691,-4.3691,-4.3691,-4.3691,-4.3691,-4.373,-4.3906,-4.4004,-4.4043,-4.416,-4.4258,-4.4297,-4.4258,-4.418,-4.4023,-4.3984,-4.3887,-4.375,-4.3691,-4.3691,-4.3691,-4.3691,-4.3691,-4.3691,-4.3691,-4.3691,-4.3691,-4.3691,-4.3516,-4.3086,-4.2598,-4.2187,-4.1816,-4.1543,-4.1152,-4.0859,-4.0703,-4.0586,-4.0176,-3.9883,-3.9687,-3.9512,-3.9238,-3.9043,-3.8789,-3.8594,-3.832,-3.7914,-3.7374,-3.6846,-3.6538,-3.6104,-3.5739,-3.5736,-3.5924,-3.5971,-3.5816,-3.5877,-3.5938,-3.5724,-3.584,-3.5957,-3.5684,-3.5898,-3.5976,-3.6016,-3.5996,-3.6035,-3.6035,-3.6035,-3.6074,-3.6133,-3.6152,-3.6152,-3.6191,-3.6211,-3.6426,-3.666,-3.6797,-3.6465,-3.6191,-3.6172,-3.6191,-3.623,-3.6269,-3.6406,-3.6719,-3.6934,-3.6934,-3.7012,-3.7226,-3.7285,-3.7324,-3.748,-3.7461,-4.3691,-4.3691,-4.3691,-4.3691,-4.3691,-4.3691,-4.3691,-4.3691,-4.3691,-4.3691,-4.3691,-4.3691,-4.3691,-4.3711,-4.3361,-4.3361,-4.3691,-4.3361,-4.3526,-4.3565,-4.3769,-4.3808,-4.3691,-4.3691,-4.3769,-4.3867,-4.4238,-4.4375,-4.4492,-4.4805,-4.4961,-4.4902,-4.4922,-4.4805,-4.4492,-4.4394,-4.416,-4.3887,-4.373,-4.3711,-4.3691,-4.3691,-4.3691,-4.3691,-4.3691,-4.3691,-4.3691,-4.3672,-4.3535,-4.3164,-4.3105,-4.2656,-4.209,-4.2305,-4.2051,-4.1543,-4.1562,-4.1426,-4.082,-4.0605,-4.0371,-4.0039,-3.9883,-3.9883,-3.9668,-3.9375,-3.8993,-3.8542,-3.7963,-3.7255,-3.67,-3.6312,-3.5999,-3.5889,-3.6107,-3.6168,-3.6169,-3.6201,-3.6166,-3.6074,-3.6152,-3.6094,-3.6133,-3.6074,-3.6055,-3.623,-3.6191,-3.6113,-3.6172,-3.625,-3.6328,-3.6406,-3.6367,-3.6328,-3.6367,-3.6406,-3.6699,-3.6992,-3.7246,-3.709,-3.6562,-3.6465,-3.6465,-3.6504,-3.6601,-3.6855,-3.7246,-3.7363,-3.7363,-3.7461,-3.7617,-3.7519,-3.7441,-3.7715,-3.7793,-4.3691,-4.3691,-4.3691,-4.3691,-4.3691,-4.3691,-4.3691,-4.3691,-4.3691,-4.3691,-4.3691,-4.3691,-4.3691,-4.3546,-4.2512,-4.2345,-4.3195,-4.2345,-4.2345,-4.375,-4.4101,-4.4004,-4.3789,-4.373,-4.3926,-4.416,-4.4336,-4.459,-4.4863,-4.5019,-4.5039,-4.5078,-4.5156,-4.5,-4.4883,-4.4629,-4.4375,-4.4199,-4.3926,-4.3769,-4.375,-4.375,-4.373,-4.3711,-4.3691,-4.3691,-4.3691,-4.3691,-4.3652,-4.3516,-4.3262,-4.2988,-4.2754,-4.2558,-4.2363,-4.2187,-4.2168,-4.2051,-4.1582,-4.1211,-4.0859,-4.0488,-4.0215,-3.9883,-3.9883,-3.9844,-3.957,-3.9019,-3.838,-3.7464,-3.646,-3.6219,-3.5997,-3.5906,-3.6017,-3.6164,-3.6318,-3.6352,-3.6688,-3.6813,-3.6719,-3.6641,-3.6914,-3.6367,-3.6309,-3.6426,-3.6387,-3.625,-3.6348,-3.6523,-3.6621,-3.6738,-3.668,-3.666,-3.6777,-3.6836,-3.7051,-3.7344,-3.7598,-3.7637,-3.7129,-3.6973,-3.707,-3.7031,-3.6973,-3.7305,-3.7695,-3.7793,-3.7793,-3.791,-3.7969,-3.7871,-3.7851,-3.8047,-3.8027,-4.3906,-4.3711,-4.3691,-4.3691,-4.3691,-4.3691,-4.3691,-4.3691,-4.3691,-4.3691,-4.3691,-4.3691,-4.3691,-4.3526,-4.1844,-4.1677,-4.1844,-4.065,-4.0741,-4.2237,-4.2892,-4.3189,-4.4101,-4.4043,-4.418,-4.4453,-4.4844,-4.5117,-4.5312,-4.5508,-4.5664,-4.5625,-4.5605,-4.5527,-4.5351,-4.5078,-4.4922,-4.4707,-4.4453,-4.4238,-4.4062,-4.4023,-4.3867,-4.375,-4.3691,-4.3691,-4.3691,-4.3691,-4.3691,-4.3652,-4.3476,-4.3262,-4.3144,-4.3027,-4.2851,-4.25,-4.2637,-4.25,-4.2129,-4.1875,-4.1582,-4.1152,-4.0898,-4.0703,-4.0488,-4.0332,-3.9946,-3.9542,-3.8727,-3.769,-3.593,-3.536,-3.5342,-3.5306,-3.5306,-3.5664,-3.633,-3.6702,-3.6789,-3.7061,-3.695,-3.709,-3.6992,-3.6738,-3.6738,-3.6914,-3.6914,-3.6797,-3.6816,-3.6973,-3.7031,-3.707,-3.7031,-3.7051,-3.7187,-3.7305,-3.7422,-3.7715,-3.7988,-3.793,-3.7617,-3.7656,-3.7773,-3.7598,-3.7422,-3.7754,-3.8086,-3.8144,-3.8203,-3.8262,-3.8281,-3.8242,-3.8203,-3.8223,-3.8125,-4.4141,-4.3691,-4.3691,-4.3691,-4.3691,-4.3691,-4.3691,-4.3691,-4.3691,-4.3691,-4.3691,-4.3691,-4.3691,-4.3195,-4.1323,-4.0482,-3.9823,-3.966,-4.0008,-4.1487,-4.1748,-4.265,-4.3981,-4.4433,-4.457,-4.4668,-4.5234,-4.5605,-4.584,-4.6094,-4.6133,-4.625,-4.6269,-4.6035,-4.5801,-4.5664,-4.543,-4.5137,-4.4961,-4.4766,-4.4531,-4.4473,-4.4277,-4.3945,-4.373,-4.3711,-4.3691,-4.3691,-4.3691,-4.3691,-4.3691,-4.3516,-4.3379,-4.3418,-4.3437,-4.2695,-4.3008,-4.293,-4.2637,-4.248,-4.2305,-4.1953,-4.1777,-4.1601,-4.125,-4.0859,-4.0413,-3.9874,-3.9147,-3.7856,-3.5681,-3.5058,-3.4714,-3.4493,-3.4458,-3.4839,-3.5997,-3.6495,-3.6469,-3.7086,-3.7236,-3.75,-3.7461,-3.7324,-3.7363,-3.7363,-3.7344,-3.7344,-3.7383,-3.7422,-3.748,-3.7539,-3.7519,-3.7422,-3.7519,-3.7754,-3.7891,-3.8008,-3.8301,-3.8203,-3.8066,-3.8125,-3.8144,-3.7988,-3.7949,-3.8203,-3.8359,-3.8398,-3.8457,-3.8574,-3.8535,-3.8418,-3.8379,-3.8379,-3.8262,-4.4121,-4.3691,-4.3691,-4.3691,-4.3691,-4.3691,-4.3691,-4.3691,-4.3691,-4.3691,-4.3691,-4.3691,-4.3691,-4.2844,-4.0108,-3.8066,-3.7531,-3.7849,-3.934,-4.071,-4.1232,-4.2571,-4.3741,-4.4785,-4.5078,-4.541,-4.5511,-4.5686,-4.6094,-4.6269,-4.6308,-4.6308,-4.6308,-4.6211,-4.6094,-4.5879,-4.5703,-4.5547,-4.5312,-4.5078,-4.4961,-4.4844,-4.4687,-4.4258,-4.3984,-4.3789,-4.373,-4.3711,-4.3691,-4.3691,-4.3691,-4.3652,-4.3594,-4.3652,-4.3574,-4.3476,-4.3457,-4.334,-4.3047,-4.2969,-4.2754,-4.2383,-4.207,-4.1855,-4.1621,-4.1308,-4.0783,-4.024,-3.928,-3.8157,-3.7166,-3.541,-3.4894,-3.4485,-3.3686,-3.35,-3.4539,-3.5366,-3.6017,-3.6878,-3.7432,-3.7891,-3.7871,-3.7832,-3.7754,-3.7715,-3.7676,-3.7734,-3.7812,-3.7891,-3.7969,-3.8008,-3.8047,-3.793,-3.7851,-3.8125,-3.834,-3.832,-3.8476,-3.8476,-3.8398,-3.8476,-3.8437,-3.8223,-3.8242,-3.8418,-3.8535,-3.8574,-3.8574,-3.8574,-3.8555,-3.8555,-3.8516,-3.8476,-3.8496,-4.4316,-4.3711,-4.3691,-4.3691,-4.3691,-4.3691,-4.3691,-4.3691,-4.3691,-4.3691,-4.3691,-4.3691,-4.3691,-4.301,-4.0969,-3.8323,-3.6545,-3.5712,-3.7123,-3.8353,-3.9948,-4.1442,-4.314,-4.4508,-4.541,-4.5338,-4.4971,-4.5163,-4.6094,-4.6289,-4.6133,-4.6308,-4.6308,-4.6308,-4.6269,-4.6113,-4.5996,-4.5918,-4.5762,-4.5547,-4.5351,-4.5195,-4.4902,-4.4687,-4.4336,-4.4101,-4.4023,-4.3789,-4.3711,-4.3691,-4.3691,-4.3691,-4.3691,-4.3691,-4.3691,-4.3691,-4.3691,-4.3633,-4.3437,-4.3398,-4.3203,-4.2832,-4.2539,-4.2344,-4.209,-4.1738,-4.1133,-4.0259,-3.9548,-3.8032,-3.5992,-3.502,-3.397,-3.3133,-3.2317,-3.2462,-3.3399,-3.4423,-3.5342,-3.6571,-3.7289,-3.7759,-3.8359,-3.8281,-3.8144,-3.8066,-3.8027,-3.8086,-3.8184,-3.8242,-3.8301,-3.8281,-3.8262,-3.8203,-3.8086,-3.8242,-3.8496,-3.8555,-3.8574,-3.8574,-3.8574,-3.8574,-3.8535,-3.8398,-3.8496,-3.8574,-3.8574,-3.8574,-3.8574,-3.8574,-3.8574,-3.8555,-3.8574,-3.8574,-3.8574,-4.4512,-4.3691,-4.3691,-4.3691,-4.3691,-4.3691,-4.3769,-4.3808,-4.373,-4.3769,-4.3828,-4.375,-4.3691,-4.3048,-4.1284,-3.8735,-3.5937,-3.4472,-3.4845,-3.6564,-3.8081,-3.9668,-4.1605,-4.3093,-4.4451,-4.4641,-4.3542,-4.3941,-4.5197,-4.5392,-4.5588,-4.5744,-4.5939,-4.6308,-4.6289,-4.625,-4.6308,-4.6308,-4.6289,-4.6113,-4.5781,-4.5469,-4.5215,-4.5117,-4.4746,-4.4492,-4.4336,-4.4082,-4.3828,-4.373,-4.3691,-4.3691,-4.3691,-4.3691,-4.3691,-4.3691,-4.3691,-4.3691,-4.3691,-4.3672,-4.3496,-4.3223,-4.3105,-4.2871,-4.2539,-4.1931,-4.1306,-4.0192,-3.9656,-3.8439,-3.6342,-3.4467,-3.3378,-3.2331,-3.1685,-3.1183,-3.2301,-3.3312,-3.4076,-3.5273,-3.6719,-3.7554,-3.8067,-3.8535,-3.8359,-3.834,-3.8301,-3.832,-3.8418,-3.8437,-3.8476,-3.8437,-3.8398,-3.8379,-3.8301,-3.8242,-3.8437,-3.8555,-3.8574,-3.8574,-3.8574,-3.8574,-3.8516,-3.8496,-3.8516,-3.8574,-3.8574,-3.8574,-3.8574,-3.8574,-3.8574,-3.8574,-3.8574,-3.8574,-3.8574,-4.4512,-4.3711,-4.3711,-4.3691,-4.3691,-4.3546,-4.3945,-4.4032,-4.3701,-4.3945,-4.418,-4.3926,-4.375,-4.3164,-4.0521,-3.8241,-3.6479,-3.5303,-3.4925,-3.6216,-3.7173,-3.8366,-3.9939,-4.0203,-4.2492,-4.3206,-4.1888,-4.212,-4.3389,-4.3923,-4.3941,-4.4118,-4.5568,-4.6328,-4.6387,-4.6328,-4.6308,-4.6308,-4.6328,-4.6289,-4.623,-4.6152,-4.5937,-4.5625,-4.5195,-4.4785,-4.4531,-4.4297,-4.4082,-4.373,-4.3691,-4.3691,-4.3691,-4.3691,-4.3691,-4.3691,-4.3691,-4.3691,-4.3711,-4.3691,-4.3691,-4.3496,-4.3301,-4.3105,-4.2793,-4.2344,-4.1577,-4.0629,-4.0072,-3.9003,-3.7135,-3.5458,-3.4475,-3.2906,-3.1333,-3.0923,-3.1464,-3.2372,-3.2977,-3.4007,-3.5375,-3.6791,-3.7667,-3.8252,-3.8555,-3.8574,-3.8574,-3.8574,-3.8574,-3.8574,-3.8574,-3.8516,-3.8496,-3.8476,-3.8457,-3.8398,-3.8437,-3.8555,-3.8574,-3.8574,-3.8574,-3.8574,-3.8574,-3.8555,-3.8574,-3.8574,-3.8574,-3.8574,-3.8574,-3.8574,-3.8574,-3.8574,-3.8574,-3.8574,-3.8594,-4.4883,-4.4101,-4.4101,-4.326,-4.2216,-4.2423,-4.2499,-4.248,-4.2537,-4.3021,-4.3876,-4.4121,-4.4219,-4.3741,-4.1695,-4.0036,-3.8429,-3.6474,-3.5395,-3.5699,-3.6615,-3.7606,-3.84,-3.9779,-4.1458,-4.187,-4.0843,-3.9937,-4.1401,-4.2854,-4.3389,-4.3567,-4.5236,-4.6445,-4.6386,-4.6406,-4.6484,-4.6582,-4.668,-4.666,-4.666,-4.6641,-4.6562,-4.6348,-4.5742,-4.5215,-4.4824,-4.4473,-4.418,-4.3808,-4.3691,-4.3691,-4.3789,-4.3926,-4.4101,-4.4101,-4.4101,-4.3984,-4.375,-4.3711,-4.3711,-4.3691,-4.3496,-4.334,-4.3086,-4.2734,-4.1407,-3.9548,-4.0038,-3.9037,-3.7063,-3.5409,-3.4243,-3.2873,-3.1319,-3.0731,-3.0831,-3.1348,-3.2221,-3.3106,-3.4116,-3.5414,-3.6861,-3.7932,-3.8503,-3.875,-3.8691,-3.8613,-3.8594,-3.8574,-3.8574,-3.8574,-3.8555,-3.8555,-3.8535,-3.8516,-3.8496,-3.8574,-3.8574,-3.8574,-3.8574,-3.8574,-3.8574,-3.8574,-3.8574,-3.8574,-3.8574,-3.8574,-3.8574,-3.8574,-3.8574,-3.8574,-3.8574,-3.8613,-3.8613,-4.5234,-4.4551,-4.4453,-4.3098,-4.1024,-4.1317,-4.0996,-4.0529,-4.0764,-4.1822,-4.3304,-4.4078,-4.4785,-4.4395,-4.2728,-4.0613,-3.989,-3.7558,-3.5945,-3.5329,-3.579,-3.6513,-3.7002,-3.8396,-3.9755,-4.1941,-3.9225,-3.8742,-4.0089,-4.1541,-4.2263,-4.2138,-4.3376,-4.497,-4.5872,-4.591,-4.5948,-4.707,-4.7226,-4.7226,-4.7129,-4.709,-4.7012,-4.6719,-4.625,-4.5625,-4.5195,-4.4805,-4.4355,-4.4004,-4.375,-4.3711,-4.375,-4.3926,-4.4082,-4.4082,-4.4082,-4.3984,-4.3848,-4.3808,-4.3789,-4.373,-4.3691,-4.3535,-4.332,-4.3164,-4.2078,-3.9286,-3.9571,-3.8186,-3.6123,-3.4882,-3.405,-3.2865,-3.1477,-3.0721,-3.0292,-3.0851,-3.1365,-3.2003,-3.2986,-3.41,-3.5591,-3.7246,-3.8198,-3.8728,-3.8828,-3.8691,-3.8633,-3.8467,-3.8594,-3.8594,-3.8594,-3.8613,-3.8613,-3.8613,-3.8594,-3.8652,-3.8652,-3.8613,-3.8652,-3.8613,-3.8574,-3.8574,-3.8652,-3.8574,-3.8574,-3.8574,-3.8574,-3.8574,-3.8574,-3.8574,-3.8594,-3.8633,-3.8828,-4.541,-4.4941,-4.4551,-4.3117,-4.0855,-4.1024,-4.0225,-3.9011,-3.8924,-4.0362,-4.2683,-4.4109,-4.5044,-4.4818,-4.2609,-4.0803,-4.0248,-3.6467,-3.5353,-3.4995,-3.4867,-3.5212,-3.5368,-3.5926,-3.6514,-3.8143,-3.747,-3.7644,-3.8546,-3.9891,-3.9524,-3.8759,-4.1257,-4.2655,-4.376,-4.4525,-4.5287,-4.6419,-4.7173,-4.7412,-4.7418,-4.7281,-4.7324,-4.6933,-4.6504,-4.6055,-4.5625,-4.5195,-4.4726,-4.4297,-4.3984,-4.373,-4.375,-4.3887,-4.3984,-4.4004,-4.3632,-4.3574,-4.3701,-4.4043,-4.4082,-4.3848,-4.373,-4.375,-4.3555,-4.3262,-4.1846,-4.0015,-3.9723,-3.8597,-3.6696,-3.5213,-3.4242,-3.3407,-3.2247,-3.1302,-3.0689,-3.0393,-3.0944,-3.1167,-3.1945,-3.3031,-3.4062,-3.5748,-3.6932,-3.7481,-3.8303,-3.8169,-3.8271,-3.836,-3.8633,-3.8633,-3.8633,-3.8652,-3.8672,-3.873,-3.8945,-3.8984,-3.8965,-3.8848,-3.8769,-3.8711,-3.8887,-3.8848,-3.8926,-3.875,-3.8652,-3.8867,-3.8926,-3.8672,-3.8428,-3.7862,-3.7849,-3.7963,-3.8437,-4.4205,-4.4629,-4.4473,-4.2556,-3.9647,-3.9876,-3.8751,-3.6987,-3.6976,-3.9008,-4.2216,-4.3341,-4.4587,-4.5048,-4.4793,-4.2513,-4.0662,-3.9225,-3.6884,-3.5241,-3.471,-3.471,-3.471,-3.5084,-3.5786,-3.6915,-3.6885,-3.7025,-3.8084,-3.851,-3.7443,-3.7585,-3.9527,-4.1374,-4.2662,-4.2953,-4.3677,-4.4213,-4.5538,-4.622,-4.6492,-4.7134,-4.75,-4.7324,-4.6601,-4.6133,-4.5723,-4.5527,-4.5039,-4.4551,-4.4258,-4.4004,-4.3643,-4.3945,-4.3857,-4.369,-4.2983,-4.2816,-4.371,-4.409,-4.4297,-4.4238,-4.4121,-4.4004,-4.375,-4.3516,-4.2296,-4.0934,-3.9591,-3.866,-3.6856,-3.5609,-3.486,-3.4032,-3.3042,-3.1903,-3.1283,-3.0817,-3.0773,-3.1131,-3.1375,-3.2006,-3.3107,-3.418,-3.5202,-3.6195,-3.7044,-3.7634,-3.793,-3.8259,-3.8426,-3.8926,-3.8965,-3.9101,-3.916,-3.9258,-3.9355,-3.9316,-3.9277,-3.9219,-3.916,-3.9394,-3.9492,-3.9394,-3.9297,-3.9297,-3.9297,-3.9355,-3.9238,-3.8945,-3.7849,-3.6571,-3.6738,-3.7334,-3.7858,-4.2827,-4.4441,-4.4029,-4.191,-3.8873,-3.8922,-3.7359,-3.5128,-3.501,-3.7159,-4.079,-4.208,-4.3839,-4.4964,-4.4473,-4.3193,-4.0481,-3.886,-3.6869,-3.5615,-3.471,-3.471,-3.4739,-3.4985,-3.542,-3.6543,-3.6804,-3.7208,-3.7203,-3.6813,-3.6772,-3.7217,-3.8575,-4.0024,-4.1319,-4.19,-4.2004,-4.2467,-4.3304,-4.4997,-4.5315,-4.6328,-4.7296,-4.732,-4.6875,-4.6367,-4.5976,-4.5723,-4.5391,-4.4922,-4.4551,-4.4238,-4.3935,-4.3562,-4.3491,-4.2818,-4.1955,-4.1427,-4.2293,-4.3678,-4.409,-4.4297,-4.4141,-4.3984,-4.3808,-4.3691,-4.2672,-4.0824,-3.988,-3.8548,-3.6694,-3.5297,-3.4525,-3.3491,-3.2876,-3.1911,-3.1543,-3.1285,-3.1227,-3.1242,-3.149,-3.1658,-3.2085,-3.3006,-3.418,-3.522,-3.6008,-3.6769,-3.7444,-3.7953,-3.8514,-3.9038,-3.9414,-3.959,-3.9785,-3.9726,-3.9668,-3.9629,-3.9629,-3.9707,-3.9746,-3.9941,-3.9922,-3.9707,-3.9687,-3.9844,-3.9824,-3.9687,-3.9453,-3.916,-3.7876,-3.6358,-3.6587,-3.7031,-3.6713,-4.1503,-4.4718,-4.3261,-4.0994,-3.8203,-3.8272,-3.641,-3.3691,-3.3501,-3.5147,-3.7974,-4.1104,-4.2942,-4.2996,-4.2067,-4.1023,-3.9772,-3.7054,-3.5256,-3.4882,-3.471,-3.471,-3.4827,-3.5132,-3.5265,-3.5777,-3.6586,-3.6889,-3.6386,-3.7399,-3.7387,-3.6785,-3.7358,-3.8077,-3.9404,-4.139,-4.2482,-4.2499,-4.2465,-4.3607,-4.467,-4.5111,-4.6272,-4.6715,-4.7009,-4.6719,-4.6348,-4.6055,-4.5762,-4.541,-4.4883,-4.457,-4.4433,-4.2555,-4.1806,-4.1413,-3.9625,-3.8546,-3.8631,-4.1695,-4.3465,-4.4297,-4.418,-4.3906,-4.375,-4.3526,-4.3195,-4.1509,-3.9849,-3.8355,-3.6467,-3.4798,-3.4314,-3.3365,-3.2573,-3.2282,-3.2082,-3.1622,-3.1534,-3.1476,-3.1637,-3.1739,-3.1637,-3.1955,-3.314,-3.4067,-3.5054,-3.587,-3.6523,-3.7075,-3.7592,-3.852,-3.9089,-3.9736,-3.9872,-4.0039,-3.998,-3.9941,-4.0019,-4.0176,-4.0195,-4.0234,-4.0156,-4.0,-4.0117,-4.0293,-4.0137,-3.9922,-3.941,-3.8918,-3.7666,-3.6651,-3.6875,-3.6517,-3.5832,-3.8906,-4.0761,-4.0349,-3.8799,-3.7102,-3.8523,-3.7326,-3.4808,-3.4008,-3.4638,-3.6559,-3.8794,-4.031,-4.0601,-4.0756,-3.9755,-3.831,-3.7943,-3.6328,-3.471,-3.4724,-3.4856,-3.4988,-3.5134,-3.5295,-3.5706,-3.6549,-3.6937,-3.61,-3.7237,-3.7207,-3.6583,-3.6597,-3.6933,-3.7448,-3.8487,-3.8518,-3.8894,-3.9851,-4.1189,-4.1924,-4.3909,-4.5501,-4.6088,-4.6819,-4.7148,-4.6719,-4.6445,-4.6211,-4.5801,-4.5234,-4.5078,-4.4524,-4.28,-4.1739,-4.088,-3.9131,-3.6931,-3.7591,-3.9848,-4.2572,-4.3639,-4.4199,-4.3945,-4.3769,-4.3711,-4.3195,-4.2531,-4.0819,-3.9324,-3.7742,-3.687,-3.5929,-3.3664,-3.2862,-3.2857,-3.2565,-3.2028,-3.1724,-3.171,-3.1798,-3.1841,-3.1783,-3.1768,-3.2586,-3.2902,-3.3608,-3.4098,-3.4601,-3.5383,-3.6142,-3.7477,-3.8588,-3.9548,-4.0106,-4.0279,-4.0684,-4.0781,-4.0781,-4.082,-4.0781,-4.0644,-4.0644,-4.0605,-4.0684,-4.0723,-4.0432,-4.0201,-3.9236,-3.8439,-3.7421,-3.587,-3.5129,-3.4775,-3.4343,-3.69,-3.8663,-3.8241,-3.7699,-3.7091,-3.7875,-3.6768,-3.4633,-3.3844,-3.4142,-3.5218,-3.664,-3.8003,-3.9008,-3.9208,-3.9026,-3.7591,-3.6684,-3.6328,-3.4724,-3.4827,-3.4973,-3.5149,-3.5383,-3.5646,-3.5866,-3.61,-3.629,-3.6319,-3.6509,-3.6583,-3.6597,-3.6612,-3.6583,-3.678,-3.6992,-3.6992,-3.7371,-3.8338,-3.9104,-4.0577,-4.2501,-4.4587,-4.5538,-4.6561,-4.7519,-4.7109,-4.6816,-4.6621,-4.6074,-4.5742,-4.5586,-4.4778,-4.3518,-4.2042,-4.0421,-3.7788,-3.5885,-3.6674,-3.8458,-4.1166,-4.2705,-4.3639,-4.4004,-4.3769,-4.3711,-4.3691,-4.3029,-4.2011,-4.0295,-3.875,-3.8083,-3.6188,-3.3892,-3.3145,-3.2951,-3.2892,-3.2178,-3.2134,-3.2105,-3.2076,-3.2046,-3.1973,-3.1944,-3.2185,-3.2214,-3.2251,-3.2643,-3.3053,-3.3936,-3.4987,-3.657,-3.8031,-3.916,-4.0097,-4.0781,-4.123,-4.1582,-4.1523,-4.1406,-4.1269,-4.1113,-4.1172,-4.1172,-4.1055,-4.0996,-4.0919,-4.0471,-3.9707,-3.8566,-3.717,-3.5502,-3.3579,-3.3195,-3.3177,-3.5654,-3.8382,-3.7112,-3.7208,-3.8107,-3.6241,-3.4509,-3.2984,-3.3144,-3.3276,-3.3485,-3.5924,-3.6948,-3.6964,-3.7432,-3.7391,-3.7054,-3.56,-3.5069,-3.4783,-3.4958,-3.5105,-3.5383,-3.5734,-3.5968,-3.6187,-3.6378,-3.6495,-3.6583,-3.6597,-3.6597,-3.6612,-3.6612,-3.6612,-3.6612,-3.6612,-3.6612,-3.6795,-3.6992,-3.7946,-3.9252,-4.1348,-4.2881,-4.4231,-4.576,-4.6322,-4.6323,-4.6197,-4.6265,-4.6036,-4.5822,-4.582,-4.5049,-4.3514,-4.1593,-3.8981,-3.5475,-3.5188,-3.5838,-3.7891,-3.9511,-4.1317,-4.2926,-4.3458,-4.3711,-4.3691,-4.3691,-4.3361,-4.2345,-4.0632,-3.892,-3.7225,-3.551,-3.4128,-3.3102,-3.2867,-3.2881,-3.2661,-3.2646,-3.2632,-3.2617,-3.2544,-3.2354,-3.228,-3.2207,-3.2263,-3.2386,-3.2669,-3.3107,-3.3243,-3.4355,-3.5831,-3.727,-3.8795,-3.985,-4.0826,-4.1539,-4.1973,-4.1914,-4.1797,-4.168,-4.1543,-4.1445,-4.1367,-4.1269,-4.125,-4.1191,-4.0955,-4.0363,-3.9074,-3.7559,-3.595,-3.4173,-3.28,-3.2393,-3.4382,-3.5162,-3.4502,-3.4517,-3.4906,-3.4034,-3.3279,-3.2837,-3.3334,-3.348,-3.329,-3.4706,-3.5453,-3.5149,-3.5464,-3.5569,-3.5428,-3.5069,-3.4882,-3.4827,-3.5017,-3.5266,-3.5558,-3.5895,-3.6202,-3.6407,-3.6539,-3.6612,-3.6597,-3.6612,-3.6612,-3.6612,-3.6612,-3.6612,-3.6612,-3.6612,-3.6612,-3.6612,-3.6612,-3.6992,-3.7946,-3.9867,-4.109,-4.2172,-4.3845,-4.4257,-4.4137,-4.5132,-4.52,-4.4622,-4.5915,-4.6309,-4.5919,-4.4191,-4.196,-3.8333,-3.5761,-3.43,-3.5137,-3.7598,-3.9217,-4.0031,-4.2348,-4.3845,-4.3965,-4.375,-4.375,-4.338,-4.3029,-4.1658,-3.9787,-3.8066,-3.6205,-3.4828,-3.3631,-3.294,-3.2763,-3.2763,-3.2763,-3.2763,-3.2763,-3.2734,-3.2573,-3.2559,-3.25,-3.25,-3.2631,-3.2922,-3.3006,-3.3112,-3.3383,-3.487,-3.6291,-3.7613,-3.9593,-4.0745,-4.1625,-4.2344,-4.2285,-4.2226,-4.2129,-4.1973,-4.1738,-4.1601,-4.1582,-4.1601,-4.1641,-4.1264,-4.0762,-3.9756,-3.8394,-3.6575,-3.4799,-3.3847,-3.2827,-3.3466,-3.3334,-3.3144,-3.3173,-3.3261,-3.2939,-3.2822,-3.3012,-3.3378,-3.3407,-3.3363,-3.4124,-3.4402,-3.4285,-3.472,-3.4897,-3.4897,-3.471,-3.471,-3.4783,-3.5017,-3.5207,-3.5514,-3.5895,-3.6173,-3.6392,-3.6539,-3.6612,-3.6612,-3.6612,-3.6612,-3.6612,-3.6612,-3.6612,-3.6612,-3.6612,-3.6612,-3.6612,-3.6612,-3.6612,-3.7386,-3.8534,-3.9299,-3.9883,-4.159,-4.2138,-4.2055,-4.3527,-4.3527,-4.3046,-4.4414,-4.4591,-4.3843,-4.2047,-4.0662,-3.7296,-3.5607,-3.4367,-3.483,-3.686,-3.7808,-3.8896,-4.1137,-4.2377,-4.3422,-4.3491,-4.3613,-4.3604,-4.3399,-4.2844,-4.1137,-3.926,-3.7397,-3.5684,-3.4319,-3.294,-3.2763,-3.2763,-3.2763,-3.2763,-3.2763,-3.2763,-3.2749,-3.2763,-3.2763,-3.269,-3.2661,-3.2808,-3.2925,-3.2806,-3.2917,-3.3551,-3.5007,-3.6493,-3.8329,-4.0198,-4.1128,-4.1982,-4.2592,-4.2534,-4.2436,-4.2246,-4.1855,-4.1855,-4.1933,-4.1992,-4.2051,-4.1529,-4.1038,-4.0179,-3.9555,-3.8206,-3.7082,-3.6093,-3.502,-3.3056,-3.2837,-3.2807,-3.288,-3.2822,-3.2837,-3.2997,-3.3276,-3.3378,-3.3334,-3.3495,-3.4007,-3.4314,-3.4388,-3.4592,-3.4695,-3.471,-3.471,-3.471,-3.4724,-3.5017,-3.5207,-3.5383,-3.5778,-3.61,-3.6246,-3.6392,-3.6612,-3.6612,-3.6612,-3.6612,-3.6612,-3.6612,-3.6612,-3.6612,-3.6612,-3.6641,-3.6729,-3.667,-3.6626,-3.7066,-3.8203,-3.9526,-3.9541,-4.0626,-4.1632,-4.1588,-4.1609,-4.1679,-4.1425,-4.1611,-4.1659,-4.0947,-3.9491,-3.8256,-3.7254,-3.565,-3.4847,-3.5033,-3.6619,-3.7083,-3.7843,-3.8708,-4.0526,-4.1814,-4.3027,-4.327,-4.3837,-4.3779,-4.3458,-4.19,-3.9618,-3.7552,-3.6031,-3.4494,-3.3455,-3.2763,-3.2763,-3.2763,-3.2763,-3.2763,-3.2763,-3.2763,-3.2763,-3.2763,-3.2763,-3.2763,-3.2763,-3.2749,-3.269,-3.272,-3.2673,-3.4361,-3.5857,-3.6725,-3.8618,-4.0268,-4.1304,-4.222,-4.3001,-4.3086,-4.2578,-4.1953,-4.207,-4.2246,-4.2402,-4.2339,-4.2172,-4.1857,-4.1537,-4.0713,-3.9952,-3.9049,-3.8458,-3.728,-3.2983,-3.3129,-3.3129,-3.3129,-3.3129,-3.3129,-3.3319,-3.3627,-3.389,-3.3963,-3.4066,-3.4373,-3.4578,-3.4578,-3.4636,-3.471,-3.471,-3.471,-3.471,-3.4783,-3.5002,-3.5119,-3.5266,-3.5749,-3.6056,-3.6217,-3.6392,-3.6612,-3.6612,-3.6612,-3.6612,-3.6612,-3.6612,-3.6612,-3.6612,-3.6626,-3.6729,-3.6875,-3.6875,-3.6691,-3.6792,-3.6578,-3.7148,-3.7244,-3.7901,-3.8111,-3.8543,-3.9514,-3.9708,-3.9866,-4.1302,-4.1646,-4.1322,-3.9096,-3.819,-3.7584,-3.6058,-3.5276,-3.5291,-3.6448,-3.7226,-3.7759,-3.8728,-3.966,-4.0772,-4.1869,-4.2799,-4.3534,-4.3954,-4.3446,-4.2459,-4.001,-3.7895,-3.6362,-3.4828,-3.3792,-3.294,-3.2763,-3.2763,-3.2763,-3.2763,-3.2763,-3.2763,-3.2763,-3.2763,-3.2763,-3.2763,-3.2763,-3.2763,-3.2734,-3.2734,-3.31,-3.434,-3.554,-3.6043,-3.7384,-3.9476,-4.1045,-4.1971,-4.2652,-4.3332,-4.274,-4.1933,-4.2339,-4.2578,-4.2773,-4.3008,-4.3262,-4.2925,-4.243,-4.2283,-4.1472,-4.1361,-4.0914,-3.9582,-3.288,-3.3041,-3.3188,-3.3334,-3.3451,-3.3466,-3.3641,-3.3949,-3.4139,-3.43,-3.4432,-3.4622,-3.471,-3.471,-3.471,-3.471,-3.471,-3.471,-3.471,-3.4783,-3.4885,-3.5031,-3.5324,-3.5705,-3.5939,-3.6144,-3.6436,-3.6612,-3.6612,-3.6612,-3.6612,-3.6612,-3.6612,-3.6626,-3.6641,-3.6729,-3.689,-3.7065,-3.7124,-3.7084,-3.6564,-3.6378,-3.612,-3.5977,-3.5934,-3.6004,-3.64,-3.7553,-3.784,-3.8031,-3.8859,-3.8893,-3.8624,-3.7613,-3.708,-3.667,-3.6116,-3.5368,-3.5809,-3.6396,-3.73,-3.7398,-3.7398,-3.7607,-3.8745,-3.9881,-4.0297,-4.1048,-4.248,-4.2275,-4.2144,-4.0341,-3.899,-3.7552,-3.5858,-3.4319,-3.3455,-3.2763,-3.2763,-3.2763,-3.2763,-3.2763,-3.2763,-3.2763,-3.2763,-3.2778,-3.2778,-3.2763,-3.2763,-3.2763,-3.2763,-3.294,-3.4143,-3.4319,-3.4432,-3.6296,-3.8885,-4.0295,-4.1491,-4.1676,-4.1876,-4.2061,-4.2112,-4.2375,-4.2826,-4.3242,-4.3496,-4.3594,-4.3633,-4.3264,-4.3283,-4.3156,-4.3029,-4.2863,-4.1825,-3.2778,-3.2807,-3.3056,-3.3393,-3.37,-3.3729,-3.3905,-3.4183,-3.4271,-3.4358,-3.4505,-3.4622,-3.4695,-3.471,-3.471,-3.471,-3.471,-3.471,-3.471,-3.4797,-3.4812,-3.5075,-3.5339,-3.5602,-3.5939,-3.6217,-3.648,-3.6568,-3.6612,-3.6612,-3.6626,-3.6641,-3.667,-3.6685,-3.6787,-3.6919,-3.7124,-3.7344,-3.7519,-3.7622,-3.6997,-3.6421,-3.6163,-3.5991,-3.565,-3.582,-3.6004,-3.6202,-3.6597,-3.6706,-3.6937,-3.7028,-3.6863,-3.6446,-3.6327,-3.6075,-3.609,-3.5705,-3.5927,-3.6,-3.6001,-3.5603,-3.5295,-3.5862,-3.7241,-3.768,-3.8119,-3.887,-4.0193,-4.1323,-4.1196,-4.0844,-3.9642,-3.8614,-3.674,-3.4684,-3.3646,-3.2778,-3.2778,-3.2778,-3.2763,-3.2763,-3.2837,-3.2837,-3.2807,-3.2807,-3.2793,-3.2778,-3.2763,-3.2763,-3.2763,-3.2763,-3.3279,-3.3293,-3.3455,-3.551,-3.8579,-3.943,-4.0259,-4.0246,-4.0472,-4.1101,-4.162,-4.2353,-4.2886,-4.337,-4.3594,-4.3652,-4.3691,-4.3691,-4.3691,-4.3526,-4.3526,-4.3361,-4.3526,-3.2763,-3.2778,-3.2837,-3.3188,-3.3685,-3.3729,-3.3919,-3.4227,-3.4475,-3.4388,-3.4212,-3.4519,-3.471,-3.471,-3.471,-3.471,-3.471,-3.471,-3.49,-3.5046,-3.5002,-3.5251,-3.5558,-3.588,-3.6187,-3.6407,-3.6553,-3.6583,-3.6641,-3.6641,-3.6744,-3.6948,-3.6978,-3.708,-3.7314,-3.7373,-3.7344,-3.7592,-3.7592,-3.7506,-3.7724,-3.704,-3.6461,-3.5989,-3.5477,-3.5508,-3.5607,-3.5805,-3.6202,-3.6385,-3.6539,-3.648,-3.6378,-3.6202,-3.607,-3.6027,-3.6027,-3.6027,-3.6056,-3.6187,-3.6041,-3.5836,-3.5749,-3.5853,-3.6321,-3.6035,-3.6558,-3.6761,-3.8284,-4.0263,-4.054,-4.0101,-3.9218,-3.8821,-3.7703,-3.5272,-3.3353,-3.2999,-3.2822,-3.2793,-3.2763,-3.2895,-3.31,-3.3041,-3.2954,-3.2939,-3.2895,-3.2866,-3.2778,-3.2763,-3.2763,-3.2763,-3.2763,-3.3807,-3.4844,-3.5858,-3.8066,-3.875,-3.9073,-3.8985,-3.9289,-4.0409,-4.1063,-4.1805,-4.2691,-4.3303,-4.3526,-4.3691,-4.3691,-4.3691,-4.3691,-4.3691,-4.3691,-4.3691,-4.3691]}]]